ftp/pub/palmer/observations_modified/2019/August/AR190830_AWS2.txt

Download

Sample DateTime	Unit Id	WS Avg 2min	WD Avg 2min	WGS 10min	WGD 10min	Air Temp	Rel Humidity	Dew Point	Pyranometer	Quantum	Air Pressure	Snow Level	Rainfall	PW Current	Visibility	CBase 1	CBase 2	CBase 3	Vert Vis
2019/08/30 00:00:00	AWS2	0.00	134	M	M	M	M	M	NA	NA	985.2	NA	NA		M	NA	NA	NA	NA
2019/08/30 00:01:00	AWS2	0.00	135	M	M	M	M	M	NA	NA	985.5	NA	NA		M	NA	NA	NA	NA
2019/08/30 00:02:00	AWS2	0.00	138	M	M	M	M	M	NA	NA	985.1	NA	NA		M	NA	NA	NA	NA
2019/08/30 00:03:00	AWS2	0.00	148	M	M	M	M	M	NA	NA	985.1	NA	NA		M	NA	NA	NA	NA
2019/08/30 00:04:00	AWS2	0.00	152	M	M	M	M	M	NA	NA	985.3	NA	NA		M	NA	NA	NA	NA
2019/08/30 00:05:00	AWS2	0.00	150	M	M	M	M	M	NA	NA	985.3	NA	NA		M	NA	NA	NA	NA
2019/08/30 00:06:00	AWS2	0.00	146	M	M	M	M	M	NA	NA	985.5	NA	NA		M	NA	NA	NA	NA
2019/08/30 00:07:00	AWS2	0.00	141	M	M	M	M	M	NA	NA	985.1	NA	NA		M	NA	NA	NA	NA
2019/08/30 00:08:00	AWS2	0.00	143	M	M	M	M	M	NA	NA	985.3	NA	NA		M	NA	NA	NA	NA
2019/08/30 00:09:00	AWS2	0.00	149	M	M	M	M	M	NA	NA	985.2	NA	NA		M	NA	NA	NA	NA
2019/08/30 00:10:00	AWS2	0.00	154	M	M	M	M	M	NA	NA	985.2	NA	NA		M	NA	NA	NA	NA
2019/08/30 00:11:00	AWS2	0.00	157	M	M	M	M	M	NA	NA	985.5	NA	NA		M	NA	NA	NA	NA
2019/08/30 00:12:00	AWS2	0.00	157	M	M	M	M	M	NA	NA	985.3	NA	NA		M	NA	NA	NA	NA
2019/08/30 00:13:00	AWS2	0.00	157	M	M	M	M	M	NA	NA	985.5	NA	NA		M	NA	NA	NA	NA
2019/08/30 00:14:00	AWS2	0.00	164	M	M	M	M	M	NA	NA	985.2	NA	NA		M	NA	NA	NA	NA
2019/08/30 00:15:00	AWS2	0.00	158	M	M	M	M	M	NA	NA	985.5	NA	NA		M	NA	NA	NA	NA
2019/08/30 00:16:00	AWS2	0.00	133	M	M	M	M	M	NA	NA	985.2	NA	NA		M	NA	NA	NA	NA
2019/08/30 00:17:00	AWS2	0.00	129	M	M	M	M	M	NA	NA	985.3	NA	NA		M	NA	NA	NA	NA
2019/08/30 00:18:00	AWS2	0.00	141	M	M	M	M	M	NA	NA	985.7	NA	NA		M	NA	NA	NA	NA
2019/08/30 00:19:00	AWS2	0.00	147	M	M	M	M	M	NA	NA	985.5	NA	NA		M	NA	NA	NA	NA
2019/08/30 00:20:00	AWS2	0.00	139	M	M	M	M	M	NA	NA	985.5	NA	NA		M	NA	NA	NA	NA
2019/08/30 00:21:00	AWS2	0.00	135	M	M	M	M	M	NA	NA	985.3	NA	NA		M	NA	NA	NA	NA
2019/08/30 00:22:00	AWS2	0.00	142	M	M	M	M	M	NA	NA	985.5	NA	NA		M	NA	NA	NA	NA
2019/08/30 00:23:00	AWS2	0.00	144	M	M	M	M	M	NA	NA	985.3	NA	NA		M	NA	NA	NA	NA
2019/08/30 00:24:00	AWS2	0.00	144	M	M	M	M	M	NA	NA	985.7	NA	NA		M	NA	NA	NA	NA
2019/08/30 00:25:00	AWS2	0.00	141	M	M	M	M	M	NA	NA	985.4	NA	NA		M	NA	NA	NA	NA
2019/08/30 00:26:00	AWS2	0.00	140	M	M	M	M	M	NA	NA	985.4	NA	NA		M	NA	NA	NA	NA
2019/08/30 00:27:00	AWS2	0.00	134	M	M	M	M	M	NA	NA	985.5	NA	NA		M	NA	NA	NA	NA
2019/08/30 00:28:00	AWS2	0.00	119	M	M	M	M	M	NA	NA	985.5	NA	NA		M	NA	NA	NA	NA
2019/08/30 00:29:00	AWS2	0.00	102	M	M	M	M	M	NA	NA	985.3	NA	NA		M	NA	NA	NA	NA
2019/08/30 00:30:00	AWS2	0.00	105	M	M	M	M	M	NA	NA	985.3	NA	NA		M	NA	NA	NA	NA
2019/08/30 00:31:00	AWS2	0.00	114	M	M	M	M	M	NA	NA	985.3	NA	NA		M	NA	NA	NA	NA
2019/08/30 00:32:00	AWS2	0.00	111	M	M	M	M	M	NA	NA	985.6	NA	NA		M	NA	NA	NA	NA
2019/08/30 00:33:00	AWS2	0.00	111	M	M	M	M	M	NA	NA	985.5	NA	NA		M	NA	NA	NA	NA
2019/08/30 00:34:00	AWS2	0.00	122	M	M	M	M	M	NA	NA	985.4	NA	NA		M	NA	NA	NA	NA
2019/08/30 00:35:00	AWS2	0.00	135	M	M	M	M	M	NA	NA	985.5	NA	NA		M	NA	NA	NA	NA
2019/08/30 00:36:00	AWS2	0.00	136	M	M	M	M	M	NA	NA	985.7	NA	NA		M	NA	NA	NA	NA
2019/08/30 00:37:00	AWS2	0.00	127	M	M	M	M	M	NA	NA	985.2	NA	NA		M	NA	NA	NA	NA
2019/08/30 00:38:00	AWS2	0.00	123	M	M	M	M	M	NA	NA	985.6	NA	NA		M	NA	NA	NA	NA
2019/08/30 00:39:00	AWS2	0.00	110	M	M	M	M	M	NA	NA	985.5	NA	NA		M	NA	NA	NA	NA
2019/08/30 00:40:00	AWS2	0.00	92	M	M	M	M	M	NA	NA	985.6	NA	NA		M	NA	NA	NA	NA
2019/08/30 00:41:00	AWS2	0.00	84	M	M	M	M	M	NA	NA	985.6	NA	NA		M	NA	NA	NA	NA
2019/08/30 00:42:00	AWS2	0.00	88	M	M	M	M	M	NA	NA	985.8	NA	NA		M	NA	NA	NA	NA
2019/08/30 00:43:00	AWS2	0.00	98	M	M	M	M	M	NA	NA	985.5	NA	NA		M	NA	NA	NA	NA
2019/08/30 00:44:01	AWS2	0.00	112	M	M	M	M	M	NA	NA	985.5	NA	NA		M	NA	NA	NA	NA
2019/08/30 00:45:00	AWS2	0.00	116	M	M	M	M	M	NA	NA	985.5	NA	NA		M	NA	NA	NA	NA
2019/08/30 00:46:00	AWS2	0.00	99	M	M	M	M	M	NA	NA	985.4	NA	NA		M	NA	NA	NA	NA
2019/08/30 00:47:00	AWS2	0.00	86	M	M	M	M	M	NA	NA	985.5	NA	NA		M	NA	NA	NA	NA
2019/08/30 00:48:00	AWS2	0.00	81	M	M	M	M	M	NA	NA	985.5	NA	NA		M	NA	NA	NA	NA
2019/08/30 00:49:00	AWS2	0.00	84	M	M	M	M	M	NA	NA	985.8	NA	NA		M	NA	NA	NA	NA
2019/08/30 00:50:00	AWS2	0.00	93	M	M	M	M	M	NA	NA	985.7	NA	NA		M	NA	NA	NA	NA
2019/08/30 00:51:00	AWS2	0.00	103	M	M	M	M	M	NA	NA	985.2	NA	NA		M	NA	NA	NA	NA
2019/08/30 00:52:00	AWS2	0.00	118	M	M	M	M	M	NA	NA	985.8	NA	NA		M	NA	NA	NA	NA
2019/08/30 00:53:00	AWS2	0.00	121	M	M	M	M	M	NA	NA	985.5	NA	NA		M	NA	NA	NA	NA
2019/08/30 00:54:00	AWS2	0.00	120	M	M	M	M	M	NA	NA	985.7	NA	NA		M	NA	NA	NA	NA
2019/08/30 00:55:00	AWS2	0.00	125	M	M	M	M	M	NA	NA	985.4	NA	NA		M	NA	NA	NA	NA
2019/08/30 00:56:00	AWS2	0.00	100	M	M	M	M	M	NA	NA	985.8	NA	NA		M	NA	NA	NA	NA
2019/08/30 00:57:00	AWS2	0.00	87	M	M	M	M	M	NA	NA	985.4	NA	NA		M	NA	NA	NA	NA
2019/08/30 00:58:00	AWS2	0.00	97	M	M	M	M	M	NA	NA	985.4	NA	NA		M	NA	NA	NA	NA
2019/08/30 00:59:00	AWS2	0.00	107	M	M	M	M	M	NA	NA	985.5	NA	NA		M	NA	NA	NA	NA
2019/08/30 01:00:00	AWS2	0.00	123	M	M	M	M	M	NA	NA	985.5	NA	NA		M	NA	NA	NA	NA
2019/08/30 01:01:00	AWS2	0.00	109	M	M	M	M	M	NA	NA	985.5	NA	NA		M	NA	NA	NA	NA
2019/08/30 01:02:00	AWS2	0.00	100	M	M	M	M	M	NA	NA	985.8	NA	NA		M	NA	NA	NA	NA
2019/08/30 01:03:00	AWS2	0.00	115	M	M	M	M	M	NA	NA	985.5	NA	NA		M	NA	NA	NA	NA
2019/08/30 01:04:00	AWS2	0.00	119	M	M	M	M	M	NA	NA	985.5	NA	NA		M	NA	NA	NA	NA
2019/08/30 01:05:00	AWS2	0.00	125	M	M	M	M	M	NA	NA	985.7	NA	NA		M	NA	NA	NA	NA
2019/08/30 01:06:00	AWS2	0.00	127	M	M	M	M	M	NA	NA	985.7	NA	NA		M	NA	NA	NA	NA
2019/08/30 01:07:00	AWS2	0.00	124	M	M	M	M	M	NA	NA	985.7	NA	NA		M	NA	NA	NA	NA
2019/08/30 01:08:00	AWS2	0.00	120	M	M	M	M	M	NA	NA	985.6	NA	NA		M	NA	NA	NA	NA
2019/08/30 01:09:00	AWS2	0.00	119	M	M	M	M	M	NA	NA	985.6	NA	NA		M	NA	NA	NA	NA
2019/08/30 01:10:00	AWS2	0.00	117	M	M	M	M	M	NA	NA	985.7	NA	NA		M	NA	NA	NA	NA
2019/08/30 01:11:00	AWS2	0.00	112	M	M	M	M	M	NA	NA	985.4	NA	NA		M	NA	NA	NA	NA
2019/08/30 01:12:00	AWS2	0.00	107	M	M	M	M	M	NA	NA	986.0	NA	NA		M	NA	NA	NA	NA
2019/08/30 01:13:00	AWS2	0.00	108	M	M	M	M	M	NA	NA	985.9	NA	NA		M	NA	NA	NA	NA
2019/08/30 01:14:00	AWS2	0.00	116	M	M	M	M	M	NA	NA	986.0	NA	NA		M	NA	NA	NA	NA
2019/08/30 01:15:00	AWS2	0.00	123	M	M	M	M	M	NA	NA	985.7	NA	NA		M	NA	NA	NA	NA
2019/08/30 01:16:00	AWS2	0.00	128	M	M	M	M	M	NA	NA	986.0	NA	NA		M	NA	NA	NA	NA
2019/08/30 01:17:00	AWS2	0.00	113	M	M	M	M	M	NA	NA	986.1	NA	NA		M	NA	NA	NA	NA
2019/08/30 01:18:00	AWS2	0.00	92	M	M	M	M	M	NA	NA	985.7	NA	NA		M	NA	NA	NA	NA
2019/08/30 01:19:00	AWS2	0.00	76	M	M	M	M	M	NA	NA	985.7	NA	NA		M	NA	NA	NA	NA
2019/08/30 01:20:00	AWS2	0.00	62	M	M	M	M	M	NA	NA	986.0	NA	NA		M	NA	NA	NA	NA
2019/08/30 01:21:00	AWS2	0.00	55	M	M	M	M	M	NA	NA	985.6	NA	NA		M	NA	NA	NA	NA
2019/08/30 01:22:00	AWS2	0.00	52	M	M	M	M	M	NA	NA	985.9	NA	NA		M	NA	NA	NA	NA
2019/08/30 01:23:00	AWS2	0.00	30	M	M	M	M	M	NA	NA	986.0	NA	NA		M	NA	NA	NA	NA
2019/08/30 01:24:00	AWS2	0.00	305	M	M	M	M	M	NA	NA	985.5	NA	NA		M	NA	NA	NA	NA
2019/08/30 01:25:00	AWS2	0.00	292	M	M	M	M	M	NA	NA	985.6	NA	NA		M	NA	NA	NA	NA
2019/08/30 01:26:00	AWS2	0.00	306	M	M	M	M	M	NA	NA	985.7	NA	NA		M	NA	NA	NA	NA
2019/08/30 01:27:00	AWS2	0.00	302	M	M	M	M	M	NA	NA	985.6	NA	NA		M	NA	NA	NA	NA
2019/08/30 01:28:00	AWS2	0.00	292	M	M	M	M	M	NA	NA	985.5	NA	NA		M	NA	NA	NA	NA
2019/08/30 01:29:00	AWS2	0.00	286	M	M	M	M	M	NA	NA	985.5	NA	NA		M	NA	NA	NA	NA
2019/08/30 01:30:00	AWS2	0.00	280	M	M	M	M	M	NA	NA	985.7	NA	NA		M	NA	NA	NA	NA
2019/08/30 01:31:00	AWS2	0.00	273	M	M	M	M	M	NA	NA	985.6	NA	NA		M	NA	NA	NA	NA
2019/08/30 01:32:00	AWS2	0.00	273	M	M	M	M	M	NA	NA	985.9	NA	NA		M	NA	NA	NA	NA
2019/08/30 01:33:00	AWS2	0.00	263	M	M	M	M	M	NA	NA	985.8	NA	NA		M	NA	NA	NA	NA
2019/08/30 01:34:00	AWS2	0.00	241	M	M	M	M	M	NA	NA	985.9	NA	NA		M	NA	NA	NA	NA
2019/08/30 01:35:00	AWS2	0.00	229	M	M	M	M	M	NA	NA	985.9	NA	NA		M	NA	NA	NA	NA
2019/08/30 01:36:00	AWS2	0.00	225	M	M	M	M	M	NA	NA	985.8	NA	NA		M	NA	NA	NA	NA
2019/08/30 01:37:00	AWS2	0.00	210	M	M	M	M	M	NA	NA	986.0	NA	NA		M	NA	NA	NA	NA
2019/08/30 01:38:00	AWS2	0.00	189	M	M	M	M	M	NA	NA	985.9	NA	NA		M	NA	NA	NA	NA
2019/08/30 01:39:00	AWS2	0.00	184	M	M	M	M	M	NA	NA	985.6	NA	NA		M	NA	NA	NA	NA
2019/08/30 01:40:00	AWS2	0.00	215	M	M	M	M	M	NA	NA	985.7	NA	NA		M	NA	NA	NA	NA
2019/08/30 01:41:00	AWS2	0.00	259	M	M	M	M	M	NA	NA	985.8	NA	NA		M	NA	NA	NA	NA
2019/08/30 01:42:00	AWS2	0.00	259	M	M	M	M	M	NA	NA	986.0	NA	NA		M	NA	NA	NA	NA
2019/08/30 01:43:00	AWS2	0.00	234	M	M	M	M	M	NA	NA	986.1	NA	NA		M	NA	NA	NA	NA
2019/08/30 01:44:00	AWS2	0.00	209	M	M	M	M	M	NA	NA	986.0	NA	NA		M	NA	NA	NA	NA
2019/08/30 01:45:00	AWS2	0.00	218	M	M	M	M	M	NA	NA	986.0	NA	NA		M	NA	NA	NA	NA
2019/08/30 01:46:00	AWS2	0.00	236	M	M	M	M	M	NA	NA	985.5	NA	NA		M	NA	NA	NA	NA
2019/08/30 01:47:00	AWS2	0.00	236	M	M	M	M	M	NA	NA	985.8	NA	NA		M	NA	NA	NA	NA
2019/08/30 01:48:00	AWS2	0.00	225	M	M	M	M	M	NA	NA	985.9	NA	NA		M	NA	NA	NA	NA
2019/08/30 01:49:00	AWS2	0.00	190	M	M	M	M	M	NA	NA	985.8	NA	NA		M	NA	NA	NA	NA
2019/08/30 01:50:00	AWS2	0.00	169	M	M	M	M	M	NA	NA	985.8	NA	NA		M	NA	NA	NA	NA
2019/08/30 01:51:00	AWS2	0.00	172	M	M	M	M	M	NA	NA	985.7	NA	NA		M	NA	NA	NA	NA
2019/08/30 01:52:00	AWS2	0.00	180	M	M	M	M	M	NA	NA	985.9	NA	NA		M	NA	NA	NA	NA
2019/08/30 01:53:00	AWS2	0.00	187	M	M	M	M	M	NA	NA	985.8	NA	NA		M	NA	NA	NA	NA
2019/08/30 01:54:00	AWS2	0.00	195	M	M	M	M	M	NA	NA	986.1	NA	NA		M	NA	NA	NA	NA
2019/08/30 01:55:00	AWS2	0.00	210	M	M	M	M	M	NA	NA	986.0	NA	NA		M	NA	NA	NA	NA
2019/08/30 01:56:00	AWS2	0.00	226	M	M	M	M	M	NA	NA	985.3	NA	NA		M	NA	NA	NA	NA
2019/08/30 01:57:00	AWS2	0.00	230	M	M	M	M	M	NA	NA	986.1	NA	NA		M	NA	NA	NA	NA
2019/08/30 01:58:00	AWS2	0.00	222	M	M	M	M	M	NA	NA	986.0	NA	NA		M	NA	NA	NA	NA
2019/08/30 01:59:00	AWS2	0.00	213	M	M	M	M	M	NA	NA	985.9	NA	NA		M	NA	NA	NA	NA
2019/08/30 02:00:00	AWS2	0.00	214	M	M	M	M	M	NA	NA	986.1	NA	NA		M	NA	NA	NA	NA
2019/08/30 02:01:00	AWS2	0.00	220	M	M	M	M	M	NA	NA	985.7	NA	NA		M	NA	NA	NA	NA
2019/08/30 02:02:00	AWS2	0.00	226	M	M	M	M	M	NA	NA	985.6	NA	NA		M	NA	NA	NA	NA
2019/08/30 02:03:00	AWS2	0.00	237	M	M	M	M	M	NA	NA	986.0	NA	NA		M	NA	NA	NA	NA
2019/08/30 02:04:00	AWS2	0.00	241	M	M	M	M	M	NA	NA	986.1	NA	NA		M	NA	NA	NA	NA
2019/08/30 02:05:00	AWS2	0.00	234	M	M	M	M	M	NA	NA	986.1	NA	NA		M	NA	NA	NA	NA
2019/08/30 02:06:00	AWS2	0.00	226	M	M	M	M	M	NA	NA	985.9	NA	NA		M	NA	NA	NA	NA
2019/08/30 02:07:00	AWS2	0.00	229	M	M	M	M	M	NA	NA	986.0	NA	NA		M	NA	NA	NA	NA
2019/08/30 02:08:00	AWS2	0.00	233	M	M	M	M	M	NA	NA	986.6	NA	NA		M	NA	NA	NA	NA
2019/08/30 02:09:00	AWS2	0.00	238	M	M	M	M	M	NA	NA	986.3	NA	NA		M	NA	NA	NA	NA
2019/08/30 02:10:00	AWS2	0.00	235	M	M	M	M	M	NA	NA	985.9	NA	NA		M	NA	NA	NA	NA
2019/08/30 02:11:00	AWS2	0.00	221	M	M	M	M	M	NA	NA	985.9	NA	NA		M	NA	NA	NA	NA
2019/08/30 02:12:00	AWS2	0.00	226	M	M	M	M	M	NA	NA	986.1	NA	NA		M	NA	NA	NA	NA
2019/08/30 02:13:00	AWS2	0.00	242	M	M	M	M	M	NA	NA	985.6	NA	NA		M	NA	NA	NA	NA
2019/08/30 02:14:00	AWS2	0.00	249	M	M	M	M	M	NA	NA	986.1	NA	NA		M	NA	NA	NA	NA
2019/08/30 02:15:00	AWS2	0.00	259	M	M	M	M	M	NA	NA	986.2	NA	NA		M	NA	NA	NA	NA
2019/08/30 02:16:00	AWS2	0.00	269	M	M	M	M	M	NA	NA	986.5	NA	NA		M	NA	NA	NA	NA
2019/08/30 02:17:00	AWS2	0.00	279	M	M	M	M	M	NA	NA	986.1	NA	NA		M	NA	NA	NA	NA
2019/08/30 02:18:00	AWS2	0.00	285	M	M	M	M	M	NA	NA	986.0	NA	NA		M	NA	NA	NA	NA
2019/08/30 02:19:00	AWS2	0.00	277	M	M	M	M	M	NA	NA	985.6	NA	NA		M	NA	NA	NA	NA
2019/08/30 02:20:00	AWS2	0.00	265	M	M	M	M	M	NA	NA	986.0	NA	NA		M	NA	NA	NA	NA
2019/08/30 02:21:00	AWS2	0.00	261	M	M	M	M	M	NA	NA	986.3	NA	NA		M	NA	NA	NA	NA
2019/08/30 02:22:00	AWS2	0.00	259	M	M	M	M	M	NA	NA	986.3	NA	NA		M	NA	NA	NA	NA
2019/08/30 02:23:00	AWS2	0.00	267	M	M	M	M	M	NA	NA	986.5	NA	NA		M	NA	NA	NA	NA
2019/08/30 02:24:00	AWS2	0.00	270	M	M	M	M	M	NA	NA	986.1	NA	NA		M	NA	NA	NA	NA
2019/08/30 02:25:00	AWS2	0.00	267	M	M	M	M	M	NA	NA	986.1	NA	NA		M	NA	NA	NA	NA
2019/08/30 02:26:00	AWS2	0.00	268	M	M	M	M	M	NA	NA	986.7	NA	NA		M	NA	NA	NA	NA
2019/08/30 02:27:00	AWS2	0.00	262	M	M	M	M	M	NA	NA	986.1	NA	NA		M	NA	NA	NA	NA
2019/08/30 02:28:00	AWS2	0.00	259	M	M	M	M	M	NA	NA	986.3	NA	NA		M	NA	NA	NA	NA
2019/08/30 02:29:00	AWS2	0.00	262	M	M	M	M	M	NA	NA	986.2	NA	NA		M	NA	NA	NA	NA
2019/08/30 02:30:00	AWS2	0.00	276	M	M	M	M	M	NA	NA	986.4	NA	NA		M	NA	NA	NA	NA
2019/08/30 02:31:00	AWS2	0.00	281	M	M	M	M	M	NA	NA	986.0	NA	NA		M	NA	NA	NA	NA
2019/08/30 02:32:00	AWS2	0.00	268	M	M	M	M	M	NA	NA	986.4	NA	NA		M	NA	NA	NA	NA
2019/08/30 02:33:00	AWS2	0.00	262	M	M	M	M	M	NA	NA	986.3	NA	NA		M	NA	NA	NA	NA
2019/08/30 02:34:00	AWS2	0.00	264	M	M	M	M	M	NA	NA	986.5	NA	NA		M	NA	NA	NA	NA
2019/08/30 02:35:00	AWS2	0.00	265	M	M	M	M	M	NA	NA	986.1	NA	NA		M	NA	NA	NA	NA
2019/08/30 02:36:00	AWS2	0.00	272	M	M	M	M	M	NA	NA	986.2	NA	NA		M	NA	NA	NA	NA
2019/08/30 02:37:00	AWS2	0.00	276	M	M	M	M	M	NA	NA	986.4	NA	NA		M	NA	NA	NA	NA
2019/08/30 02:38:00	AWS2	0.00	274	M	M	M	M	M	NA	NA	986.2	NA	NA		M	NA	NA	NA	NA
2019/08/30 02:39:00	AWS2	0.00	274	M	M	M	M	M	NA	NA	986.2	NA	NA		M	NA	NA	NA	NA
2019/08/30 02:40:00	AWS2	0.00	280	M	M	M	M	M	NA	NA	986.3	NA	NA		M	NA	NA	NA	NA
2019/08/30 02:41:00	AWS2	0.00	287	M	M	M	M	M	NA	NA	986.6	NA	NA		M	NA	NA	NA	NA
2019/08/30 02:42:00	AWS2	0.00	287	M	M	M	M	M	NA	NA	986.7	NA	NA		M	NA	NA	NA	NA
2019/08/30 02:43:00	AWS2	0.00	286	M	M	M	M	M	NA	NA	986.4	NA	NA		M	NA	NA	NA	NA
2019/08/30 02:44:00	AWS2	0.00	287	M	M	M	M	M	NA	NA	986.2	NA	NA		M	NA	NA	NA	NA
2019/08/30 02:45:00	AWS2	0.00	320	M	M	M	M	M	NA	NA	986.7	NA	NA		M	NA	NA	NA	NA
2019/08/30 02:46:00	AWS2	0.00	337	M	M	M	M	M	NA	NA	986.5	NA	NA		M	NA	NA	NA	NA
2019/08/30 02:47:00	AWS2	0.00	299	M	M	M	M	M	NA	NA	986.8	NA	NA		M	NA	NA	NA	NA
2019/08/30 02:48:00	AWS2	0.00	270	M	M	M	M	M	NA	NA	986.6	NA	NA		M	NA	NA	NA	NA
2019/08/30 02:49:00	AWS2	0.00	268	M	M	M	M	M	NA	NA	986.6	NA	NA		M	NA	NA	NA	NA
2019/08/30 02:50:00	AWS2	0.00	286	M	M	M	M	M	NA	NA	986.7	NA	NA		M	NA	NA	NA	NA
2019/08/30 02:51:00	AWS2	0.00	311	M	M	M	M	M	NA	NA	986.3	NA	NA		M	NA	NA	NA	NA
2019/08/30 02:52:00	AWS2	0.00	316	M	M	M	M	M	NA	NA	986.8	NA	NA		M	NA	NA	NA	NA
2019/08/30 02:53:00	AWS2	0.00	304	M	M	M	M	M	NA	NA	986.7	NA	NA		M	NA	NA	NA	NA
2019/08/30 02:54:00	AWS2	0.00	316	M	M	M	M	M	NA	NA	986.7	NA	NA		M	NA	NA	NA	NA
2019/08/30 02:55:00	AWS2	0.00	340	M	M	M	M	M	NA	NA	986.6	NA	NA		M	NA	NA	NA	NA
2019/08/30 02:56:00	AWS2	0.00	332	M	M	M	M	M	NA	NA	986.5	NA	NA		M	NA	NA	NA	NA
2019/08/30 02:57:00	AWS2	0.00	290	M	M	M	M	M	NA	NA	986.7	NA	NA		M	NA	NA	NA	NA
2019/08/30 02:58:00	AWS2	0.00	260	M	M	M	M	M	NA	NA	986.6	NA	NA		M	NA	NA	NA	NA
2019/08/30 02:59:00	AWS2	0.00	259	M	M	M	M	M	NA	NA	986.7	NA	NA		M	NA	NA	NA	NA
2019/08/30 03:00:00	AWS2	0.00	256	M	M	M	M	M	NA	NA	986.8	NA	NA		M	NA	NA	NA	NA
2019/08/30 03:01:00	AWS2	0.00	254	M	M	M	M	M	NA	NA	986.6	NA	NA		M	NA	NA	NA	NA
2019/08/30 03:02:00	AWS2	0.00	268	M	M	M	M	M	NA	NA	986.8	NA	NA		M	NA	NA	NA	NA
2019/08/30 03:03:00	AWS2	0.00	281	M	M	M	M	M	NA	NA	986.6	NA	NA		M	NA	NA	NA	NA
2019/08/30 03:04:00	AWS2	0.00	289	M	M	M	M	M	NA	NA	986.5	NA	NA		M	NA	NA	NA	NA
2019/08/30 03:05:00	AWS2	0.00	297	M	M	M	M	M	NA	NA	986.5	NA	NA		M	NA	NA	NA	NA
2019/08/30 03:06:00	AWS2	0.00	289	M	M	M	M	M	NA	NA	986.3	NA	NA		M	NA	NA	NA	NA
2019/08/30 03:07:00	AWS2	0.00	268	M	M	M	M	M	NA	NA	986.7	NA	NA		M	NA	NA	NA	NA
2019/08/30 03:08:00	AWS2	0.00	259	M	M	M	M	M	NA	NA	986.7	NA	NA		M	NA	NA	NA	NA
2019/08/30 03:09:00	AWS2	0.00	261	M	M	M	M	M	NA	NA	986.6	NA	NA		M	NA	NA	NA	NA
2019/08/30 03:10:00	AWS2	0.00	262	M	M	M	M	M	NA	NA	986.5	NA	NA		M	NA	NA	NA	NA
2019/08/30 03:11:00	AWS2	0.00	252	M	M	M	M	M	NA	NA	986.3	NA	NA		M	NA	NA	NA	NA
2019/08/30 03:12:00	AWS2	0.00	264	M	M	M	M	M	NA	NA	986.6	NA	NA		M	NA	NA	NA	NA
2019/08/30 03:13:00	AWS2	0.00	265	M	M	M	M	M	NA	NA	987.0	NA	NA		M	NA	NA	NA	NA
2019/08/30 03:14:00	AWS2	0.00	243	M	M	M	M	M	NA	NA	986.5	NA	NA		M	NA	NA	NA	NA
2019/08/30 03:15:00	AWS2	0.00	239	M	M	M	M	M	NA	NA	986.8	NA	NA		M	NA	NA	NA	NA
2019/08/30 03:16:00	AWS2	0.00	244	M	M	M	M	M	NA	NA	986.5	NA	NA		M	NA	NA	NA	NA
2019/08/30 03:17:00	AWS2	0.00	250	M	M	M	M	M	NA	NA	986.4	NA	NA		M	NA	NA	NA	NA
2019/08/30 03:18:00	AWS2	0.00	252	M	M	M	M	M	NA	NA	986.8	NA	NA		M	NA	NA	NA	NA
2019/08/30 03:19:00	AWS2	0.00	254	M	M	M	M	M	NA	NA	986.4	NA	NA		M	NA	NA	NA	NA
2019/08/30 03:20:00	AWS2	0.00	260	M	M	M	M	M	NA	NA	986.3	NA	NA		M	NA	NA	NA	NA
2019/08/30 03:21:00	AWS2	0.00	268	M	M	M	M	M	NA	NA	986.2	NA	NA		M	NA	NA	NA	NA
2019/08/30 03:22:00	AWS2	0.00	266	M	M	M	M	M	NA	NA	986.6	NA	NA		M	NA	NA	NA	NA
2019/08/30 03:23:00	AWS2	0.00	259	M	M	M	M	M	NA	NA	986.3	NA	NA		M	NA	NA	NA	NA
2019/08/30 03:24:00	AWS2	0.00	255	M	M	M	M	M	NA	NA	986.2	NA	NA		M	NA	NA	NA	NA
2019/08/30 03:25:00	AWS2	0.00	230	M	M	M	M	M	NA	NA	986.7	NA	NA		M	NA	NA	NA	NA
2019/08/30 03:26:00	AWS2	0.00	140	M	M	M	M	M	NA	NA	986.3	NA	NA		M	NA	NA	NA	NA
2019/08/30 03:27:00	AWS2	0.00	109	M	M	M	M	M	NA	NA	986.7	NA	NA		M	NA	NA	NA	NA
2019/08/30 03:28:00	AWS2	0.00	107	M	M	M	M	M	NA	NA	986.4	NA	NA		M	NA	NA	NA	NA
2019/08/30 03:29:00	AWS2	0.00	101	M	M	M	M	M	NA	NA	986.5	NA	NA		M	NA	NA	NA	NA
2019/08/30 03:30:00	AWS2	0.00	90	M	M	M	M	M	NA	NA	986.8	NA	NA		M	NA	NA	NA	NA
2019/08/30 03:31:00	AWS2	0.00	84	M	M	M	M	M	NA	NA	986.3	NA	NA		M	NA	NA	NA	NA
2019/08/30 03:32:00	AWS2	0.00	88	M	M	M	M	M	NA	NA	986.3	NA	NA		M	NA	NA	NA	NA
2019/08/30 03:33:00	AWS2	0.00	108	M	M	M	M	M	NA	NA	986.2	NA	NA		M	NA	NA	NA	NA
2019/08/30 03:34:00	AWS2	0.00	104	M	M	M	M	M	NA	NA	986.4	NA	NA		M	NA	NA	NA	NA
2019/08/30 03:35:00	AWS2	0.00	71	M	M	M	M	M	NA	NA	986.2	NA	NA		M	NA	NA	NA	NA
2019/08/30 03:36:00	AWS2	0.00	48	M	M	M	M	M	NA	NA	986.2	NA	NA		M	NA	NA	NA	NA
2019/08/30 03:37:00	AWS2	0.00	43	M	M	M	M	M	NA	NA	985.9	NA	NA		M	NA	NA	NA	NA
2019/08/30 03:38:00	AWS2	0.00	52	M	M	M	M	M	NA	NA	986.0	NA	NA		M	NA	NA	NA	NA
2019/08/30 03:39:00	AWS2	0.00	72	M	M	M	M	M	NA	NA	986.5	NA	NA		M	NA	NA	NA	NA
2019/08/30 03:40:00	AWS2	0.00	84	M	M	M	M	M	NA	NA	986.2	NA	NA		M	NA	NA	NA	NA
2019/08/30 03:41:00	AWS2	0.00	84	M	M	M	M	M	NA	NA	986.5	NA	NA		M	NA	NA	NA	NA
2019/08/30 03:42:00	AWS2	0.00	72	M	M	M	M	M	NA	NA	986.0	NA	NA		M	NA	NA	NA	NA
2019/08/30 03:43:00	AWS2	0.00	57	M	M	M	M	M	NA	NA	986.1	NA	NA		M	NA	NA	NA	NA
2019/08/30 03:44:00	AWS2	0.00	55	M	M	M	M	M	NA	NA	985.9	NA	NA		M	NA	NA	NA	NA
2019/08/30 03:45:00	AWS2	0.00	68	M	M	M	M	M	NA	NA	986.2	NA	NA		M	NA	NA	NA	NA
2019/08/30 03:46:00	AWS2	0.00	87	M	M	M	M	M	NA	NA	986.7	NA	NA		M	NA	NA	NA	NA
2019/08/30 03:47:00	AWS2	0.00	99	M	M	M	M	M	NA	NA	985.9	NA	NA		M	NA	NA	NA	NA
2019/08/30 03:48:00	AWS2	0.00	107	M	M	M	M	M	NA	NA	986.6	NA	NA		M	NA	NA	NA	NA
2019/08/30 03:49:00	AWS2	0.00	115	M	M	M	M	M	NA	NA	986.5	NA	NA		M	NA	NA	NA	NA
2019/08/30 03:50:00	AWS2	0.00	118	M	M	M	M	M	NA	NA	986.7	NA	NA		M	NA	NA	NA	NA
2019/08/30 03:51:00	AWS2	0.00	125	M	M	M	M	M	NA	NA	986.1	NA	NA		M	NA	NA	NA	NA
2019/08/30 03:52:00	AWS2	0.00	167	M	M	M	M	M	NA	NA	986.7	NA	NA		M	NA	NA	NA	NA
2019/08/30 03:53:00	AWS2	0.00	204	M	M	M	M	M	NA	NA	986.9	NA	NA		M	NA	NA	NA	NA
2019/08/30 03:54:00	AWS2	0.00	187	M	M	M	M	M	NA	NA	986.5	NA	NA		M	NA	NA	NA	NA
2019/08/30 03:55:00	AWS2	0.00	161	M	M	M	M	M	NA	NA	986.0	NA	NA		M	NA	NA	NA	NA
2019/08/30 03:56:00	AWS2	0.00	148	M	M	M	M	M	NA	NA	986.9	NA	NA		M	NA	NA	NA	NA
2019/08/30 03:57:00	AWS2	0.00	131	M	M	M	M	M	NA	NA	986.5	NA	NA		M	NA	NA	NA	NA
2019/08/30 03:58:00	AWS2	0.00	119	M	M	M	M	M	NA	NA	986.0	NA	NA		M	NA	NA	NA	NA
2019/08/30 03:59:00	AWS2	0.00	115	M	M	M	M	M	NA	NA	986.3	NA	NA		M	NA	NA	NA	NA
2019/08/30 04:00:00	AWS2	0.00	101	M	M	M	M	M	NA	NA	986.7	NA	NA		M	NA	NA	NA	NA
2019/08/30 04:03:00	AWS2	0.00	91	M	M	M	M	M	NA	NA	986.3	NA	NA		M	NA	NA	NA	NA
2019/08/30 04:04:00	AWS2	0.00	104	M	M	M	M	M	NA	NA	986.8	NA	NA		M	NA	NA	NA	NA
2019/08/30 04:05:00	AWS2	0.00	99	M	M	M	M	M	NA	NA	986.4	NA	NA		M	NA	NA	NA	NA
2019/08/30 04:06:00	AWS2	0.00	93	M	M	M	M	M	NA	NA	986.2	NA	NA		M	NA	NA	NA	NA
2019/08/30 04:07:00	AWS2	0.00	92	M	M	M	M	M	NA	NA	986.2	NA	NA		M	NA	NA	NA	NA
2019/08/30 04:08:00	AWS2	0.00	93	M	M	M	M	M	NA	NA	986.4	NA	NA		M	NA	NA	NA	NA
2019/08/30 04:09:00	AWS2	0.00	90	M	M	M	M	M	NA	NA	986.1	NA	NA		M	NA	NA	NA	NA
2019/08/30 04:10:00	AWS2	0.00	83	M	M	M	M	M	NA	NA	987.2	NA	NA		M	NA	NA	NA	NA
2019/08/30 04:11:00	AWS2	0.00	72	M	M	M	M	M	NA	NA	986.5	NA	NA		M	NA	NA	NA	NA
2019/08/30 04:12:00	AWS2	0.00	66	M	M	M	M	M	NA	NA	986.3	NA	NA		M	NA	NA	NA	NA
2019/08/30 04:13:00	AWS2	0.00	77	M	M	M	M	M	NA	NA	986.6	NA	NA		M	NA	NA	NA	NA
2019/08/30 04:14:00	AWS2	0.00	79	M	M	M	M	M	NA	NA	986.6	NA	NA		M	NA	NA	NA	NA
2019/08/30 04:15:00	AWS2	0.00	67	M	M	M	M	M	NA	NA	986.6	NA	NA		M	NA	NA	NA	NA
2019/08/30 04:16:00	AWS2	0.00	63	M	M	M	M	M	NA	NA	985.9	NA	NA		M	NA	NA	NA	NA
2019/08/30 04:17:00	AWS2	0.00	61	M	M	M	M	M	NA	NA	986.8	NA	NA		M	NA	NA	NA	NA
2019/08/30 04:18:00	AWS2	0.00	59	M	M	M	M	M	NA	NA	986.2	NA	NA		M	NA	NA	NA	NA
2019/08/30 04:19:00	AWS2	0.00	67	M	M	M	M	M	NA	NA	985.9	NA	NA		M	NA	NA	NA	NA
2019/08/30 04:20:00	AWS2	0.00	78	M	M	M	M	M	NA	NA	986.0	NA	NA		M	NA	NA	NA	NA
2019/08/30 04:21:00	AWS2	0.00	86	M	M	M	M	M	NA	NA	986.4	NA	NA		M	NA	NA	NA	NA
2019/08/30 04:22:00	AWS2	0.00	83	M	M	M	M	M	NA	NA	986.7	NA	NA		M	NA	NA	NA	NA
2019/08/30 04:23:00	AWS2	0.00	76	M	M	M	M	M	NA	NA	986.7	NA	NA		M	NA	NA	NA	NA
2019/08/30 04:24:00	AWS2	0.00	74	M	M	M	M	M	NA	NA	986.6	NA	NA		M	NA	NA	NA	NA
2019/08/30 04:25:00	AWS2	0.00	79	M	M	M	M	M	NA	NA	986.8	NA	NA		M	NA	NA	NA	NA
2019/08/30 04:26:00	AWS2	0.00	84	M	M	M	M	M	NA	NA	986.4	NA	NA		M	NA	NA	NA	NA
2019/08/30 04:27:00	AWS2	0.00	74	M	M	M	M	M	NA	NA	986.5	NA	NA		M	NA	NA	NA	NA
2019/08/30 04:28:00	AWS2	0.00	65	M	M	M	M	M	NA	NA	986.0	NA	NA		M	NA	NA	NA	NA
2019/08/30 04:29:00	AWS2	0.00	66	M	M	M	M	M	NA	NA	986.4	NA	NA		M	NA	NA	NA	NA
2019/08/30 04:30:00	AWS2	0.00	62	M	M	M	M	M	NA	NA	986.2	NA	NA		M	NA	NA	NA	NA
2019/08/30 04:31:00	AWS2	0.00	52	M	M	M	M	M	NA	NA	986.5	NA	NA		M	NA	NA	NA	NA
2019/08/30 04:32:00	AWS2	0.00	48	M	M	M	M	M	NA	NA	986.8	NA	NA		M	NA	NA	NA	NA
2019/08/30 04:33:00	AWS2	0.00	48	M	M	M	M	M	NA	NA	986.2	NA	NA		M	NA	NA	NA	NA
2019/08/30 04:34:00	AWS2	0.00	46	M	M	M	M	M	NA	NA	986.8	NA	NA		M	NA	NA	NA	NA
2019/08/30 04:35:00	AWS2	0.00	50	M	M	M	M	M	NA	NA	986.8	NA	NA		M	NA	NA	NA	NA
2019/08/30 04:36:00	AWS2	0.00	54	M	M	M	M	M	NA	NA	986.8	NA	NA		M	NA	NA	NA	NA
2019/08/30 04:37:00	AWS2	0.00	50	M	M	M	M	M	NA	NA	986.7	NA	NA		M	NA	NA	NA	NA
2019/08/30 04:38:00	AWS2	0.00	51	M	M	M	M	M	NA	NA	986.6	NA	NA		M	NA	NA	NA	NA
2019/08/30 04:39:01	AWS2	0.00	53	M	M	M	M	M	NA	NA	987.1	NA	NA		M	NA	NA	NA	NA
2019/08/30 04:40:00	AWS2	0.00	58	M	M	M	M	M	NA	NA	986.5	NA	NA		M	NA	NA	NA	NA
2019/08/30 04:41:00	AWS2	0.00	67	M	M	M	M	M	NA	NA	986.8	NA	NA		M	NA	NA	NA	NA
2019/08/30 04:42:00	AWS2	0.00	68	M	M	M	M	M	NA	NA	987.0	NA	NA		M	NA	NA	NA	NA
2019/08/30 04:43:00	AWS2	0.00	69	M	M	M	M	M	NA	NA	987.1	NA	NA		M	NA	NA	NA	NA
2019/08/30 04:44:00	AWS2	0.00	73	M	M	M	M	M	NA	NA	986.8	NA	NA		M	NA	NA	NA	NA
2019/08/30 04:45:00	AWS2	0.00	73	M	M	M	M	M	NA	NA	986.6	NA	NA		M	NA	NA	NA	NA
2019/08/30 04:46:00	AWS2	0.00	72	M	M	M	M	M	NA	NA	986.8	NA	NA		M	NA	NA	NA	NA
2019/08/30 04:47:00	AWS2	0.00	69	M	M	M	M	M	NA	NA	986.8	NA	NA		M	NA	NA	NA	NA
2019/08/30 04:48:00	AWS2	0.00	59	M	M	M	M	M	NA	NA	986.7	NA	NA		M	NA	NA	NA	NA
2019/08/30 04:49:00	AWS2	0.00	53	M	M	M	M	M	NA	NA	986.7	NA	NA		M	NA	NA	NA	NA
2019/08/30 04:50:00	AWS2	0.00	40	M	M	M	M	M	NA	NA	986.6	NA	NA		M	NA	NA	NA	NA
2019/08/30 04:51:00	AWS2	0.00	38	M	M	M	M	M	NA	NA	986.7	NA	NA		M	NA	NA	NA	NA
2019/08/30 04:52:00	AWS2	0.00	51	M	M	M	M	M	NA	NA	986.7	NA	NA		M	NA	NA	NA	NA
2019/08/30 04:53:01	AWS2	0.00	50	M	M	M	M	M	NA	NA	986.9	NA	NA		M	NA	NA	NA	NA
2019/08/30 04:54:00	AWS2	0.00	53	M	M	M	M	M	NA	NA	987.0	NA	NA		M	NA	NA	NA	NA
2019/08/30 04:55:00	AWS2	0.00	66	M	M	M	M	M	NA	NA	986.7	NA	NA		M	NA	NA	NA	NA
2019/08/30 04:56:00	AWS2	0.00	65	M	M	M	M	M	NA	NA	987.1	NA	NA		M	NA	NA	NA	NA
2019/08/30 04:57:00	AWS2	0.00	44	M	M	M	M	M	NA	NA	986.9	NA	NA		M	NA	NA	NA	NA
2019/08/30 04:58:00	AWS2	0.00	26	M	M	M	M	M	NA	NA	986.8	NA	NA		M	NA	NA	NA	NA
2019/08/30 04:59:00	AWS2	0.00	23	M	M	M	M	M	NA	NA	987.1	NA	NA		M	NA	NA	NA	NA
2019/08/30 05:00:00	AWS2	0.00	27	M	M	M	M	M	NA	NA	987.0	NA	NA		M	NA	NA	NA	NA
2019/08/30 05:01:00	AWS2	0.00	34	M	M	M	M	M	NA	NA	986.8	NA	NA		M	NA	NA	NA	NA
2019/08/30 05:02:00	AWS2	0.00	38	M	M	M	M	M	NA	NA	986.5	NA	NA		M	NA	NA	NA	NA
2019/08/30 05:03:01	AWS2	0.00	39	M	M	M	M	M	NA	NA	987.1	NA	NA		M	NA	NA	NA	NA
2019/08/30 05:04:01	AWS2	0.00	53	M	M	M	M	M	NA	NA	986.8	NA	NA		M	NA	NA	NA	NA
2019/08/30 05:05:01	AWS2	0.00	68	M	M	M	M	M	NA	NA	987.3	NA	NA		M	NA	NA	NA	NA
2019/08/30 05:06:01	AWS2	0.00	69	M	M	M	M	M	NA	NA	986.5	NA	NA		M	NA	NA	NA	NA
2019/08/30 05:07:01	AWS2	0.00	58	M	M	M	M	M	NA	NA	986.6	NA	NA		M	NA	NA	NA	NA
2019/08/30 05:08:01	AWS2	0.00	32	M	M	M	M	M	NA	NA	986.7	NA	NA		M	NA	NA	NA	NA
2019/08/30 05:09:00	AWS2	0.00	5	M	M	M	M	M	NA	NA	986.7	NA	NA		M	NA	NA	NA	NA
2019/08/30 05:10:00	AWS2	0.00	344	M	M	M	M	M	NA	NA	986.7	NA	NA		M	NA	NA	NA	NA
2019/08/30 05:11:00	AWS2	0.00	338	M	M	M	M	M	NA	NA	986.8	NA	NA		M	NA	NA	NA	NA
2019/08/30 05:12:00	AWS2	0.00	342	M	M	M	M	M	NA	NA	986.7	NA	NA		M	NA	NA	NA	NA
2019/08/30 05:13:00	AWS2	0.00	347	M	M	M	M	M	NA	NA	987.0	NA	NA		M	NA	NA	NA	NA
2019/08/30 05:14:00	AWS2	0.00	353	M	M	M	M	M	NA	NA	986.6	NA	NA		M	NA	NA	NA	NA
2019/08/30 05:15:00	AWS2	0.00	1	M	M	M	M	M	NA	NA	986.8	NA	NA		M	NA	NA	NA	NA
2019/08/30 05:16:00	AWS2	0.00	16	M	M	M	M	M	NA	NA	987.3	NA	NA		M	NA	NA	NA	NA
2019/08/30 05:17:00	AWS2	0.00	9	M	M	M	M	M	NA	NA	986.8	NA	NA		M	NA	NA	NA	NA
2019/08/30 05:18:00	AWS2	0.00	352	M	M	M	M	M	NA	NA	986.7	NA	NA		M	NA	NA	NA	NA
2019/08/30 05:19:00	AWS2	0.00	354	M	M	M	M	M	NA	NA	986.6	NA	NA		M	NA	NA	NA	NA
2019/08/30 05:20:00	AWS2	0.00	359	M	M	M	M	M	NA	NA	987.1	NA	NA		M	NA	NA	NA	NA
2019/08/30 05:21:00	AWS2	0.00	1	M	M	M	M	M	NA	NA	986.7	NA	NA		M	NA	NA	NA	NA
2019/08/30 05:22:00	AWS2	0.00	4	M	M	M	M	M	NA	NA	986.9	NA	NA		M	NA	NA	NA	NA
2019/08/30 05:23:00	AWS2	0.00	12	M	M	M	M	M	NA	NA	986.9	NA	NA		M	NA	NA	NA	NA
2019/08/30 05:24:00	AWS2	0.00	25	M	M	M	M	M	NA	NA	987.2	NA	NA		M	NA	NA	NA	NA
2019/08/30 05:25:00	AWS2	0.00	32	M	M	M	M	M	NA	NA	987.1	NA	NA		M	NA	NA	NA	NA
2019/08/30 05:26:00	AWS2	0.00	29	M	M	M	M	M	NA	NA	986.7	NA	NA		M	NA	NA	NA	NA
2019/08/30 05:27:00	AWS2	0.00	34	M	M	M	M	M	NA	NA	987.1	NA	NA		M	NA	NA	NA	NA
2019/08/30 05:28:00	AWS2	0.00	39	M	M	M	M	M	NA	NA	987.3	NA	NA		M	NA	NA	NA	NA
2019/08/30 05:29:00	AWS2	0.00	37	M	M	M	M	M	NA	NA	987.0	NA	NA		M	NA	NA	NA	NA
2019/08/30 05:30:00	AWS2	0.00	27	M	M	M	M	M	NA	NA	987.1	NA	NA		M	NA	NA	NA	NA
2019/08/30 05:31:00	AWS2	0.00	22	M	M	M	M	M	NA	NA	986.9	NA	NA		M	NA	NA	NA	NA
2019/08/30 05:32:00	AWS2	0.00	26	M	M	M	M	M	NA	NA	987.2	NA	NA		M	NA	NA	NA	NA
2019/08/30 05:33:00	AWS2	0.00	30	M	M	M	M	M	NA	NA	986.6	NA	NA		M	NA	NA	NA	NA
2019/08/30 05:34:00	AWS2	0.00	34	M	M	M	M	M	NA	NA	987.4	NA	NA		M	NA	NA	NA	NA
2019/08/30 05:35:00	AWS2	0.00	40	M	M	M	M	M	NA	NA	987.2	NA	NA		M	NA	NA	NA	NA
2019/08/30 05:36:00	AWS2	0.00	38	M	M	M	M	M	NA	NA	986.8	NA	NA		M	NA	NA	NA	NA
2019/08/30 05:37:00	AWS2	0.00	30	M	M	M	M	M	NA	NA	986.9	NA	NA		M	NA	NA	NA	NA
2019/08/30 05:38:00	AWS2	0.00	31	M	M	M	M	M	NA	NA	987.1	NA	NA		M	NA	NA	NA	NA
2019/08/30 05:39:00	AWS2	0.00	26	M	M	M	M	M	NA	NA	986.9	NA	NA		M	NA	NA	NA	NA
2019/08/30 05:40:00	AWS2	0.00	19	M	M	M	M	M	NA	NA	986.9	NA	NA		M	NA	NA	NA	NA
2019/08/30 05:41:00	AWS2	0.00	12	M	M	M	M	M	NA	NA	986.6	NA	NA		M	NA	NA	NA	NA
2019/08/30 05:42:00	AWS2	0.00	10	M	M	M	M	M	NA	NA	986.7	NA	NA		M	NA	NA	NA	NA
2019/08/30 05:43:00	AWS2	0.00	17	M	M	M	M	M	NA	NA	986.7	NA	NA		M	NA	NA	NA	NA
2019/08/30 05:44:00	AWS2	0.00	22	M	M	M	M	M	NA	NA	987.1	NA	NA		M	NA	NA	NA	NA
2019/08/30 05:45:00	AWS2	0.00	31	M	M	M	M	M	NA	NA	986.0	NA	NA		M	NA	NA	NA	NA
2019/08/30 05:46:00	AWS2	0.00	43	M	M	M	M	M	NA	NA	986.8	NA	NA		M	NA	NA	NA	NA
2019/08/30 05:47:00	AWS2	0.00	49	M	M	M	M	M	NA	NA	986.8	NA	NA		M	NA	NA	NA	NA
2019/08/30 05:48:00	AWS2	0.00	51	M	M	M	M	M	NA	NA	986.8	NA	NA		M	NA	NA	NA	NA
2019/08/30 05:49:00	AWS2	0.00	40	M	M	M	M	M	NA	NA	987.1	NA	NA		M	NA	NA	NA	NA
2019/08/30 05:50:00	AWS2	0.00	25	M	M	M	M	M	NA	NA	986.6	NA	NA		M	NA	NA	NA	NA
2019/08/30 05:51:00	AWS2	0.00	22	M	M	M	M	M	NA	NA	986.7	NA	NA		M	NA	NA	NA	NA
2019/08/30 05:52:00	AWS2	0.00	28	M	M	M	M	M	NA	NA	986.9	NA	NA		M	NA	NA	NA	NA
2019/08/30 05:53:00	AWS2	0.00	39	M	M	M	M	M	NA	NA	986.8	NA	NA		M	NA	NA	NA	NA
2019/08/30 05:54:00	AWS2	0.00	45	M	M	M	M	M	NA	NA	986.5	NA	NA		M	NA	NA	NA	NA
2019/08/30 05:55:00	AWS2	0.00	39	M	M	M	M	M	NA	NA	987.3	NA	NA		M	NA	NA	NA	NA
2019/08/30 05:56:00	AWS2	0.00	29	M	M	M	M	M	NA	NA	986.6	NA	NA		M	NA	NA	NA	NA
2019/08/30 05:57:00	AWS2	0.00	25	M	M	M	M	M	NA	NA	987.0	NA	NA		M	NA	NA	NA	NA
2019/08/30 05:58:00	AWS2	0.00	23	M	M	M	M	M	NA	NA	986.7	NA	NA		M	NA	NA	NA	NA
2019/08/30 05:59:00	AWS2	0.00	24	M	M	M	M	M	NA	NA	987.0	NA	NA		M	NA	NA	NA	NA
2019/08/30 06:00:00	AWS2	0.00	30	M	M	M	M	M	NA	NA	987.5	NA	NA		M	NA	NA	NA	NA
2019/08/30 06:01:00	AWS2	0.00	25	M	M	M	M	M	NA	NA	986.9	NA	NA		M	NA	NA	NA	NA
2019/08/30 06:02:00	AWS2	0.00	22	M	M	M	M	M	NA	NA	987.1	NA	NA		M	NA	NA	NA	NA
2019/08/30 06:03:00	AWS2	0.00	26	M	M	M	M	M	NA	NA	987.2	NA	NA		M	NA	NA	NA	NA
2019/08/30 06:04:00	AWS2	0.00	22	M	M	M	M	M	NA	NA	987.0	NA	NA		M	NA	NA	NA	NA
2019/08/30 06:05:00	AWS2	0.00	30	M	M	M	M	M	NA	NA	987.3	NA	NA		M	NA	NA	NA	NA
2019/08/30 06:06:00	AWS2	0.00	47	M	M	M	M	M	NA	NA	986.7	NA	NA		M	NA	NA	NA	NA
2019/08/30 06:07:00	AWS2	0.00	43	M	M	M	M	M	NA	NA	987.0	NA	NA		M	NA	NA	NA	NA
2019/08/30 06:08:00	AWS2	0.00	29	M	M	M	M	M	NA	NA	986.4	NA	NA		M	NA	NA	NA	NA
2019/08/30 06:09:00	AWS2	0.00	28	M	M	M	M	M	NA	NA	987.2	NA	NA		M	NA	NA	NA	NA
2019/08/30 06:10:00	AWS2	0.00	25	M	M	M	M	M	NA	NA	987.4	NA	NA		M	NA	NA	NA	NA
2019/08/30 06:11:00	AWS2	0.00	13	M	M	M	M	M	NA	NA	986.6	NA	NA		M	NA	NA	NA	NA
2019/08/30 06:12:00	AWS2	0.00	4	M	M	M	M	M	NA	NA	987.1	NA	NA		M	NA	NA	NA	NA
2019/08/30 06:13:00	AWS2	0.00	7	M	M	M	M	M	NA	NA	987.2	NA	NA		M	NA	NA	NA	NA
2019/08/30 06:14:00	AWS2	0.00	18	M	M	M	M	M	NA	NA	986.8	NA	NA		M	NA	NA	NA	NA
2019/08/30 06:15:00	AWS2	0.00	26	M	M	M	M	M	NA	NA	986.9	NA	NA		M	NA	NA	NA	NA
2019/08/30 06:16:00	AWS2	0.00	29	M	M	M	M	M	NA	NA	986.6	NA	NA		M	NA	NA	NA	NA
2019/08/30 06:17:00	AWS2	0.00	28	M	M	M	M	M	NA	NA	986.8	NA	NA		M	NA	NA	NA	NA
2019/08/30 06:18:00	AWS2	0.00	23	M	M	M	M	M	NA	NA	986.1	NA	NA		M	NA	NA	NA	NA
2019/08/30 06:19:00	AWS2	0.00	15	M	M	M	M	M	NA	NA	987.2	NA	NA		M	NA	NA	NA	NA
2019/08/30 06:20:00	AWS2	0.00	7	M	M	M	M	M	NA	NA	986.9	NA	NA		M	NA	NA	NA	NA
2019/08/30 06:21:00	AWS2	0.00	346	M	M	M	M	M	NA	NA	987.1	NA	NA		M	NA	NA	NA	NA
2019/08/30 06:22:00	AWS2	0.00	338	M	M	M	M	M	NA	NA	986.9	NA	NA		M	NA	NA	NA	NA
2019/08/30 06:23:00	AWS2	0.00	339	M	M	M	M	M	NA	NA	986.8	NA	NA		M	NA	NA	NA	NA
2019/08/30 06:24:00	AWS2	0.00	329	M	M	M	M	M	NA	NA	986.5	NA	NA		M	NA	NA	NA	NA
2019/08/30 06:25:00	AWS2	0.00	326	M	M	M	M	M	NA	NA	987.1	NA	NA		M	NA	NA	NA	NA
2019/08/30 06:26:00	AWS2	0.00	329	M	M	M	M	M	NA	NA	986.9	NA	NA		M	NA	NA	NA	NA
2019/08/30 06:27:00	AWS2	0.00	305	M	M	M	M	M	NA	NA	987.4	NA	NA		M	NA	NA	NA	NA
2019/08/30 06:28:00	AWS2	0.00	267	M	M	M	M	M	NA	NA	987.0	NA	NA		M	NA	NA	NA	NA
2019/08/30 06:29:00	AWS2	0.00	265	M	M	M	M	M	NA	NA	987.6	NA	NA		M	NA	NA	NA	NA
2019/08/30 06:30:00	AWS2	0.00	289	M	M	M	M	M	NA	NA	986.8	NA	NA		M	NA	NA	NA	NA
2019/08/30 06:31:00	AWS2	0.00	315	M	M	M	M	M	NA	NA	987.5	NA	NA		M	NA	NA	NA	NA
2019/08/30 06:32:00	AWS2	0.00	321	M	M	M	M	M	NA	NA	987.0	NA	NA		M	NA	NA	NA	NA
2019/08/30 06:33:00	AWS2	0.00	321	M	M	M	M	M	NA	NA	987.1	NA	NA		M	NA	NA	NA	NA
2019/08/30 06:34:00	AWS2	0.00	324	M	M	M	M	M	NA	NA	986.9	NA	NA		M	NA	NA	NA	NA
2019/08/30 06:35:00	AWS2	0.00	322	M	M	M	M	M	NA	NA	986.8	NA	NA		M	NA	NA	NA	NA
2019/08/30 06:36:00	AWS2	0.00	342	M	M	M	M	M	NA	NA	987.2	NA	NA		M	NA	NA	NA	NA
2019/08/30 06:37:00	AWS2	0.00	349	M	M	M	M	M	NA	NA	987.4	NA	NA		M	NA	NA	NA	NA
2019/08/30 06:38:00	AWS2	0.00	341	M	M	M	M	M	NA	NA	986.6	NA	NA		M	NA	NA	NA	NA
2019/08/30 06:39:00	AWS2	0.00	342	M	M	M	M	M	NA	NA	986.7	NA	NA		M	NA	NA	NA	NA
2019/08/30 06:40:00	AWS2	0.00	343	M	M	M	M	M	NA	NA	986.6	NA	NA		M	NA	NA	NA	NA
2019/08/30 06:41:00	AWS2	0.00	342	M	M	M	M	M	NA	NA	987.3	NA	NA		M	NA	NA	NA	NA
2019/08/30 06:42:00	AWS2	0.00	339	M	M	M	M	M	NA	NA	986.9	NA	NA		M	NA	NA	NA	NA
2019/08/30 06:43:00	AWS2	0.00	334	M	M	M	M	M	NA	NA	986.5	NA	NA		M	NA	NA	NA	NA
2019/08/30 06:44:00	AWS2	0.00	332	M	M	M	M	M	NA	NA	986.6	NA	NA		M	NA	NA	NA	NA
2019/08/30 06:45:00	AWS2	0.00	335	M	M	M	M	M	NA	NA	987.4	NA	NA		M	NA	NA	NA	NA
2019/08/30 06:46:00	AWS2	0.00	336	M	M	M	M	M	NA	NA	987.1	NA	NA		M	NA	NA	NA	NA
2019/08/30 06:47:00	AWS2	0.00	343	M	M	M	M	M	NA	NA	987.1	NA	NA		M	NA	NA	NA	NA
2019/08/30 06:48:00	AWS2	0.00	354	M	M	M	M	M	NA	NA	986.8	NA	NA		M	NA	NA	NA	NA
2019/08/30 06:49:00	AWS2	0.00	349	M	M	M	M	M	NA	NA	987.2	NA	NA		M	NA	NA	NA	NA
2019/08/30 06:50:00	AWS2	0.00	341	M	M	M	M	M	NA	NA	987.0	NA	NA		M	NA	NA	NA	NA
2019/08/30 06:51:00	AWS2	0.00	332	M	M	M	M	M	NA	NA	987.1	NA	NA		M	NA	NA	NA	NA
2019/08/30 06:52:00	AWS2	0.00	340	M	M	M	M	M	NA	NA	986.6	NA	NA		M	NA	NA	NA	NA
2019/08/30 06:53:00	AWS2	0.00	356	M	M	M	M	M	NA	NA	986.3	NA	NA		M	NA	NA	NA	NA
2019/08/30 06:54:00	AWS2	0.00	350	M	M	M	M	M	NA	NA	986.6	NA	NA		M	NA	NA	NA	NA
2019/08/30 06:55:00	AWS2	0.00	352	M	M	M	M	M	NA	NA	986.7	NA	NA		M	NA	NA	NA	NA
2019/08/30 06:56:00	AWS2	0.00	357	M	M	M	M	M	NA	NA	986.6	NA	NA		M	NA	NA	NA	NA
2019/08/30 06:57:00	AWS2	0.00	353	M	M	M	M	M	NA	NA	986.9	NA	NA		M	NA	NA	NA	NA
2019/08/30 06:58:00	AWS2	0.00	351	M	M	M	M	M	NA	NA	987.7	NA	NA		M	NA	NA	NA	NA
2019/08/30 06:59:00	AWS2	0.00	353	M	M	M	M	M	NA	NA	987.1	NA	NA		M	NA	NA	NA	NA
2019/08/30 07:00:00	AWS2	0.00	357	M	M	M	M	M	NA	NA	986.8	NA	NA		M	NA	NA	NA	NA
2019/08/30 07:01:00	AWS2	0.00	359	M	M	M	M	M	NA	NA	987.4	NA	NA		M	NA	NA	NA	NA
2019/08/30 07:02:00	AWS2	0.00	355	M	M	M	M	M	NA	NA	987.1	NA	NA		M	NA	NA	NA	NA
2019/08/30 07:03:00	AWS2	0.00	349	M	M	M	M	M	NA	NA	987.0	NA	NA		M	NA	NA	NA	NA
2019/08/30 07:04:00	AWS2	0.00	351	M	M	M	M	M	NA	NA	987.0	NA	NA		M	NA	NA	NA	NA
2019/08/30 07:05:00	AWS2	0.00	352	M	M	M	M	M	NA	NA	987.2	NA	NA		M	NA	NA	NA	NA
2019/08/30 07:06:00	AWS2	0.00	347	M	M	M	M	M	NA	NA	987.0	NA	NA		M	NA	NA	NA	NA
2019/08/30 07:07:00	AWS2	0.00	348	M	M	M	M	M	NA	NA	987.0	NA	NA		M	NA	NA	NA	NA
2019/08/30 07:08:00	AWS2	0.00	350	M	M	M	M	M	NA	NA	987.0	NA	NA		M	NA	NA	NA	NA
2019/08/30 07:09:00	AWS2	0.00	353	M	M	M	M	M	NA	NA	986.8	NA	NA		M	NA	NA	NA	NA
2019/08/30 07:10:00	AWS2	0.00	357	M	M	M	M	M	NA	NA	986.7	NA	NA		M	NA	NA	NA	NA
2019/08/30 07:11:00	AWS2	0.00	347	M	M	M	M	M	NA	NA	987.1	NA	NA		M	NA	NA	NA	NA
2019/08/30 07:12:00	AWS2	0.00	342	M	M	M	M	M	NA	NA	987.0	NA	NA		M	NA	NA	NA	NA
2019/08/30 07:13:00	AWS2	0.00	344	M	M	M	M	M	NA	NA	986.8	NA	NA		M	NA	NA	NA	NA
2019/08/30 07:14:00	AWS2	0.00	345	M	M	M	M	M	NA	NA	986.6	NA	NA		M	NA	NA	NA	NA
2019/08/30 07:15:00	AWS2	0.00	345	M	M	M	M	M	NA	NA	986.5	NA	NA		M	NA	NA	NA	NA
2019/08/30 07:16:00	AWS2	0.00	2	M	M	M	M	M	NA	NA	986.7	NA	NA		M	NA	NA	NA	NA
2019/08/30 07:17:00	AWS2	0.00	23	M	M	M	M	M	NA	NA	986.7	NA	NA		M	NA	NA	NA	NA
2019/08/30 07:18:00	AWS2	0.49	25	1.39	19	M	M	M	NA	NA	987.0	NA	NA		M	NA	NA	NA	NA
2019/08/30 07:19:00	AWS2	0.69	23	1.39	19	M	M	M	NA	NA	986.6	NA	NA		M	NA	NA	NA	NA
2019/08/30 07:20:00	AWS2	0.29	17	1.39	19	M	M	M	NA	NA	986.7	NA	NA		M	NA	NA	NA	NA
2019/08/30 07:21:00	AWS2	0.37	18	1.39	19	M	M	M	NA	NA	987.2	NA	NA		M	NA	NA	NA	NA
2019/08/30 07:22:00	AWS2	0.55	27	1.39	19	M	M	M	NA	NA	987.0	NA	NA		M	NA	NA	NA	NA
2019/08/30 07:23:00	AWS2	0.28	31	1.39	19	M	M	M	NA	NA	987.0	NA	NA		M	NA	NA	NA	NA
2019/08/30 07:24:00	AWS2	0.00	31	1.39	19	M	M	M	NA	NA	986.7	NA	NA		M	NA	NA	NA	NA
2019/08/30 07:25:00	AWS2	0.00	38	1.39	19	M	M	M	NA	NA	987.1	NA	NA		M	NA	NA	NA	NA
2019/08/30 07:26:00	AWS2	0.00	37	1.39	19	M	M	M	NA	NA	987.5	NA	NA		M	NA	NA	NA	NA
2019/08/30 07:27:00	AWS2	0.00	39	1.39	19	M	M	M	NA	NA	986.8	NA	NA		M	NA	NA	NA	NA
2019/08/30 07:28:00	AWS2	0.09	51	1.34	23	M	M	M	NA	NA	986.7	NA	NA		M	NA	NA	NA	NA
2019/08/30 07:29:00	AWS2	0.25	49	1.39	57	M	M	M	NA	NA	987.1	NA	NA		M	NA	NA	NA	NA
2019/08/30 07:30:00	AWS2	0.82	47	1.95	45	M	M	M	NA	NA	986.7	NA	NA		M	NA	NA	NA	NA
2019/08/30 07:31:00	AWS2	1.50	44	1.95	47	M	M	M	NA	NA	987.3	NA	NA		M	NA	NA	NA	NA
2019/08/30 07:32:00	AWS2	1.12	38	1.95	47	M	M	M	NA	NA	986.7	NA	NA		M	NA	NA	NA	NA
2019/08/30 07:33:00	AWS2	0.99	39	1.95	47	M	M	M	NA	NA	986.5	NA	NA		M	NA	NA	NA	NA
2019/08/30 07:34:00	AWS2	1.63	36	2.31	32	M	M	M	NA	NA	987.0	NA	NA		M	NA	NA	NA	NA
2019/08/30 07:35:00	AWS2	1.99	28	2.42	40	M	M	M	NA	NA	986.5	NA	NA		M	NA	NA	NA	NA
2019/08/30 07:36:00	AWS2	2.04	23	2.42	40	M	M	M	NA	NA	986.8	NA	NA		M	NA	NA	NA	NA
2019/08/30 07:37:00	AWS2	1.70	18	2.42	40	M	M	M	NA	NA	986.8	NA	NA		M	NA	NA	NA	NA
2019/08/30 07:38:00	AWS2	1.22	17	2.42	40	M	M	M	NA	NA	986.8	NA	NA		M	NA	NA	NA	NA
2019/08/30 07:39:00	AWS2	1.17	21	2.42	40	M	M	M	NA	NA	986.8	NA	NA		M	NA	NA	NA	NA
2019/08/30 07:40:00	AWS2	1.39	28	2.42	40	M	M	M	NA	NA	986.9	NA	NA		M	NA	NA	NA	NA
2019/08/30 07:41:00	AWS2	1.56	33	2.42	40	M	M	M	NA	NA	987.0	NA	NA		M	NA	NA	NA	NA
2019/08/30 07:42:00	AWS2	1.89	34	2.47	36	M	M	M	NA	NA	987.0	NA	NA		M	NA	NA	NA	NA
2019/08/30 07:43:00	AWS2	1.95	33	2.47	36	M	M	M	NA	NA	986.8	NA	NA		M	NA	NA	NA	NA
2019/08/30 07:44:00	AWS2	1.74	36	2.47	36	M	M	M	NA	NA	986.5	NA	NA		M	NA	NA	NA	NA
2019/08/30 07:45:00	AWS2	1.93	47	2.52	53	M	M	M	NA	NA	986.8	NA	NA		M	NA	NA	NA	NA
2019/08/30 07:46:00	AWS2	1.98	50	2.52	53	M	M	M	NA	NA	986.7	NA	NA		M	NA	NA	NA	NA
2019/08/30 07:47:00	AWS2	1.68	49	2.52	53	M	M	M	NA	NA	986.6	NA	NA		M	NA	NA	NA	NA
2019/08/30 07:48:00	AWS2	1.83	53	2.52	53	M	M	M	NA	NA	986.7	NA	NA		M	NA	NA	NA	NA
2019/08/30 07:49:00	AWS2	1.86	51	2.52	53	M	M	M	NA	NA	986.5	NA	NA		M	NA	NA	NA	NA
2019/08/30 07:50:00	AWS2	1.69	46	2.52	53	M	M	M	NA	NA	986.5	NA	NA		M	NA	NA	NA	NA
2019/08/30 07:51:00	AWS2	1.81	39	2.52	53	M	M	M	NA	NA	986.7	NA	NA		M	NA	NA	NA	NA
2019/08/30 07:52:00	AWS2	1.94	42	2.52	53	M	M	M	NA	NA	986.7	NA	NA		M	NA	NA	NA	NA
2019/08/30 07:53:00	AWS2	1.98	46	2.52	53	M	M	M	NA	NA	987.1	NA	NA		M	NA	NA	NA	NA
2019/08/30 07:54:00	AWS2	2.08	48	2.52	53	M	M	M	NA	NA	986.5	NA	NA		M	NA	NA	NA	NA
2019/08/30 07:55:00	AWS2	2.04	55	2.47	47	M	M	M	NA	NA	987.3	NA	NA		M	NA	NA	NA	NA
2019/08/30 07:56:00	AWS2	1.82	55	2.47	47	M	M	M	NA	NA	987.2	NA	NA		M	NA	NA	NA	NA
2019/08/30 07:57:00	AWS2	1.97	52	2.47	47	M	M	M	NA	NA	986.4	NA	NA		M	NA	NA	NA	NA
2019/08/30 07:58:00	AWS2	2.26	49	2.52	48	M	M	M	NA	NA	986.7	NA	NA		M	NA	NA	NA	NA
2019/08/30 07:59:00	AWS2	2.38	48	2.52	51	M	M	M	NA	NA	986.6	NA	NA		M	NA	NA	NA	NA
2019/08/30 08:00:00	AWS2	2.42	52	2.68	57	M	M	M	NA	NA	986.7	NA	NA		M	NA	NA	NA	NA
2019/08/30 08:01:00	AWS2	2.43	56	2.68	64	M	M	M	NA	NA	987.7	NA	NA		M	NA	NA	NA	NA
2019/08/30 08:02:00	AWS2	2.59	58	2.93	59	M	M	M	NA	NA	986.8	NA	NA		M	NA	NA	NA	NA
2019/08/30 08:03:00	AWS2	2.64	58	2.93	59	M	M	M	NA	NA	987.5	NA	NA		M	NA	NA	NA	NA
2019/08/30 08:04:00	AWS2	2.55	52	2.93	59	M	M	M	NA	NA	986.8	NA	NA		M	NA	NA	NA	NA
2019/08/30 08:05:00	AWS2	2.64	50	2.98	50	M	M	M	NA	NA	986.7	NA	NA		M	NA	NA	NA	NA
2019/08/30 08:06:00	AWS2	2.69	54	2.98	50	M	M	M	NA	NA	986.6	NA	NA		M	NA	NA	NA	NA
2019/08/30 08:07:00	AWS2	2.49	56	2.98	50	M	M	M	NA	NA	986.4	NA	NA		M	NA	NA	NA	NA
2019/08/30 08:08:00	AWS2	2.15	62	2.98	50	M	M	M	NA	NA	987.1	NA	NA		M	NA	NA	NA	NA
2019/08/30 08:09:00	AWS2	2.32	69	2.98	50	M	M	M	NA	NA	986.9	NA	NA		M	NA	NA	NA	NA
2019/08/30 08:10:00	AWS2	2.44	74	2.98	50	M	M	M	NA	NA	987.1	NA	NA		M	NA	NA	NA	NA
2019/08/30 08:11:00	AWS2	2.26	75	2.98	50	M	M	M	NA	NA	987.0	NA	NA		M	NA	NA	NA	NA
2019/08/30 08:12:00	AWS2	2.21	75	2.98	50	M	M	M	NA	NA	986.9	NA	NA		M	NA	NA	NA	NA
2019/08/30 08:13:00	AWS2	2.20	66	2.98	50	M	M	M	NA	NA	986.7	NA	NA		M	NA	NA	NA	NA
2019/08/30 08:14:00	AWS2	1.98	54	2.98	50	M	M	M	NA	NA	987.1	NA	NA		M	NA	NA	NA	NA
2019/08/30 08:15:00	AWS2	1.95	56	2.88	55	M	M	M	NA	NA	986.8	NA	NA		M	NA	NA	NA	NA
2019/08/30 08:16:00	AWS2	2.25	64	2.78	71	M	M	M	NA	NA	987.0	NA	NA		M	NA	NA	NA	NA
2019/08/30 08:17:00	AWS2	2.20	65	2.78	71	M	M	M	NA	NA	986.7	NA	NA		M	NA	NA	NA	NA
2019/08/30 08:18:00	AWS2	2.07	60	2.78	71	M	M	M	NA	NA	987.2	NA	NA		M	NA	NA	NA	NA
2019/08/30 08:19:00	AWS2	2.28	60	2.57	63	M	M	M	NA	NA	986.7	NA	NA		M	NA	NA	NA	NA
2019/08/30 08:20:00	AWS2	2.40	60	2.57	63	M	M	M	NA	NA	986.8	NA	NA		M	NA	NA	NA	NA
2019/08/30 08:21:00	AWS2	2.43	59	2.78	59	M	M	M	NA	NA	986.9	NA	NA		M	NA	NA	NA	NA
2019/08/30 08:22:00	AWS2	2.54	61	2.78	59	M	M	M	NA	NA	987.0	NA	NA		M	NA	NA	NA	NA
2019/08/30 08:23:00	AWS2	2.31	66	2.78	59	M	M	M	NA	NA	986.9	NA	NA		M	NA	NA	NA	NA
2019/08/30 08:24:00	AWS2	2.11	71	2.78	59	M	M	M	NA	NA	986.6	NA	NA		M	NA	NA	NA	NA
2019/08/30 08:25:00	AWS2	2.26	75	2.78	59	M	M	M	NA	NA	987.0	NA	NA		M	NA	NA	NA	NA
2019/08/30 08:26:00	AWS2	2.41	77	2.78	59	M	M	M	NA	NA	987.3	NA	NA		M	NA	NA	NA	NA
2019/08/30 08:27:00	AWS2	2.38	78	2.78	59	M	M	M	NA	NA	987.1	NA	NA		M	NA	NA	NA	NA
2019/08/30 08:28:00	AWS2	2.32	78	2.78	59	M	M	M	NA	NA	987.0	NA	NA		M	NA	NA	NA	NA
2019/08/30 08:29:00	AWS2	2.28	72	2.78	59	M	M	M	NA	NA	986.8	NA	NA		M	NA	NA	NA	NA
2019/08/30 08:30:00	AWS2	2.19	72	2.78	59	M	M	M	NA	NA	986.9	NA	NA		M	NA	NA	NA	NA
2019/08/30 08:31:00	AWS2	2.13	72	2.68	76	M	M	M	NA	NA	986.6	NA	NA		M	NA	NA	NA	NA
2019/08/30 08:32:00	AWS2	1.99	61	2.68	76	M	M	M	NA	NA	986.9	NA	NA		M	NA	NA	NA	NA
2019/08/30 08:33:00	AWS2	1.76	59	2.68	76	M	M	M	NA	NA	986.7	NA	NA		M	NA	NA	NA	NA
2019/08/30 08:34:00	AWS2	1.77	61	2.68	76	M	M	M	NA	NA	987.3	NA	NA		M	NA	NA	NA	NA
2019/08/30 08:35:00	AWS2	1.76	58	2.62	88	M	M	M	NA	NA	986.9	NA	NA		M	NA	NA	NA	NA
2019/08/30 08:36:00	AWS2	1.55	57	2.62	88	M	M	M	NA	NA	986.8	NA	NA		M	NA	NA	NA	NA
2019/08/30 08:37:00	AWS2	1.45	60	2.52	84	M	M	M	NA	NA	987.1	NA	NA		M	NA	NA	NA	NA
2019/08/30 08:38:00	AWS2	1.41	65	2.42	73	M	M	M	NA	NA	987.0	NA	NA		M	NA	NA	NA	NA
2019/08/30 08:39:00	AWS2	1.44	71	2.31	70	M	M	M	NA	NA	987.0	NA	NA		M	NA	NA	NA	NA
2019/08/30 08:40:00	AWS2	1.43	75	2.31	70	M	M	M	NA	NA	986.8	NA	NA		M	NA	NA	NA	NA
2019/08/30 08:41:00	AWS2	0.80	73	2.11	62	M	M	M	NA	NA	986.9	NA	NA		M	NA	NA	NA	NA
2019/08/30 08:42:00	AWS2	0.56	74	2.11	62	M	M	M	NA	NA	987.3	NA	NA		M	NA	NA	NA	NA
2019/08/30 08:43:00	AWS2	0.87	73	2.11	62	M	M	M	NA	NA	987.1	NA	NA		M	NA	NA	NA	NA
2019/08/30 08:44:00	AWS2	0.52	65	1.85	58	M	M	M	NA	NA	987.1	NA	NA		M	NA	NA	NA	NA
2019/08/30 08:45:00	AWS2	0.64	63	1.75	56	M	M	M	NA	NA	986.7	NA	NA		M	NA	NA	NA	NA
2019/08/30 08:46:00	AWS2	0.84	64	1.65	76	M	M	M	NA	NA	987.1	NA	NA		M	NA	NA	NA	NA
2019/08/30 08:47:00	AWS2	0.77	62	1.65	76	M	M	M	NA	NA	987.1	NA	NA		M	NA	NA	NA	NA
2019/08/30 08:48:00	AWS2	1.18	58	1.65	76	M	M	M	NA	NA	987.2	NA	NA		M	NA	NA	NA	NA
2019/08/30 08:49:00	AWS2	1.31	56	1.54	52	M	M	M	NA	NA	986.9	NA	NA		M	NA	NA	NA	NA
2019/08/30 08:50:00	AWS2	1.25	59	1.54	52	M	M	M	NA	NA	987.1	NA	NA		M	NA	NA	NA	NA
2019/08/30 08:51:00	AWS2	1.29	63	1.54	52	M	M	M	NA	NA	987.4	NA	NA		M	NA	NA	NA	NA
2019/08/30 08:52:00	AWS2	1.29	64	1.54	52	M	M	M	NA	NA	987.6	NA	NA		M	NA	NA	NA	NA
2019/08/30 08:53:00	AWS2	1.10	67	1.54	52	M	M	M	NA	NA	987.5	NA	NA		M	NA	NA	NA	NA
2019/08/30 08:54:00	AWS2	0.83	69	1.54	52	M	M	M	NA	NA	987.6	NA	NA		M	NA	NA	NA	NA
2019/08/30 08:55:00	AWS2	0.78	66	1.54	52	M	M	M	NA	NA	987.6	NA	NA		M	NA	NA	NA	NA
2019/08/30 08:56:00	AWS2	0.44	63	1.54	52	M	M	M	NA	NA	988.0	NA	NA		M	NA	NA	NA	NA
2019/08/30 08:57:00	AWS2	0.28	66	1.54	52	M	M	M	NA	NA	987.5	NA	NA		M	NA	NA	NA	NA
2019/08/30 08:58:00	AWS2	0.37	69	1.44	58	M	M	M	NA	NA	987.7	NA	NA		M	NA	NA	NA	NA
2019/08/30 08:59:00	AWS2	0.61	68	1.39	63	M	M	M	NA	NA	987.3	NA	NA		M	NA	NA	NA	NA
2019/08/30 09:00:00	AWS2	1.17	67	1.59	59	M	M	M	NA	NA	987.2	NA	NA		M	NA	NA	NA	NA
2019/08/30 09:01:00	AWS2	1.24	59	1.59	59	M	M	M	NA	NA	987.6	NA	NA		M	NA	NA	NA	NA
2019/08/30 09:02:00	AWS2	1.30	57	1.59	62	M	M	M	NA	NA	987.5	NA	NA		M	NA	NA	NA	NA
2019/08/30 09:03:00	AWS2	1.59	64	1.85	67	M	M	M	NA	NA	987.0	NA	NA		M	NA	NA	NA	NA
2019/08/30 09:04:00	AWS2	1.67	62	1.85	67	M	M	M	NA	NA	987.5	NA	NA		M	NA	NA	NA	NA
2019/08/30 09:05:00	AWS2	1.63	63	1.85	67	M	M	M	NA	NA	987.3	NA	NA		M	NA	NA	NA	NA
2019/08/30 09:06:00	AWS2	1.64	67	1.85	67	M	M	M	NA	NA	987.2	NA	NA		M	NA	NA	NA	NA
2019/08/30 09:07:00	AWS2	1.66	62	1.85	67	M	M	M	NA	NA	987.9	NA	NA		M	NA	NA	NA	NA
2019/08/30 09:08:00	AWS2	1.65	59	1.85	58	M	M	M	NA	NA	987.3	NA	NA		M	NA	NA	NA	NA
2019/08/30 09:09:00	AWS2	1.69	60	1.85	61	M	M	M	NA	NA	987.2	NA	NA		M	NA	NA	NA	NA
2019/08/30 09:10:00	AWS2	1.66	56	1.85	61	M	M	M	NA	NA	987.0	NA	NA		M	NA	NA	NA	NA
2019/08/30 09:11:00	AWS2	1.61	54	1.85	61	M	M	M	NA	NA	987.3	NA	NA		M	NA	NA	NA	NA
2019/08/30 09:12:00	AWS2	1.63	57	1.85	61	M	M	M	NA	NA	987.3	NA	NA		M	NA	NA	NA	NA
2019/08/30 09:13:00	AWS2	1.64	56	1.85	61	M	M	M	NA	NA	987.2	NA	NA		M	NA	NA	NA	NA
2019/08/30 09:14:00	AWS2	1.69	54	1.85	57	M	M	M	NA	NA	987.6	NA	NA		M	NA	NA	NA	NA
2019/08/30 09:15:00	AWS2	1.63	53	1.85	57	M	M	M	NA	NA	987.2	NA	NA		M	NA	NA	NA	NA
2019/08/30 09:16:00	AWS2	1.62	52	1.85	52	M	M	M	NA	NA	987.1	NA	NA		M	NA	NA	NA	NA
2019/08/30 09:17:00	AWS2	1.71	53	1.85	58	M	M	M	NA	NA	987.2	NA	NA		M	NA	NA	NA	NA
2019/08/30 09:18:00	AWS2	1.56	53	1.85	58	M	M	M	NA	NA	987.2	NA	NA		M	NA	NA	NA	NA
2019/08/30 09:19:00	AWS2	1.44	50	1.85	58	M	M	M	NA	NA	987.3	NA	NA		M	NA	NA	NA	NA
2019/08/30 09:20:00	AWS2	1.57	46	1.85	58	M	M	M	NA	NA	987.7	NA	NA		M	NA	NA	NA	NA
2019/08/30 09:21:00	AWS2	1.46	38	1.85	58	M	M	M	NA	NA	987.3	NA	NA		M	NA	NA	NA	NA
2019/08/30 09:22:00	AWS2	1.26	34	1.85	58	M	M	M	NA	NA	987.1	NA	NA		M	NA	NA	NA	NA
2019/08/30 09:23:00	AWS2	1.50	33	2.06	26	M	M	M	NA	NA	987.3	NA	NA		M	NA	NA	NA	NA
2019/08/30 09:24:00	AWS2	1.88	27	2.11	25	M	M	M	NA	NA	987.1	NA	NA		M	NA	NA	NA	NA
2019/08/30 09:25:00	AWS2	1.99	22	2.11	25	M	M	M	NA	NA	987.7	NA	NA		M	NA	NA	NA	NA
2019/08/30 09:26:00	AWS2	2.00	19	2.11	25	M	M	M	NA	NA	987.4	NA	NA		M	NA	NA	NA	NA
2019/08/30 09:27:00	AWS2	2.14	16	2.47	12	M	M	M	NA	NA	987.9	NA	NA		M	NA	NA	NA	NA
2019/08/30 09:28:00	AWS2	2.27	15	2.52	24	M	M	M	NA	NA	987.2	NA	NA		M	NA	NA	NA	NA
2019/08/30 09:29:00	AWS2	2.23	17	2.52	24	M	M	M	NA	NA	987.2	NA	NA		M	NA	NA	NA	NA
2019/08/30 09:30:00	AWS2	2.20	14	2.62	12	M	M	M	NA	NA	987.3	NA	NA		M	NA	NA	NA	NA
2019/08/30 09:31:00	AWS2	2.41	10	2.83	4	M	M	M	NA	NA	987.2	NA	NA		M	NA	NA	NA	NA
2019/08/30 09:32:00	AWS2	2.68	6	2.88	6	M	M	M	NA	NA	988.0	NA	NA		M	NA	NA	NA	NA
2019/08/30 09:33:00	AWS2	2.68	0	3.09	360	M	M	M	NA	NA	987.7	NA	NA		M	NA	NA	NA	NA
2019/08/30 09:34:00	AWS2	2.64	355	3.09	360	M	M	M	NA	NA	987.3	NA	NA		M	NA	NA	NA	NA
2019/08/30 09:35:00	AWS2	2.55	359	3.09	360	M	M	M	NA	NA	987.3	NA	NA		M	NA	NA	NA	NA
2019/08/30 09:36:00	AWS2	2.24	4	3.09	360	M	M	M	NA	NA	987.4	NA	NA		M	NA	NA	NA	NA
2019/08/30 09:37:00	AWS2	2.08	5	3.09	360	M	M	M	NA	NA	987.5	NA	NA		M	NA	NA	NA	NA
2019/08/30 09:38:00	AWS2	2.12	2	3.09	360	M	M	M	NA	NA	987.3	NA	NA		M	NA	NA	NA	NA
2019/08/30 09:39:00	AWS2	2.36	356	3.40	352	M	M	M	NA	NA	987.5	NA	NA		M	NA	NA	NA	NA
2019/08/30 09:40:00	AWS2	2.84	338	4.32	315	M	M	M	NA	NA	987.5	NA	NA		M	NA	NA	NA	NA
2019/08/30 09:41:00	AWS2	3.26	321	4.32	315	M	M	M	NA	NA	987.8	NA	NA		M	NA	NA	NA	NA
2019/08/30 09:42:00	AWS2	3.20	316	4.32	315	M	M	M	NA	NA	987.6	NA	NA		M	NA	NA	NA	NA
2019/08/30 09:43:00	AWS2	3.27	314	4.68	320	M	M	M	NA	NA	987.2	NA	NA		M	NA	NA	NA	NA
2019/08/30 09:44:00	AWS2	3.90	318	4.73	324	M	M	M	NA	NA	987.6	NA	NA		M	NA	NA	NA	NA
2019/08/30 09:45:00	AWS2	4.16	319	4.73	324	M	M	M	NA	NA	988.2	NA	NA		M	NA	NA	NA	NA
2019/08/30 09:46:00	AWS2	4.07	319	4.73	324	M	M	M	NA	NA	988.0	NA	NA		M	NA	NA	NA	NA
2019/08/30 09:47:00	AWS2	4.12	318	4.73	324	M	M	M	NA	NA	987.5	NA	NA		M	NA	NA	NA	NA
2019/08/30 09:48:00	AWS2	4.05	316	4.73	324	M	M	M	NA	NA	987.6	NA	NA		M	NA	NA	NA	NA
2019/08/30 09:49:00	AWS2	3.94	320	4.73	324	M	M	M	NA	NA	987.3	NA	NA		M	NA	NA	NA	NA
2019/08/30 09:50:00	AWS2	4.01	315	4.73	324	M	M	M	NA	NA	987.5	NA	NA		M	NA	NA	NA	NA
2019/08/30 09:51:00	AWS2	4.11	307	4.73	324	M	M	M	NA	NA	988.1	NA	NA		M	NA	NA	NA	NA
2019/08/30 09:52:00	AWS2	3.97	311	4.73	324	M	M	M	NA	NA	987.8	NA	NA		M	NA	NA	NA	NA
2019/08/30 09:53:00	AWS2	4.03	310	4.73	324	M	M	M	NA	NA	988.1	NA	NA		M	NA	NA	NA	NA
2019/08/30 09:54:00	AWS2	4.07	311	4.68	319	M	M	M	NA	NA	987.6	NA	NA		M	NA	NA	NA	NA
2019/08/30 09:55:00	AWS2	3.96	315	4.53	318	M	M	M	NA	NA	988.1	NA	NA		M	NA	NA	NA	NA
2019/08/30 09:56:00	AWS2	3.88	319	4.53	318	M	M	M	NA	NA	988.0	NA	NA		M	NA	NA	NA	NA
2019/08/30 09:57:00	AWS2	3.77	319	4.53	318	M	M	M	NA	NA	987.9	NA	NA		M	NA	NA	NA	NA
2019/08/30 09:58:00	AWS2	4.03	319	4.89	318	M	M	M	NA	NA	988.1	NA	NA		M	NA	NA	NA	NA
2019/08/30 09:59:00	AWS2	4.20	319	4.89	318	M	M	M	NA	NA	987.7	NA	NA		M	NA	NA	NA	NA
2019/08/30 10:00:00	AWS2	3.83	316	4.89	318	M	M	M	NA	NA	988.0	NA	NA		M	NA	NA	NA	NA
2019/08/30 10:01:00	AWS2	3.40	314	4.89	318	M	M	M	NA	NA	987.9	NA	NA		M	NA	NA	NA	NA
2019/08/30 10:02:00	AWS2	3.10	313	4.89	318	M	M	M	NA	NA	988.0	NA	NA		M	NA	NA	NA	NA
2019/08/30 10:03:00	AWS2	3.24	311	4.89	318	M	M	M	NA	NA	988.1	NA	NA		M	NA	NA	NA	NA
2019/08/30 10:04:00	AWS2	3.60	315	4.89	318	M	M	M	NA	NA	988.2	NA	NA		M	NA	NA	NA	NA
2019/08/30 10:05:00	AWS2	3.93	323	4.89	318	M	M	M	NA	NA	988.0	NA	NA		M	NA	NA	NA	NA
2019/08/30 10:06:00	AWS2	4.17	322	4.89	318	M	M	M	NA	NA	988.1	NA	NA		M	NA	NA	NA	NA
2019/08/30 10:07:00	AWS2	3.84	311	4.89	318	M	M	M	NA	NA	988.3	NA	NA		M	NA	NA	NA	NA
2019/08/30 10:08:00	AWS2	3.13	306	4.68	321	M	M	M	NA	NA	987.9	NA	NA		M	NA	NA	NA	NA
2019/08/30 10:09:00	AWS2	2.86	309	4.37	320	M	M	M	NA	NA	988.1	NA	NA		M	NA	NA	NA	NA
2019/08/30 10:10:00	AWS2	3.22	314	4.37	326	M	M	M	NA	NA	988.0	NA	NA		M	NA	NA	NA	NA
2019/08/30 10:11:00	AWS2	3.36	308	4.37	303	M	M	M	NA	NA	988.0	NA	NA		M	NA	NA	NA	NA
2019/08/30 10:12:00	AWS2	3.26	302	4.37	303	M	M	M	NA	NA	988.3	NA	NA		M	NA	NA	NA	NA
2019/08/30 10:13:00	AWS2	3.09	308	4.37	303	M	M	M	NA	NA	987.6	NA	NA		M	NA	NA	NA	NA
2019/08/30 10:14:00	AWS2	2.97	304	4.37	303	M	M	M	NA	NA	987.7	NA	NA		M	NA	NA	NA	NA
2019/08/30 10:15:00	AWS2	3.00	299	4.37	303	M	M	M	NA	NA	987.9	NA	NA		M	NA	NA	NA	NA
2019/08/30 10:16:00	AWS2	3.24	298	4.37	303	M	M	M	NA	NA	988.4	NA	NA		M	NA	NA	NA	NA
2019/08/30 10:17:00	AWS2	3.04	310	4.37	303	M	M	M	NA	NA	988.2	NA	NA		M	NA	NA	NA	NA
2019/08/30 10:18:00	AWS2	2.49	340	4.37	303	M	M	M	NA	NA	988.2	NA	NA		M	NA	NA	NA	NA
2019/08/30 10:19:00	AWS2	2.68	346	4.37	303	M	M	M	NA	NA	987.9	NA	NA		M	NA	NA	NA	NA
2019/08/30 10:20:00	AWS2	2.48	323	4.37	303	M	M	M	NA	NA	987.9	NA	NA		M	NA	NA	NA	NA
2019/08/30 10:21:00	AWS2	1.88	320	4.32	1	M	M	M	NA	NA	988.1	NA	NA		M	NA	NA	NA	NA
2019/08/30 10:22:00	AWS2	1.82	325	4.32	1	M	M	M	NA	NA	988.3	NA	NA		M	NA	NA	NA	NA
2019/08/30 10:23:00	AWS2	2.42	331	4.32	1	M	M	M	NA	NA	987.9	NA	NA		M	NA	NA	NA	NA
2019/08/30 10:24:00	AWS2	3.46	343	4.99	350	M	M	M	NA	NA	988.1	NA	NA		M	NA	NA	NA	NA
2019/08/30 10:25:00	AWS2	3.27	347	4.99	350	M	M	M	NA	NA	987.9	NA	NA		M	NA	NA	NA	NA
2019/08/30 10:26:00	AWS2	2.66	350	4.99	350	M	M	M	NA	NA	988.3	NA	NA		M	NA	NA	NA	NA
2019/08/30 10:27:00	AWS2	3.20	349	4.99	350	M	M	M	NA	NA	988.1	NA	NA		M	NA	NA	NA	NA
2019/08/30 10:28:00	AWS2	3.88	352	4.99	350	M	M	M	NA	NA	988.0	NA	NA		M	NA	NA	NA	NA
2019/08/30 10:29:00	AWS2	4.16	353	5.09	351	M	M	M	NA	NA	988.1	NA	NA		M	NA	NA	NA	NA
2019/08/30 10:30:00	AWS2	4.15	354	5.09	351	M	M	M	NA	NA	987.7	NA	NA		M	NA	NA	NA	NA
2019/08/30 10:31:00	AWS2	4.07	355	5.09	351	M	M	M	NA	NA	988.0	NA	NA		M	NA	NA	NA	NA
2019/08/30 10:32:00	AWS2	4.30	351	5.20	315	M	M	M	NA	NA	987.9	NA	NA		M	NA	NA	NA	NA
2019/08/30 10:33:00	AWS2	4.52	351	5.20	315	M	M	M	NA	NA	988.2	NA	NA		M	NA	NA	NA	NA
2019/08/30 10:34:00	AWS2	4.12	353	5.20	315	M	M	M	NA	NA	988.0	NA	NA		M	NA	NA	NA	NA
2019/08/30 10:35:00	AWS2	3.78	352	5.20	315	M	M	M	NA	NA	987.6	NA	NA		M	NA	NA	NA	NA
2019/08/30 10:36:00	AWS2	3.50	352	5.20	315	M	M	M	NA	NA	988.2	NA	NA		M	NA	NA	NA	NA
2019/08/30 10:37:00	AWS2	2.88	347	5.20	315	M	M	M	NA	NA	987.9	NA	NA		M	NA	NA	NA	NA
2019/08/30 10:38:00	AWS2	2.48	330	5.20	315	M	M	M	NA	NA	988.1	NA	NA		M	NA	NA	NA	NA
2019/08/30 10:39:00	AWS2	2.45	314	5.20	315	M	M	M	NA	NA	987.8	NA	NA		M	NA	NA	NA	NA
2019/08/30 10:40:00	AWS2	2.59	313	5.20	315	M	M	M	NA	NA	988.0	NA	NA		M	NA	NA	NA	NA
2019/08/30 10:41:00	AWS2	2.43	322	5.20	315	M	M	M	NA	NA	988.1	NA	NA		M	NA	NA	NA	NA
2019/08/30 10:42:00	AWS2	2.81	337	4.94	351	M	M	M	NA	NA	987.9	NA	NA		M	NA	NA	NA	NA
2019/08/30 10:43:00	AWS2	3.13	334	4.37	355	M	M	M	NA	NA	987.9	NA	NA		M	NA	NA	NA	NA
2019/08/30 10:44:00	AWS2	2.75	305	4.37	355	M	M	M	NA	NA	987.7	NA	NA		M	NA	NA	NA	NA
2019/08/30 10:45:00	AWS2	2.63	311	4.37	355	M	M	M	NA	NA	988.1	NA	NA		M	NA	NA	NA	NA
2019/08/30 10:46:00	AWS2	2.75	315	4.37	355	M	M	M	NA	NA	987.9	NA	NA		M	NA	NA	NA	NA
2019/08/30 10:47:00	AWS2	2.70	315	4.37	355	M	M	M	NA	NA	988.1	NA	NA		M	NA	NA	NA	NA
2019/08/30 10:48:00	AWS2	2.65	317	4.37	355	M	M	M	NA	NA	988.0	NA	NA		M	NA	NA	NA	NA
2019/08/30 10:49:00	AWS2	3.12	307	4.73	309	M	M	M	NA	NA	987.8	NA	NA		M	NA	NA	NA	NA
2019/08/30 10:50:00	AWS2	3.08	301	4.73	309	M	M	M	NA	NA	987.9	NA	NA		M	NA	NA	NA	NA
2019/08/30 10:51:00	AWS2	2.79	310	4.73	309	M	M	M	NA	NA	988.2	NA	NA		M	NA	NA	NA	NA
2019/08/30 10:52:00	AWS2	2.54	316	4.73	309	M	M	M	NA	NA	987.8	NA	NA		M	NA	NA	NA	NA
2019/08/30 10:53:00	AWS2	2.40	308	4.73	309	M	M	M	NA	NA	987.9	NA	NA		M	NA	NA	NA	NA
2019/08/30 10:54:00	AWS2	2.80	301	4.73	309	M	M	M	NA	NA	987.7	NA	NA		M	NA	NA	NA	NA
2019/08/30 10:55:00	AWS2	3.02	299	4.73	309	M	M	M	NA	NA	987.8	NA	NA		M	NA	NA	NA	NA
2019/08/30 10:56:00	AWS2	3.20	330	4.73	309	M	M	M	NA	NA	987.9	NA	NA		M	NA	NA	NA	NA
2019/08/30 10:57:00	AWS2	3.37	351	4.73	309	M	M	M	NA	NA	988.0	NA	NA		M	NA	NA	NA	NA
2019/08/30 10:58:00	AWS2	3.48	346	5.30	349	M	M	M	NA	NA	987.7	NA	NA		M	NA	NA	NA	NA
2019/08/30 10:59:00	AWS2	3.48	345	5.30	349	M	M	M	NA	NA	988.1	NA	NA		M	NA	NA	NA	NA
2019/08/30 11:00:00	AWS2	3.22	341	5.30	349	M	M	M	NA	NA	987.8	NA	NA		M	NA	NA	NA	NA
2019/08/30 11:01:00	AWS2	3.16	313	5.30	349	M	M	M	NA	NA	988.0	NA	NA		M	NA	NA	NA	NA
2019/08/30 11:02:00	AWS2	3.26	302	5.30	349	M	M	M	NA	NA	987.8	NA	NA		M	NA	NA	NA	NA
2019/08/30 11:03:00	AWS2	2.78	310	5.30	349	M	M	M	NA	NA	988.2	NA	NA		M	NA	NA	NA	NA
2019/08/30 11:04:00	AWS2	2.84	331	5.30	349	M	M	M	NA	NA	988.0	NA	NA		M	NA	NA	NA	NA
2019/08/30 11:05:00	AWS2	4.34	351	5.92	343	M	M	M	NA	NA	987.6	NA	NA		M	NA	NA	NA	NA
2019/08/30 11:06:00	AWS2	4.95	354	6.07	168	M	M	M	NA	NA	988.1	NA	NA		M	NA	NA	NA	NA
2019/08/30 11:07:00	AWS2	4.60	358	6.07	168	M	M	M	NA	NA	987.9	NA	NA		M	NA	NA	NA	NA
2019/08/30 11:08:00	AWS2	4.06	346	6.07	168	M	M	M	NA	NA	987.9	NA	NA		M	NA	NA	NA	NA
2019/08/30 11:09:00	AWS2	3.44	317	6.07	168	M	M	M	NA	NA	988.0	NA	NA		M	NA	NA	NA	NA
2019/08/30 11:10:00	AWS2	3.66	309	6.07	168	M	M	M	NA	NA	987.8	NA	NA		M	NA	NA	NA	NA
2019/08/30 11:11:00	AWS2	3.59	323	6.07	168	M	M	M	NA	NA	988.1	NA	NA		M	NA	NA	NA	NA
2019/08/30 11:12:00	AWS2	3.06	323	6.07	168	M	M	M	NA	NA	987.9	NA	NA		M	NA	NA	NA	NA
2019/08/30 11:13:00	AWS2	3.09	327	6.07	168	M	M	M	NA	NA	988.2	NA	NA		M	NA	NA	NA	NA
2019/08/30 11:14:00	AWS2	3.62	346	6.07	168	M	M	M	NA	NA	987.7	NA	NA		M	NA	NA	NA	NA
2019/08/30 11:15:00	AWS2	3.69	346	6.07	168	M	M	M	NA	NA	987.9	NA	NA		M	NA	NA	NA	NA
2019/08/30 11:16:00	AWS2	3.03	332	5.35	2	M	M	M	NA	NA	988.1	NA	NA		M	NA	NA	NA	NA
2019/08/30 11:17:00	AWS2	3.51	340	5.25	7	M	M	M	NA	NA	988.1	NA	NA		M	NA	NA	NA	NA
2019/08/30 11:18:00	AWS2	3.98	350	5.25	355	M	M	M	NA	NA	987.9	NA	NA		M	NA	NA	NA	NA
2019/08/30 11:19:00	AWS2	4.56	350	6.07	351	M	M	M	NA	NA	987.9	NA	NA		M	NA	NA	NA	NA
2019/08/30 11:20:00	AWS2	5.50	357	6.12	3	M	M	M	NA	NA	987.6	NA	NA		M	NA	NA	NA	NA
2019/08/30 11:21:00	AWS2	4.86	357	6.12	3	M	M	M	NA	NA	988.1	NA	NA		M	NA	NA	NA	NA
2019/08/30 11:22:00	AWS2	4.17	354	6.12	3	M	M	M	NA	NA	987.8	NA	NA		M	NA	NA	NA	NA
2019/08/30 11:23:00	AWS2	4.06	349	6.12	3	M	M	M	NA	NA	988.4	NA	NA		M	NA	NA	NA	NA
2019/08/30 11:24:00	AWS2	4.03	351	6.12	3	M	M	M	NA	NA	988.3	NA	NA		M	NA	NA	NA	NA
2019/08/30 11:25:00	AWS2	3.98	359	6.12	3	M	M	M	NA	NA	988.4	NA	NA		M	NA	NA	NA	NA
2019/08/30 11:26:00	AWS2	4.55	357	6.12	3	M	M	M	NA	NA	988.2	NA	NA		M	NA	NA	NA	NA
2019/08/30 11:27:00	AWS2	4.41	351	6.12	3	M	M	M	NA	NA	988.6	NA	NA		M	NA	NA	NA	NA
2019/08/30 11:28:00	AWS2	4.35	353	6.12	3	M	M	M	NA	NA	988.4	NA	NA		M	NA	NA	NA	NA
2019/08/30 11:29:00	AWS2	4.98	357	6.12	3	M	M	M	NA	NA	988.4	NA	NA		M	NA	NA	NA	NA
2019/08/30 11:30:00	AWS2	4.70	355	6.02	353	M	M	M	NA	NA	988.4	NA	NA		M	NA	NA	NA	NA
2019/08/30 11:31:00	AWS2	4.51	353	6.02	353	M	M	M	NA	NA	988.5	NA	NA		M	NA	NA	NA	NA
2019/08/30 11:32:00	AWS2	4.75	352	6.02	353	M	M	M	NA	NA	988.5	NA	NA		M	NA	NA	NA	NA
2019/08/30 11:33:00	AWS2	4.98	352	6.02	353	M	M	M	NA	NA	988.5	NA	NA		M	NA	NA	NA	NA
2019/08/30 11:34:00	AWS2	5.18	352	6.48	350	M	M	M	NA	NA	988.4	NA	NA		M	NA	NA	NA	NA
2019/08/30 11:35:00	AWS2	5.27	351	6.48	350	M	M	M	NA	NA	988.6	NA	NA		M	NA	NA	NA	NA
2019/08/30 11:36:00	AWS2	4.81	343	6.48	350	M	M	M	NA	NA	988.6	NA	NA		M	NA	NA	NA	NA
2019/08/30 11:37:00	AWS2	5.10	347	6.58	347	M	M	M	NA	NA	988.6	NA	NA		M	NA	NA	NA	NA
2019/08/30 11:38:00	AWS2	5.86	355	6.58	347	M	M	M	NA	NA	988.5	NA	NA		M	NA	NA	NA	NA
2019/08/30 11:39:00	AWS2	5.77	352	6.58	347	M	M	M	NA	NA	988.3	NA	NA		M	NA	NA	NA	NA
2019/08/30 11:40:00	AWS2	5.72	357	6.84	360	M	M	M	NA	NA	988.5	NA	NA		M	NA	NA	NA	NA
2019/08/30 11:41:00	AWS2	5.94	358	6.84	360	M	M	M	NA	NA	988.6	NA	NA		M	NA	NA	NA	NA
2019/08/30 11:42:00	AWS2	5.86	353	6.84	360	M	M	M	NA	NA	988.6	NA	NA		M	NA	NA	NA	NA
2019/08/30 11:43:00	AWS2	5.43	350	6.84	360	M	M	M	NA	NA	988.4	NA	NA		M	NA	NA	NA	NA
2019/08/30 11:44:00	AWS2	4.65	348	6.84	360	M	M	M	NA	NA	988.7	NA	NA		M	NA	NA	NA	NA
2019/08/30 11:45:00	AWS2	4.60	352	6.84	360	M	M	M	NA	NA	988.9	NA	NA		M	NA	NA	NA	NA
2019/08/30 11:46:00	AWS2	5.04	357	6.84	360	M	M	M	NA	NA	988.4	NA	NA		M	NA	NA	NA	NA
2019/08/30 11:47:00	AWS2	5.08	1	6.84	360	M	M	M	NA	NA	988.5	NA	NA		M	NA	NA	NA	NA
2019/08/30 11:48:00	AWS2	4.88	360	6.84	360	M	M	M	NA	NA	988.5	NA	NA		M	NA	NA	NA	NA
2019/08/30 11:49:00	AWS2	4.60	360	6.84	360	M	M	M	NA	NA	988.8	NA	NA		M	NA	NA	NA	NA
2019/08/30 11:50:00	AWS2	4.71	2	6.48	354	M	M	M	NA	NA	988.3	NA	NA		M	NA	NA	NA	NA
2019/08/30 11:51:00	AWS2	4.73	353	6.17	344	M	M	M	NA	NA	988.6	NA	NA		M	NA	NA	NA	NA
2019/08/30 11:52:00	AWS2	4.19	345	5.71	1	M	M	M	NA	NA	988.8	NA	NA		M	NA	NA	NA	NA
2019/08/30 11:53:00	AWS2	3.73	344	5.71	1	M	M	M	NA	NA	988.7	NA	NA		M	NA	NA	NA	NA
2019/08/30 11:54:00	AWS2	3.79	353	5.71	1	M	M	M	NA	NA	988.7	NA	NA		M	NA	NA	NA	NA
2019/08/30 11:55:00	AWS2	3.97	358	5.71	1	M	M	M	NA	NA	988.5	NA	NA		M	NA	NA	NA	NA
2019/08/30 11:56:00	AWS2	4.17	355	5.71	1	M	M	M	NA	NA	988.4	NA	NA		M	NA	NA	NA	NA
2019/08/30 11:57:00	AWS2	3.98	354	5.20	3	M	M	M	NA	NA	988.6	NA	NA		M	NA	NA	NA	NA
2019/08/30 11:58:00	AWS2	3.29	342	5.20	3	M	M	M	NA	NA	988.8	NA	NA		M	NA	NA	NA	NA
2019/08/30 11:59:00	AWS2	3.44	349	5.14	11	M	M	M	NA	NA	988.7	NA	NA		M	NA	NA	NA	NA
2019/08/30 12:00:00	AWS2	3.74	352	5.04	2	M	M	M	NA	NA	988.7	NA	NA		M	NA	NA	NA	NA
2019/08/30 12:01:00	AWS2	3.10	336	5.04	354	M	M	M	NA	NA	988.4	NA	NA		M	NA	NA	NA	NA
2019/08/30 12:02:00	AWS2	3.86	346	5.30	344	M	M	M	NA	NA	988.3	NA	NA		M	NA	NA	NA	NA
2019/08/30 12:03:00	AWS2	4.34	354	5.30	344	M	M	M	NA	NA	988.5	NA	NA		M	NA	NA	NA	NA
2019/08/30 12:04:00	AWS2	4.09	349	5.92	348	M	M	M	NA	NA	988.5	NA	NA		M	NA	NA	NA	NA
2019/08/30 12:05:00	AWS2	4.61	351	5.92	348	M	M	M	NA	NA	988.6	NA	NA		M	NA	NA	NA	NA
2019/08/30 12:06:00	AWS2	5.17	353	6.43	351	M	M	M	NA	NA	988.7	NA	NA		M	NA	NA	NA	NA
2019/08/30 12:07:00	AWS2	5.65	353	6.43	351	M	M	M	NA	NA	988.5	NA	NA		M	NA	NA	NA	NA
2019/08/30 12:08:00	AWS2	5.58	352	6.43	351	M	M	M	NA	NA	988.5	NA	NA		M	NA	NA	NA	NA
2019/08/30 12:09:00	AWS2	5.40	359	6.43	351	M	M	M	NA	NA	988.7	NA	NA		M	NA	NA	NA	NA
2019/08/30 12:10:00	AWS2	4.88	0	6.43	351	M	M	M	NA	NA	988.7	NA	NA		M	NA	NA	NA	NA
2019/08/30 12:11:00	AWS2	4.64	354	6.43	351	M	M	M	NA	NA	988.5	NA	NA		M	NA	NA	NA	NA
2019/08/30 12:12:00	AWS2	4.98	352	6.43	351	M	M	M	NA	NA	988.6	NA	NA		M	NA	NA	NA	NA
2019/08/30 12:13:00	AWS2	4.85	351	6.43	351	M	M	M	NA	NA	988.3	NA	NA		M	NA	NA	NA	NA
2019/08/30 12:14:00	AWS2	4.72	352	6.43	351	M	M	M	NA	NA	988.3	NA	NA		M	NA	NA	NA	NA
2019/08/30 12:15:00	AWS2	5.31	357	6.53	2	M	M	M	NA	NA	988.6	NA	NA		M	NA	NA	NA	NA
2019/08/30 12:16:00	AWS2	5.69	360	6.53	2	M	M	M	NA	NA	988.8	NA	NA		M	NA	NA	NA	NA
2019/08/30 12:17:00	AWS2	5.35	358	6.53	2	M	M	M	NA	NA	988.6	NA	NA		M	NA	NA	NA	NA
2019/08/30 12:18:00	AWS2	5.20	356	6.53	2	M	M	M	NA	NA	988.5	NA	NA		M	NA	NA	NA	NA
2019/08/30 12:19:00	AWS2	5.30	358	6.53	2	M	M	M	NA	NA	988.3	NA	NA		M	NA	NA	NA	NA
2019/08/30 12:20:00	AWS2	5.17	358	6.53	2	M	M	M	NA	NA	988.7	NA	NA		M	NA	NA	NA	NA
2019/08/30 12:21:00	AWS2	5.17	355	6.53	2	M	M	M	NA	NA	988.8	NA	NA		M	NA	NA	NA	NA
2019/08/30 12:22:00	AWS2	5.41	351	6.53	2	M	M	M	NA	NA	988.8	NA	NA		M	NA	NA	NA	NA
2019/08/30 12:23:00	AWS2	5.60	349	6.53	2	M	M	M	NA	NA	988.9	NA	NA		M	NA	NA	NA	NA
2019/08/30 12:24:00	AWS2	5.39	356	6.53	2	M	M	M	NA	NA	988.6	NA	NA		M	NA	NA	NA	NA
2019/08/30 12:25:00	AWS2	5.17	0	6.48	337	M	M	M	NA	NA	988.7	NA	NA		M	NA	NA	NA	NA
2019/08/30 12:26:00	AWS2	4.79	358	6.48	337	M	M	M	NA	NA	988.8	NA	NA		M	NA	NA	NA	NA
2019/08/30 12:27:00	AWS2	4.78	356	6.48	337	M	M	M	NA	NA	988.7	NA	NA		M	NA	NA	NA	NA
2019/08/30 12:28:00	AWS2	4.95	347	6.48	337	M	M	M	NA	NA	988.8	NA	NA		M	NA	NA	NA	NA
2019/08/30 12:29:00	AWS2	5.37	348	6.64	1	M	M	M	NA	NA	989.0	NA	NA		M	NA	NA	NA	NA
2019/08/30 12:30:00	AWS2	5.92	356	6.64	1	M	M	M	NA	NA	988.8	NA	NA		M	NA	NA	NA	NA
2019/08/30 12:31:00	AWS2	5.52	353	6.64	1	M	M	M	NA	NA	988.7	NA	NA		M	NA	NA	NA	NA
2019/08/30 12:32:00	AWS2	5.09	350	6.64	1	M	M	M	NA	NA	988.8	NA	NA		M	NA	NA	NA	NA
2019/08/30 12:33:00	AWS2	4.69	354	6.64	1	M	M	M	NA	NA	988.4	NA	NA		M	NA	NA	NA	NA
2019/08/30 12:34:00	AWS2	4.72	356	6.64	1	M	M	M	NA	NA	988.6	NA	NA		M	NA	NA	NA	NA
2019/08/30 12:35:00	AWS2	5.08	352	6.64	1	M	M	M	NA	NA	988.6	NA	NA		M	NA	NA	NA	NA
2019/08/30 12:36:00	AWS2	5.06	353	6.64	1	M	M	M	NA	NA	988.4	NA	NA		M	NA	NA	NA	NA
2019/08/30 12:37:00	AWS2	4.67	354	6.64	1	M	M	M	NA	NA	988.6	NA	NA		M	NA	NA	NA	NA
2019/08/30 12:38:00	AWS2	4.63	349	6.64	1	M	M	M	NA	NA	988.6	NA	NA		M	NA	NA	NA	NA
2019/08/30 12:39:00	AWS2	5.09	346	6.64	1	M	M	M	NA	NA	988.6	NA	NA		M	NA	NA	NA	NA
2019/08/30 12:40:00	AWS2	5.42	349	6.64	1	M	M	M	NA	NA	988.7	NA	NA		M	NA	NA	NA	NA
2019/08/30 12:41:00	AWS2	5.53	348	6.64	1	M	M	M	NA	NA	989.1	NA	NA		M	NA	NA	NA	NA
2019/08/30 12:42:00	AWS2	5.20	346	6.64	1	M	M	M	NA	NA	988.7	NA	NA		M	NA	NA	NA	NA
2019/08/30 12:43:00	AWS2	4.39	350	6.64	1	M	M	M	NA	NA	988.6	NA	NA		M	NA	NA	NA	NA
2019/08/30 12:44:00	AWS2	4.74	352	6.64	1	M	M	M	NA	NA	988.4	NA	NA		M	NA	NA	NA	NA
2019/08/30 12:45:00	AWS2	5.58	353	6.64	1	M	M	M	NA	NA	988.7	NA	NA		M	NA	NA	NA	NA
2019/08/30 12:46:00	AWS2	5.87	355	7.15	2	M	M	M	NA	NA	989.1	NA	NA		M	NA	NA	NA	NA
2019/08/30 12:47:00	AWS2	6.02	358	7.15	2	M	M	M	NA	NA	989.0	NA	NA		M	NA	NA	NA	NA
2019/08/30 12:48:00	AWS2	5.68	355	7.15	2	M	M	M	NA	NA	988.8	NA	NA		M	NA	NA	NA	NA
2019/08/30 12:49:00	AWS2	5.55	353	7.15	2	M	M	M	NA	NA	988.6	NA	NA		M	NA	NA	NA	NA
2019/08/30 12:50:00	AWS2	5.37	348	7.15	2	M	M	M	NA	NA	989.1	NA	NA		M	NA	NA	NA	NA
2019/08/30 12:51:00	AWS2	5.42	352	7.15	2	M	M	M	NA	NA	988.7	NA	NA		M	NA	NA	NA	NA
2019/08/30 12:52:00	AWS2	5.56	359	7.15	2	M	M	M	NA	NA	988.7	NA	NA		M	NA	NA	NA	NA
2019/08/30 12:53:00	AWS2	5.61	358	7.15	2	M	M	M	NA	NA	988.8	NA	NA		M	NA	NA	NA	NA
2019/08/30 12:54:00	AWS2	5.57	356	7.15	2	M	M	M	NA	NA	988.7	NA	NA		M	NA	NA	NA	NA
2019/08/30 12:55:00	AWS2	5.13	352	7.15	2	M	M	M	NA	NA	988.7	NA	NA		M	NA	NA	NA	NA
2019/08/30 12:56:00	AWS2	5.06	354	6.48	6	M	M	M	NA	NA	988.7	NA	NA		M	NA	NA	NA	NA
2019/08/30 12:57:00	AWS2	4.78	356	6.48	6	M	M	M	NA	NA	988.5	NA	NA		M	NA	NA	NA	NA
2019/08/30 12:58:00	AWS2	5.01	360	6.48	6	M	M	M	NA	NA	988.7	NA	NA		M	NA	NA	NA	NA
2019/08/30 12:59:00	AWS2	5.17	0	6.48	6	M	M	M	NA	NA	989.0	NA	NA		M	NA	NA	NA	NA
2019/08/30 13:00:00	AWS2	5.10	348	6.48	6	M	M	M	NA	NA	989.0	NA	NA		M	NA	NA	NA	NA
2019/08/30 13:01:00	AWS2	5.14	347	6.48	6	M	M	M	NA	NA	989.0	NA	NA		M	NA	NA	NA	NA
2019/08/30 13:02:00	AWS2	4.84	353	6.48	6	M	M	M	NA	NA	988.9	NA	NA		M	NA	NA	NA	NA
2019/08/30 13:03:00	AWS2	5.10	354	6.17	3	M	M	M	NA	NA	988.6	NA	NA		M	NA	NA	NA	NA
2019/08/30 13:04:00	AWS2	5.57	359	6.43	352	M	M	M	NA	NA	988.6	NA	NA		M	NA	NA	NA	NA
2019/08/30 13:05:00	AWS2	6.00	355	7.00	204	M	M	M	NA	NA	989.0	NA	NA		M	NA	NA	NA	NA
2019/08/30 13:06:00	AWS2	6.12	352	7.00	204	M	M	M	NA	NA	988.8	NA	NA		M	NA	NA	NA	NA
2019/08/30 13:07:00	AWS2	6.00	358	7.00	204	M	M	M	NA	NA	988.6	NA	NA		M	NA	NA	NA	NA
2019/08/30 13:08:00	AWS2	5.74	1	7.00	204	M	M	M	NA	NA	988.5	NA	NA		M	NA	NA	NA	NA
2019/08/30 13:09:00	AWS2	5.59	360	7.00	204	M	M	M	NA	NA	988.8	NA	NA		M	NA	NA	NA	NA
2019/08/30 13:10:00	AWS2	5.77	2	7.00	204	M	M	M	NA	NA	988.6	NA	NA		M	NA	NA	NA	NA
2019/08/30 13:11:00	AWS2	5.69	3	7.00	204	M	M	M	NA	NA	988.8	NA	NA		M	NA	NA	NA	NA
2019/08/30 13:12:00	AWS2	5.72	3	7.00	204	M	M	M	NA	NA	988.8	NA	NA		M	NA	NA	NA	NA
2019/08/30 13:13:00	AWS2	6.19	4	7.00	204	M	M	M	NA	NA	988.7	NA	NA		M	NA	NA	NA	NA
2019/08/30 13:14:00	AWS2	6.14	1	7.00	204	M	M	M	NA	NA	988.9	NA	NA		M	NA	NA	NA	NA
2019/08/30 13:15:00	AWS2	5.27	2	6.94	5	M	M	M	NA	NA	989.1	NA	NA		M	NA	NA	NA	NA
2019/08/30 13:16:00	AWS2	5.29	5	6.94	5	M	M	M	NA	NA	988.9	NA	NA		M	NA	NA	NA	NA
2019/08/30 13:17:00	AWS2	5.30	3	6.94	5	M	M	M	NA	NA	988.9	NA	NA		M	NA	NA	NA	NA
2019/08/30 13:18:00	AWS2	4.99	359	6.94	5	M	M	M	NA	NA	989.0	NA	NA		M	NA	NA	NA	NA
2019/08/30 13:19:00	AWS2	5.29	0	6.94	5	M	M	M	NA	NA	988.9	NA	NA		M	NA	NA	NA	NA
2019/08/30 13:20:00	AWS2	5.60	358	6.94	5	M	M	M	NA	NA	988.7	NA	NA		M	NA	NA	NA	NA
2019/08/30 13:21:00	AWS2	6.00	359	6.94	5	M	M	M	NA	NA	988.8	NA	NA		M	NA	NA	NA	NA
2019/08/30 13:22:00	AWS2	6.14	7	6.94	5	M	M	M	NA	NA	989.0	NA	NA		M	NA	NA	NA	NA
2019/08/30 13:23:00	AWS2	5.99	8	6.74	6	M	M	M	NA	NA	988.9	NA	NA		M	NA	NA	NA	NA
2019/08/30 13:24:00	AWS2	5.85	8	6.64	11	M	M	M	NA	NA	989.1	NA	NA		M	NA	NA	NA	NA
2019/08/30 13:25:00	AWS2	5.90	10	6.64	11	M	M	M	NA	NA	989.0	NA	NA		M	NA	NA	NA	NA
2019/08/30 13:26:00	AWS2	6.06	9	6.64	11	M	M	M	NA	NA	988.7	NA	NA		M	NA	NA	NA	NA
2019/08/30 13:27:00	AWS2	6.34	7	6.79	6	M	M	M	NA	NA	988.8	NA	NA		M	NA	NA	NA	NA
2019/08/30 13:28:00	AWS2	6.39	7	6.79	6	M	M	M	NA	NA	988.8	NA	NA		M	NA	NA	NA	NA
2019/08/30 13:29:00	AWS2	6.11	6	6.79	6	M	M	M	NA	NA	988.5	NA	NA		M	NA	NA	NA	NA
2019/08/30 13:30:00	AWS2	6.03	5	6.79	6	M	M	M	NA	NA	988.4	NA	NA		M	NA	NA	NA	NA
2019/08/30 13:31:00	AWS2	6.10	4	6.79	6	M	M	M	NA	NA	988.8	NA	NA		M	NA	NA	NA	NA
2019/08/30 13:32:00	AWS2	5.95	6	6.79	6	M	M	M	NA	NA	988.9	NA	NA		M	NA	NA	NA	NA
2019/08/30 13:33:00	AWS2	5.76	5	6.79	6	M	M	M	NA	NA	988.7	NA	NA		M	NA	NA	NA	NA
2019/08/30 13:34:00	AWS2	5.29	6	6.79	6	M	M	M	NA	NA	989.3	NA	NA		M	NA	NA	NA	NA
2019/08/30 13:35:00	AWS2	4.79	7	6.79	6	M	M	M	NA	NA	989.1	NA	NA		M	NA	NA	NA	NA
2019/08/30 13:36:00	AWS2	4.94	2	6.79	6	M	M	M	NA	NA	989.0	NA	NA		M	NA	NA	NA	NA
2019/08/30 13:37:00	AWS2	5.46	3	6.58	5	M	M	M	NA	NA	989.0	NA	NA		M	NA	NA	NA	NA
2019/08/30 13:38:00	AWS2	5.88	6	6.58	5	M	M	M	NA	NA	988.9	NA	NA		M	NA	NA	NA	NA
2019/08/30 13:39:00	AWS2	6.15	5	6.84	1	M	M	M	NA	NA	988.7	NA	NA		M	NA	NA	NA	NA
2019/08/30 13:40:00	AWS2	6.29	6	6.84	1	M	M	M	NA	NA	989.1	NA	NA		M	NA	NA	NA	NA
2019/08/30 13:41:00	AWS2	6.11	10	6.84	1	M	M	M	NA	NA	989.2	NA	NA		M	NA	NA	NA	NA
2019/08/30 13:42:00	AWS2	5.86	8	6.84	1	M	M	M	NA	NA	988.6	NA	NA		M	NA	NA	NA	NA
2019/08/30 13:43:00	AWS2	5.82	8	7.10	8	M	M	M	NA	NA	988.8	NA	NA		M	NA	NA	NA	NA
2019/08/30 13:44:00	AWS2	6.08	10	7.10	8	M	M	M	NA	NA	988.8	NA	NA		M	NA	NA	NA	NA
2019/08/30 13:45:00	AWS2	6.43	10	7.10	8	M	M	M	NA	NA	988.8	NA	NA		M	NA	NA	NA	NA
2019/08/30 13:46:00	AWS2	6.26	9	7.10	8	M	M	M	NA	NA	988.7	NA	NA		M	NA	NA	NA	NA
2019/08/30 13:47:00	AWS2	5.77	7	7.10	8	M	M	M	NA	NA	988.8	NA	NA		M	NA	NA	NA	NA
2019/08/30 13:48:00	AWS2	5.81	6	7.10	8	M	M	M	NA	NA	989.1	NA	NA		M	NA	NA	NA	NA
2019/08/30 13:49:00	AWS2	6.02	4	7.10	8	M	M	M	NA	NA	989.0	NA	NA		M	NA	NA	NA	NA
2019/08/30 13:50:00	AWS2	5.95	1	7.10	8	M	M	M	NA	NA	988.9	NA	NA		M	NA	NA	NA	NA
2019/08/30 13:51:00	AWS2	5.93	356	7.10	8	M	M	M	NA	NA	988.9	NA	NA		M	NA	NA	NA	NA
2019/08/30 13:52:00	AWS2	6.06	353	7.10	8	M	M	M	NA	NA	988.4	NA	NA		M	NA	NA	NA	NA
2019/08/30 13:53:00	AWS2	6.19	355	7.05	3	M	M	M	NA	NA	988.7	NA	NA		M	NA	NA	NA	NA
2019/08/30 13:54:00	AWS2	5.91	0	7.05	3	M	M	M	NA	NA	988.5	NA	NA		M	NA	NA	NA	NA
2019/08/30 13:55:00	AWS2	5.75	4	7.05	3	M	M	M	NA	NA	989.1	NA	NA		M	NA	NA	NA	NA
2019/08/30 13:56:00	AWS2	5.79	6	7.05	3	M	M	M	NA	NA	988.8	NA	NA		M	NA	NA	NA	NA
2019/08/30 13:57:00	AWS2	5.48	6	7.05	3	M	M	M	NA	NA	989.3	NA	NA		M	NA	NA	NA	NA
2019/08/30 13:58:00	AWS2	5.30	8	7.05	3	M	M	M	NA	NA	989.4	NA	NA		M	NA	NA	NA	NA
2019/08/30 13:59:00	AWS2	5.30	7	7.05	3	M	M	M	NA	NA	989.1	NA	NA		M	NA	NA	NA	NA
2019/08/30 14:00:00	AWS2	5.22	6	7.05	3	M	M	M	NA	NA	989.2	NA	NA		M	NA	NA	NA	NA
2019/08/30 14:01:00	AWS2	4.84	12	7.05	3	M	M	M	NA	NA	989.0	NA	NA		M	NA	NA	NA	NA
2019/08/30 14:02:00	AWS2	4.86	14	7.05	3	M	M	M	NA	NA	989.1	NA	NA		M	NA	NA	NA	NA
2019/08/30 14:03:00	AWS2	5.60	11	6.58	6	M	M	M	NA	NA	989.1	NA	NA		M	NA	NA	NA	NA
2019/08/30 14:04:00	AWS2	5.98	11	6.58	6	M	M	M	NA	NA	989.1	NA	NA		M	NA	NA	NA	NA
2019/08/30 14:05:00	AWS2	5.79	12	6.38	11	M	M	M	NA	NA	989.0	NA	NA		M	NA	NA	NA	NA
2019/08/30 14:06:00	AWS2	5.78	12	6.38	11	M	M	M	NA	NA	989.3	NA	NA		M	NA	NA	NA	NA
2019/08/30 14:07:00	AWS2	5.92	12	6.38	11	M	M	M	NA	NA	989.3	NA	NA		M	NA	NA	NA	NA
2019/08/30 14:08:00	AWS2	5.91	10	6.38	11	M	M	M	NA	NA	988.9	NA	NA		M	NA	NA	NA	NA
2019/08/30 14:09:00	AWS2	5.81	8	6.38	11	M	M	M	NA	NA	988.9	NA	NA		M	NA	NA	NA	NA
2019/08/30 14:10:00	AWS2	5.69	6	6.38	11	M	M	M	NA	NA	989.1	NA	NA		M	NA	NA	NA	NA
2019/08/30 14:11:00	AWS2	5.46	5	6.38	11	M	M	M	NA	NA	989.2	NA	NA		M	NA	NA	NA	NA
2019/08/30 14:12:00	AWS2	5.42	3	6.38	11	M	M	M	NA	NA	989.0	NA	NA		M	NA	NA	NA	NA
2019/08/30 14:13:00	AWS2	5.62	1	6.38	11	M	M	M	NA	NA	989.0	NA	NA		M	NA	NA	NA	NA
2019/08/30 14:14:00	AWS2	5.40	354	6.38	11	M	M	M	NA	NA	989.2	NA	NA		M	NA	NA	NA	NA
2019/08/30 14:15:00	AWS2	4.96	354	6.38	11	M	M	M	NA	NA	989.0	NA	NA		M	NA	NA	NA	NA
2019/08/30 14:16:00	AWS2	5.06	5	6.38	11	M	M	M	NA	NA	989.2	NA	NA		M	NA	NA	NA	NA
2019/08/30 14:17:00	AWS2	5.36	1	6.33	360	M	M	M	NA	NA	989.2	NA	NA		M	NA	NA	NA	NA
2019/08/30 14:18:00	AWS2	5.46	355	6.33	360	M	M	M	NA	NA	989.0	NA	NA		M	NA	NA	NA	NA
2019/08/30 14:19:00	AWS2	5.40	359	6.33	360	M	M	M	NA	NA	989.0	NA	NA		M	NA	NA	NA	NA
2019/08/30 14:20:00	AWS2	5.26	3	6.33	360	M	M	M	NA	NA	989.2	NA	NA		M	NA	NA	NA	NA
2019/08/30 14:21:00	AWS2	5.29	357	6.33	360	M	M	M	NA	NA	989.2	NA	NA		M	NA	NA	NA	NA
2019/08/30 14:22:00	AWS2	5.30	356	6.12	355	M	M	M	NA	NA	988.9	NA	NA		M	NA	NA	NA	NA
2019/08/30 14:23:00	AWS2	5.36	2	5.92	1	M	M	M	NA	NA	989.1	NA	NA		M	NA	NA	NA	NA
2019/08/30 14:24:00	AWS2	5.10	357	5.92	1	M	M	M	NA	NA	989.5	NA	NA		M	NA	NA	NA	NA
2019/08/30 14:25:00	AWS2	5.05	357	5.92	1	M	M	M	NA	NA	989.2	NA	NA		M	NA	NA	NA	NA
2019/08/30 14:26:00	AWS2	5.55	3	6.07	2	M	M	M	NA	NA	989.3	NA	NA		M	NA	NA	NA	NA
2019/08/30 14:27:00	AWS2	5.40	2	6.07	2	M	M	M	NA	NA	989.3	NA	NA		M	NA	NA	NA	NA
2019/08/30 14:28:00	AWS2	5.18	360	6.07	2	M	M	M	NA	NA	989.0	NA	NA		M	NA	NA	NA	NA
2019/08/30 14:29:00	AWS2	4.97	0	6.07	2	M	M	M	NA	NA	989.2	NA	NA		M	NA	NA	NA	NA
2019/08/30 14:30:00	AWS2	4.81	4	6.07	2	M	M	M	NA	NA	989.3	NA	NA		M	NA	NA	NA	NA
2019/08/30 14:31:00	AWS2	4.78	1	6.07	2	M	M	M	NA	NA	988.8	NA	NA		M	NA	NA	NA	NA
2019/08/30 14:32:00	AWS2	4.76	1	6.07	2	M	M	M	NA	NA	989.3	NA	NA		M	NA	NA	NA	NA
2019/08/30 14:33:00	AWS2	4.75	4	6.07	2	M	M	M	NA	NA	989.5	NA	NA		M	NA	NA	NA	NA
2019/08/30 14:34:00	AWS2	4.52	5	6.07	2	M	M	M	NA	NA	989.0	NA	NA		M	NA	NA	NA	NA
2019/08/30 14:35:00	AWS2	4.30	6	6.07	2	M	M	M	NA	NA	989.0	NA	NA		M	NA	NA	NA	NA
2019/08/30 14:36:00	AWS2	3.99	4	5.71	6	M	M	M	NA	NA	989.5	NA	NA		M	NA	NA	NA	NA
2019/08/30 14:37:00	AWS2	3.79	5	5.61	360	M	M	M	NA	NA	989.1	NA	NA		M	NA	NA	NA	NA
2019/08/30 14:38:00	AWS2	3.87	3	5.35	5	M	M	M	NA	NA	989.2	NA	NA		M	NA	NA	NA	NA
2019/08/30 14:39:00	AWS2	4.23	2	5.35	5	M	M	M	NA	NA	989.0	NA	NA		M	NA	NA	NA	NA
2019/08/30 14:40:00	AWS2	4.60	5	5.30	3	M	M	M	NA	NA	989.4	NA	NA		M	NA	NA	NA	NA
2019/08/30 14:41:00	AWS2	4.92	6	5.35	3	M	M	M	NA	NA	989.0	NA	NA		M	NA	NA	NA	NA
2019/08/30 14:42:00	AWS2	4.89	6	5.35	3	M	M	M	NA	NA	989.5	NA	NA		M	NA	NA	NA	NA
2019/08/30 14:43:00	AWS2	4.38	6	5.35	3	M	M	M	NA	NA	989.3	NA	NA		M	NA	NA	NA	NA
2019/08/30 14:44:00	AWS2	4.11	5	5.35	3	M	M	M	NA	NA	989.1	NA	NA		M	NA	NA	NA	NA
2019/08/30 14:45:00	AWS2	4.21	5	5.35	3	M	M	M	NA	NA	989.1	NA	NA		M	NA	NA	NA	NA
2019/08/30 14:46:00	AWS2	4.32	6	5.35	3	M	M	M	NA	NA	989.3	NA	NA		M	NA	NA	NA	NA
2019/08/30 14:47:00	AWS2	4.44	8	5.35	3	M	M	M	NA	NA	989.3	NA	NA		M	NA	NA	NA	NA
2019/08/30 14:48:00	AWS2	4.51	9	5.35	3	M	M	M	NA	NA	989.3	NA	NA		M	NA	NA	NA	NA
2019/08/30 14:49:00	AWS2	4.49	10	5.35	3	M	M	M	NA	NA	989.0	NA	NA		M	NA	NA	NA	NA
2019/08/30 14:50:00	AWS2	4.29	12	5.35	3	M	M	M	NA	NA	989.3	NA	NA		M	NA	NA	NA	NA
2019/08/30 14:51:00	AWS2	4.14	11	5.04	4	M	M	M	NA	NA	989.4	NA	NA		M	NA	NA	NA	NA
2019/08/30 14:52:00	AWS2	4.12	12	4.73	10	M	M	M	NA	NA	989.4	NA	NA		M	NA	NA	NA	NA
2019/08/30 14:53:00	AWS2	4.31	12	4.84	10	M	M	M	NA	NA	989.3	NA	NA		M	NA	NA	NA	NA
2019/08/30 14:54:00	AWS2	4.24	10	4.84	10	M	M	M	NA	NA	989.1	NA	NA		M	NA	NA	NA	NA
2019/08/30 14:55:00	AWS2	4.12	9	4.84	10	M	M	M	NA	NA	989.3	NA	NA		M	NA	NA	NA	NA
2019/08/30 14:56:00	AWS2	4.33	8	4.84	10	M	M	M	NA	NA	989.2	NA	NA		M	NA	NA	NA	NA
2019/08/30 14:57:00	AWS2	4.20	8	4.84	10	M	M	M	NA	NA	989.4	NA	NA		M	NA	NA	NA	NA
2019/08/30 14:58:00	AWS2	3.78	12	4.84	10	M	M	M	NA	NA	989.3	NA	NA		M	NA	NA	NA	NA
2019/08/30 14:59:00	AWS2	3.50	13	4.84	10	M	M	M	NA	NA	989.4	NA	NA		M	NA	NA	NA	NA
2019/08/30 15:00:00	AWS2	3.54	12	4.84	10	M	M	M	NA	NA	989.4	NA	NA		M	NA	NA	NA	NA
2019/08/30 15:01:00	AWS2	3.70	10	4.84	10	M	M	M	NA	NA	989.3	NA	NA		M	NA	NA	NA	NA
2019/08/30 15:02:00	AWS2	3.91	9	4.84	10	M	M	M	NA	NA	989.2	NA	NA		M	NA	NA	NA	NA
2019/08/30 15:03:00	AWS2	3.54	13	4.63	8	M	M	M	NA	NA	989.4	NA	NA		M	NA	NA	NA	NA
2019/08/30 15:04:00	AWS2	3.10	18	4.63	8	M	M	M	NA	NA	989.5	NA	NA		M	NA	NA	NA	NA
2019/08/30 15:05:00	AWS2	3.35	20	4.63	8	M	M	M	NA	NA	989.5	NA	NA		M	NA	NA	NA	NA
2019/08/30 15:06:00	AWS2	3.24	14	4.37	20	M	M	M	NA	NA	989.4	NA	NA		M	NA	NA	NA	NA
2019/08/30 15:07:00	AWS2	3.07	16	4.37	20	M	M	M	NA	NA	989.6	NA	NA		M	NA	NA	NA	NA
2019/08/30 15:08:00	AWS2	3.45	18	4.37	20	M	M	M	NA	NA	989.4	NA	NA		M	NA	NA	NA	NA
2019/08/30 15:09:00	AWS2	3.25	16	4.37	20	M	M	M	NA	NA	989.6	NA	NA		M	NA	NA	NA	NA
2019/08/30 15:10:00	AWS2	2.52	24	4.37	20	M	M	M	NA	NA	989.6	NA	NA		M	NA	NA	NA	NA
2019/08/30 15:11:00	AWS2	2.19	28	4.37	20	M	M	M	NA	NA	989.7	NA	NA		M	NA	NA	NA	NA
2019/08/30 15:12:00	AWS2	2.11	25	4.12	16	M	M	M	NA	NA	989.2	NA	NA		M	NA	NA	NA	NA
2019/08/30 15:13:00	AWS2	2.24	18	4.12	16	M	M	M	NA	NA	989.4	NA	NA		M	NA	NA	NA	NA
2019/08/30 15:14:00	AWS2	2.52	9	4.12	16	M	M	M	NA	NA	989.3	NA	NA		M	NA	NA	NA	NA
2019/08/30 15:15:00	AWS2	2.63	12	4.12	16	M	M	M	NA	NA	989.6	NA	NA		M	NA	NA	NA	NA
2019/08/30 15:16:00	AWS2	2.49	24	4.12	16	M	M	M	NA	NA	989.7	NA	NA		M	NA	NA	NA	NA
2019/08/30 15:17:00	AWS2	2.16	38	4.12	16	M	M	M	NA	NA	989.3	NA	NA		M	NA	NA	NA	NA
2019/08/30 15:18:00	AWS2	1.73	49	3.55	9	M	M	M	NA	NA	989.5	NA	NA		M	NA	NA	NA	NA
2019/08/30 15:19:00	AWS2	1.50	53	2.88	3	M	M	M	NA	NA	989.2	NA	NA		M	NA	NA	NA	NA
2019/08/30 15:20:00	AWS2	1.52	51	2.88	3	M	M	M	NA	NA	989.4	NA	NA		M	NA	NA	NA	NA
2019/08/30 15:21:00	AWS2	1.53	45	2.88	3	M	M	M	NA	NA	989.8	NA	NA		M	NA	NA	NA	NA
2019/08/30 15:22:00	AWS2	1.46	41	2.88	3	M	M	M	NA	NA	989.4	NA	NA		M	NA	NA	NA	NA
2019/08/30 15:23:00	AWS2	1.43	44	2.88	3	M	M	M	NA	NA	989.3	NA	NA		M	NA	NA	NA	NA
2019/08/30 15:24:00	AWS2	1.43	51	2.78	14	M	M	M	NA	NA	989.6	NA	NA		M	NA	NA	NA	NA
2019/08/30 15:25:00	AWS2	1.44	60	2.68	35	M	M	M	NA	NA	989.9	NA	NA		M	NA	NA	NA	NA
2019/08/30 15:26:00	AWS2	1.52	62	2.26	50	M	M	M	NA	NA	989.7	NA	NA		M	NA	NA	NA	NA
2019/08/30 15:27:00	AWS2	1.62	56	1.85	59	M	M	M	NA	NA	989.7	NA	NA		M	NA	NA	NA	NA
2019/08/30 15:28:00	AWS2	1.63	51	1.85	56	M	M	M	NA	NA	989.7	NA	NA		M	NA	NA	NA	NA
2019/08/30 15:29:00	AWS2	1.44	48	1.85	56	M	M	M	NA	NA	989.3	NA	NA		M	NA	NA	NA	NA
2019/08/30 15:30:00	AWS2	1.34	54	1.85	56	M	M	M	NA	NA	989.5	NA	NA		M	NA	NA	NA	NA
2019/08/30 15:31:00	AWS2	1.27	65	1.85	56	M	M	M	NA	NA	989.9	NA	NA		M	NA	NA	NA	NA
2019/08/30 15:32:00	AWS2	1.22	72	1.85	56	M	M	M	NA	NA	989.8	NA	NA		M	NA	NA	NA	NA
2019/08/30 15:33:00	AWS2	1.12	67	1.85	56	M	M	M	NA	NA	989.6	NA	NA		M	NA	NA	NA	NA
2019/08/30 15:34:00	AWS2	0.82	55	1.85	56	M	M	M	NA	NA	989.7	NA	NA		M	NA	NA	NA	NA
2019/08/30 15:35:00	AWS2	0.36	52	1.85	56	M	M	M	NA	NA	989.5	NA	NA		M	NA	NA	NA	NA
2019/08/30 15:36:00	AWS2	0.10	65	1.85	56	M	M	M	NA	NA	989.4	NA	NA		M	NA	NA	NA	NA
2019/08/30 15:37:00	AWS2	0.46	71	1.85	56	M	M	M	NA	NA	989.8	NA	NA		M	NA	NA	NA	NA
2019/08/30 15:38:00	AWS2	0.97	70	1.70	65	M	M	M	NA	NA	989.5	NA	NA		M	NA	NA	NA	NA
2019/08/30 15:39:00	AWS2	1.17	71	1.70	65	M	M	M	NA	NA	989.6	NA	NA		M	NA	NA	NA	NA
2019/08/30 15:40:00	AWS2	1.23	66	1.49	59	M	M	M	NA	NA	989.6	NA	NA		M	NA	NA	NA	NA
2019/08/30 15:41:00	AWS2	1.09	67	1.49	59	M	M	M	NA	NA	989.5	NA	NA		M	NA	NA	NA	NA
2019/08/30 15:42:00	AWS2	1.14	68	1.59	59	M	M	M	NA	NA	989.8	NA	NA		M	NA	NA	NA	NA
2019/08/30 15:43:00	AWS2	1.43	62	1.59	59	M	M	M	NA	NA	989.7	NA	NA		M	NA	NA	NA	NA
2019/08/30 15:44:00	AWS2	0.95	61	1.59	59	M	M	M	NA	NA	989.8	NA	NA		M	NA	NA	NA	NA
2019/08/30 15:45:00	AWS2	0.43	56	1.59	59	M	M	M	NA	NA	989.6	NA	NA		M	NA	NA	NA	NA
2019/08/30 15:46:00	AWS2	0.61	44	1.59	59	M	M	M	NA	NA	989.7	NA	NA		M	NA	NA	NA	NA
2019/08/30 15:47:00	AWS2	1.06	33	1.59	59	M	M	M	NA	NA	989.7	NA	NA		M	NA	NA	NA	NA
2019/08/30 15:48:00	AWS2	1.20	28	1.59	59	M	M	M	NA	NA	989.7	NA	NA		M	NA	NA	NA	NA
2019/08/30 15:49:00	AWS2	0.83	32	1.59	59	M	M	M	NA	NA	990.0	NA	NA		M	NA	NA	NA	NA
2019/08/30 15:50:00	AWS2	0.70	35	1.59	59	M	M	M	NA	NA	989.8	NA	NA		M	NA	NA	NA	NA
2019/08/30 15:51:00	AWS2	0.43	34	1.59	59	M	M	M	NA	NA	989.7	NA	NA		M	NA	NA	NA	NA
2019/08/30 15:52:00	AWS2	0.55	28	1.54	58	M	M	M	NA	NA	989.6	NA	NA		M	NA	NA	NA	NA
2019/08/30 15:53:00	AWS2	1.11	24	1.39	33	M	M	M	NA	NA	989.8	NA	NA		M	NA	NA	NA	NA
2019/08/30 15:54:00	AWS2	1.10	22	1.39	33	M	M	M	NA	NA	989.6	NA	NA		M	NA	NA	NA	NA
2019/08/30 15:55:00	AWS2	1.15	20	1.54	17	M	M	M	NA	NA	989.7	NA	NA		M	NA	NA	NA	NA
2019/08/30 15:56:00	AWS2	0.85	26	1.54	17	M	M	M	NA	NA	989.7	NA	NA		M	NA	NA	NA	NA
2019/08/30 15:57:00	AWS2	0.61	38	1.54	17	M	M	M	NA	NA	989.7	NA	NA		M	NA	NA	NA	NA
2019/08/30 15:58:00	AWS2	0.37	54	1.54	17	M	M	M	NA	NA	989.5	NA	NA		M	NA	NA	NA	NA
2019/08/30 15:59:00	AWS2	0.00	56	1.54	17	M	M	M	NA	NA	989.8	NA	NA		M	NA	NA	NA	NA
2019/08/30 16:00:00	AWS2	0.00	42	1.54	17	M	M	M	NA	NA	989.9	NA	NA		M	NA	NA	NA	NA
2019/08/30 16:01:00	AWS2	0.09	25	1.54	17	M	M	M	NA	NA	989.7	NA	NA		M	NA	NA	NA	NA
2019/08/30 16:02:00	AWS2	0.81	11	1.95	7	M	M	M	NA	NA	989.6	NA	NA		M	NA	NA	NA	NA
2019/08/30 16:03:00	AWS2	1.99	8	2.88	11	M	M	M	NA	NA	990.0	NA	NA		M	NA	NA	NA	NA
2019/08/30 16:04:00	AWS2	2.73	6	3.24	2	M	M	M	NA	NA	989.5	NA	NA		M	NA	NA	NA	NA
2019/08/30 16:05:00	AWS2	3.04	2	3.29	4	M	M	M	NA	NA	990.0	NA	NA		M	NA	NA	NA	NA
2019/08/30 16:06:00	AWS2	3.13	5	3.34	8	M	M	M	NA	NA	989.6	NA	NA		M	NA	NA	NA	NA
2019/08/30 16:07:00	AWS2	2.97	9	3.34	8	M	M	M	NA	NA	989.4	NA	NA		M	NA	NA	NA	NA
2019/08/30 16:08:00	AWS2	3.07	10	3.55	11	M	M	M	NA	NA	989.3	NA	NA		M	NA	NA	NA	NA
2019/08/30 16:09:00	AWS2	2.89	18	3.55	11	M	M	M	NA	NA	989.4	NA	NA		M	NA	NA	NA	NA
2019/08/30 16:10:00	AWS2	2.51	36	3.55	11	M	M	M	NA	NA	989.8	NA	NA		M	NA	NA	NA	NA
2019/08/30 16:11:00	AWS2	2.48	49	3.55	11	M	M	M	NA	NA	989.8	NA	NA		M	NA	NA	NA	NA
2019/08/30 16:12:00	AWS2	2.35	52	3.55	11	M	M	M	NA	NA	990.0	NA	NA		M	NA	NA	NA	NA
2019/08/30 16:13:00	AWS2	2.29	50	3.55	11	M	M	M	NA	NA	989.6	NA	NA		M	NA	NA	NA	NA
2019/08/30 16:14:00	AWS2	2.21	47	3.55	11	M	M	M	NA	NA	989.5	NA	NA		M	NA	NA	NA	NA
2019/08/30 16:15:00	AWS2	2.09	44	3.55	11	M	M	M	NA	NA	989.8	NA	NA		M	NA	NA	NA	NA
2019/08/30 16:16:00	AWS2	1.93	34	3.55	11	M	M	M	NA	NA	989.7	NA	NA		M	NA	NA	NA	NA
2019/08/30 16:17:00	AWS2	1.97	32	3.55	11	M	M	M	NA	NA	989.6	NA	NA		M	NA	NA	NA	NA
2019/08/30 16:18:00	AWS2	2.23	37	2.78	39	M	M	M	NA	NA	989.6	NA	NA		M	NA	NA	NA	NA
2019/08/30 16:19:00	AWS2	2.20	38	2.78	39	M	M	M	NA	NA	989.9	NA	NA		M	NA	NA	NA	NA
2019/08/30 16:20:00	AWS2	2.20	37	3.09	33	M	M	M	NA	NA	989.5	NA	NA		M	NA	NA	NA	NA
2019/08/30 16:21:00	AWS2	2.73	23	3.86	19	M	M	M	NA	NA	989.9	NA	NA		M	NA	NA	NA	NA
2019/08/30 16:22:00	AWS2	2.85	4	3.86	19	M	M	M	NA	NA	989.8	NA	NA		M	NA	NA	NA	NA
2019/08/30 16:23:00	AWS2	2.82	3	3.86	19	M	M	M	NA	NA	989.6	NA	NA		M	NA	NA	NA	NA
2019/08/30 16:24:00	AWS2	3.47	9	4.12	5	M	M	M	NA	NA	989.8	NA	NA		M	NA	NA	NA	NA
2019/08/30 16:25:00	AWS2	3.76	4	4.12	5	M	M	M	NA	NA	989.6	NA	NA		M	NA	NA	NA	NA
2019/08/30 16:26:00	AWS2	3.75	5	4.12	5	M	M	M	NA	NA	990.1	NA	NA		M	NA	NA	NA	NA
2019/08/30 16:27:00	AWS2	3.38	7	4.12	5	M	M	M	NA	NA	989.8	NA	NA		M	NA	NA	NA	NA
2019/08/30 16:28:00	AWS2	2.77	8	4.12	5	M	M	M	NA	NA	990.0	NA	NA		M	NA	NA	NA	NA
2019/08/30 16:29:00	AWS2	2.40	25	4.12	5	M	M	M	NA	NA	989.8	NA	NA		M	NA	NA	NA	NA
2019/08/30 16:30:00	AWS2	2.13	45	4.12	5	M	M	M	NA	NA	989.8	NA	NA		M	NA	NA	NA	NA
2019/08/30 16:31:00	AWS2	2.15	46	4.12	5	M	M	M	NA	NA	990.0	NA	NA		M	NA	NA	NA	NA
2019/08/30 16:32:00	AWS2	2.04	39	4.12	5	M	M	M	NA	NA	990.1	NA	NA		M	NA	NA	NA	NA
2019/08/30 16:33:00	AWS2	1.95	42	4.12	5	M	M	M	NA	NA	990.1	NA	NA		M	NA	NA	NA	NA
2019/08/30 16:34:00	AWS2	2.01	46	4.01	9	M	M	M	NA	NA	989.8	NA	NA		M	NA	NA	NA	NA
2019/08/30 16:35:00	AWS2	1.87	44	4.01	9	M	M	M	NA	NA	989.8	NA	NA		M	NA	NA	NA	NA
2019/08/30 16:36:00	AWS2	1.75	44	3.55	7	M	M	M	NA	NA	990.1	NA	NA		M	NA	NA	NA	NA
2019/08/30 16:37:00	AWS2	1.95	46	3.14	1	M	M	M	NA	NA	990.0	NA	NA		M	NA	NA	NA	NA
2019/08/30 16:38:00	AWS2	2.31	44	2.88	37	M	M	M	NA	NA	989.5	NA	NA		M	NA	NA	NA	NA
2019/08/30 16:39:00	AWS2	2.38	39	2.88	37	M	M	M	NA	NA	989.9	NA	NA		M	NA	NA	NA	NA
2019/08/30 16:40:00	AWS2	2.27	42	2.88	37	M	M	M	NA	NA	990.1	NA	NA		M	NA	NA	NA	NA
2019/08/30 16:41:00	AWS2	2.25	40	2.88	30	M	M	M	NA	NA	990.1	NA	NA		M	NA	NA	NA	NA
2019/08/30 16:42:00	AWS2	2.82	27	4.27	4	M	M	M	NA	NA	990.0	NA	NA		M	NA	NA	NA	NA
2019/08/30 16:43:00	AWS2	3.65	16	4.27	4	M	M	M	NA	NA	990.0	NA	NA		M	NA	NA	NA	NA
2019/08/30 16:44:00	AWS2	3.78	14	4.27	4	M	M	M	NA	NA	989.9	NA	NA		M	NA	NA	NA	NA
2019/08/30 16:45:00	AWS2	3.85	11	4.32	5	M	M	M	NA	NA	989.7	NA	NA		M	NA	NA	NA	NA
2019/08/30 16:46:00	AWS2	4.16	12	4.84	9	M	M	M	NA	NA	989.6	NA	NA		M	NA	NA	NA	NA
2019/08/30 16:47:00	AWS2	4.37	10	4.89	7	M	M	M	NA	NA	990.0	NA	NA		M	NA	NA	NA	NA
2019/08/30 16:48:00	AWS2	4.55	11	5.25	8	M	M	M	NA	NA	989.6	NA	NA		M	NA	NA	NA	NA
2019/08/30 16:49:00	AWS2	4.60	13	5.25	8	M	M	M	NA	NA	989.7	NA	NA		M	NA	NA	NA	NA
2019/08/30 16:50:00	AWS2	4.67	10	5.25	8	M	M	M	NA	NA	989.8	NA	NA		M	NA	NA	NA	NA
2019/08/30 16:51:00	AWS2	4.98	10	5.45	10	M	M	M	NA	NA	989.6	NA	NA		M	NA	NA	NA	NA
2019/08/30 16:52:00	AWS2	5.09	9	5.45	10	M	M	M	NA	NA	989.8	NA	NA		M	NA	NA	NA	NA
2019/08/30 16:53:00	AWS2	4.95	12	5.45	10	M	M	M	NA	NA	989.5	NA	NA		M	NA	NA	NA	NA
2019/08/30 16:54:00	AWS2	4.72	16	5.45	10	M	M	M	NA	NA	989.9	NA	NA		M	NA	NA	NA	NA
2019/08/30 16:55:00	AWS2	4.85	15	5.61	16	M	M	M	NA	NA	989.8	NA	NA		M	NA	NA	NA	NA
2019/08/30 16:56:00	AWS2	5.19	15	5.61	11	M	M	M	NA	NA	989.9	NA	NA		M	NA	NA	NA	NA
2019/08/30 16:57:00	AWS2	5.04	16	5.61	11	M	M	M	NA	NA	989.8	NA	NA		M	NA	NA	NA	NA
2019/08/30 16:58:00	AWS2	4.54	19	5.61	11	M	M	M	NA	NA	989.8	NA	NA		M	NA	NA	NA	NA
2019/08/30 16:59:00	AWS2	4.49	19	5.61	11	M	M	M	NA	NA	989.7	NA	NA		M	NA	NA	NA	NA
2019/08/30 17:00:00	AWS2	4.54	19	5.61	11	M	M	M	NA	NA	989.7	NA	NA		M	NA	NA	NA	NA
2019/08/30 17:01:00	AWS2	4.24	22	5.61	11	M	M	M	NA	NA	989.9	NA	NA		M	NA	NA	NA	NA
2019/08/30 17:02:00	AWS2	4.00	20	5.61	11	M	M	M	NA	NA	989.9	NA	NA		M	NA	NA	NA	NA
2019/08/30 17:03:00	AWS2	4.17	18	5.61	11	M	M	M	NA	NA	989.8	NA	NA		M	NA	NA	NA	NA
2019/08/30 17:04:00	AWS2	4.66	19	5.61	11	M	M	M	NA	NA	989.5	NA	NA		M	NA	NA	NA	NA
2019/08/30 17:05:00	AWS2	4.47	19	5.61	11	M	M	M	NA	NA	990.3	NA	NA		M	NA	NA	NA	NA
2019/08/30 17:06:00	AWS2	4.47	17	5.14	18	M	M	M	NA	NA	989.8	NA	NA		M	NA	NA	NA	NA
2019/08/30 17:07:00	AWS2	4.68	16	5.14	18	M	M	M	NA	NA	989.5	NA	NA		M	NA	NA	NA	NA
2019/08/30 17:08:00	AWS2	4.54	18	5.14	18	M	M	M	NA	NA	989.8	NA	NA		M	NA	NA	NA	NA
2019/08/30 17:09:00	AWS2	4.31	18	5.14	18	M	M	M	NA	NA	989.7	NA	NA		M	NA	NA	NA	NA
2019/08/30 17:10:00	AWS2	4.32	18	5.14	18	M	M	M	NA	NA	989.6	NA	NA		M	NA	NA	NA	NA
2019/08/30 17:11:00	AWS2	4.42	20	5.14	18	M	M	M	NA	NA	990.0	NA	NA		M	NA	NA	NA	NA
2019/08/30 17:12:00	AWS2	4.18	21	5.14	18	M	M	M	NA	NA	989.7	NA	NA		M	NA	NA	NA	NA
2019/08/30 17:13:00	AWS2	4.00	26	5.14	18	M	M	M	NA	NA	989.9	NA	NA		M	NA	NA	NA	NA
2019/08/30 17:14:00	AWS2	3.93	31	4.99	18	M	M	M	NA	NA	989.7	NA	NA		M	NA	NA	NA	NA
2019/08/30 17:15:00	AWS2	3.82	34	4.99	18	M	M	M	NA	NA	989.6	NA	NA		M	NA	NA	NA	NA
2019/08/30 17:16:00	AWS2	3.52	37	4.99	18	M	M	M	NA	NA	989.9	NA	NA		M	NA	NA	NA	NA
2019/08/30 17:17:00	AWS2	3.50	33	4.99	18	M	M	M	NA	NA	989.7	NA	NA		M	NA	NA	NA	NA
2019/08/30 17:18:00	AWS2	3.73	26	4.89	18	M	M	M	NA	NA	989.5	NA	NA		M	NA	NA	NA	NA
2019/08/30 17:19:00	AWS2	3.72	29	4.89	18	M	M	M	NA	NA	989.9	NA	NA		M	NA	NA	NA	NA
2019/08/30 17:20:00	AWS2	3.76	29	4.68	19	M	M	M	NA	NA	990.0	NA	NA		M	NA	NA	NA	NA
2019/08/30 17:21:00	AWS2	3.75	26	4.37	22	M	M	M	NA	NA	989.5	NA	NA		M	NA	NA	NA	NA
2019/08/30 17:22:00	AWS2	3.55	24	4.27	25	M	M	M	NA	NA	990.0	NA	NA		M	NA	NA	NA	NA
2019/08/30 17:23:00	AWS2	3.19	27	4.27	25	M	M	M	NA	NA	989.8	NA	NA		M	NA	NA	NA	NA
2019/08/30 17:24:00	AWS2	3.04	30	4.27	25	M	M	M	NA	NA	989.5	NA	NA		M	NA	NA	NA	NA
2019/08/30 17:25:00	AWS2	2.96	27	4.27	25	M	M	M	NA	NA	989.6	NA	NA		M	NA	NA	NA	NA
2019/08/30 17:26:00	AWS2	2.83	27	4.27	25	M	M	M	NA	NA	989.9	NA	NA		M	NA	NA	NA	NA
2019/08/30 17:27:00	AWS2	2.65	37	4.27	25	M	M	M	NA	NA	989.8	NA	NA		M	NA	NA	NA	NA
2019/08/30 17:28:00	AWS2	2.42	47	4.27	25	M	M	M	NA	NA	990.1	NA	NA		M	NA	NA	NA	NA
2019/08/30 17:29:00	AWS2	2.37	49	4.27	25	M	M	M	NA	NA	989.9	NA	NA		M	NA	NA	NA	NA
2019/08/30 17:30:00	AWS2	2.53	48	4.01	25	M	M	M	NA	NA	990.2	NA	NA		M	NA	NA	NA	NA
2019/08/30 17:31:00	AWS2	2.57	49	3.86	23	M	M	M	NA	NA	990.0	NA	NA		M	NA	NA	NA	NA
2019/08/30 17:32:00	AWS2	2.30	51	3.34	31	M	M	M	NA	NA	989.8	NA	NA		M	NA	NA	NA	NA
2019/08/30 17:33:00	AWS2	2.07	51	3.29	31	M	M	M	NA	NA	989.5	NA	NA		M	NA	NA	NA	NA
2019/08/30 17:34:00	AWS2	1.89	50	3.14	37	M	M	M	NA	NA	989.8	NA	NA		M	NA	NA	NA	NA
2019/08/30 17:35:00	AWS2	1.80	46	3.14	37	M	M	M	NA	NA	989.7	NA	NA		M	NA	NA	NA	NA
2019/08/30 17:36:00	AWS2	1.72	48	3.04	38	M	M	M	NA	NA	990.0	NA	NA		M	NA	NA	NA	NA
2019/08/30 17:37:00	AWS2	1.35	47	2.78	45	M	M	M	NA	NA	990.0	NA	NA		M	NA	NA	NA	NA
2019/08/30 17:38:00	AWS2	0.95	34	2.78	45	M	M	M	NA	NA	990.0	NA	NA		M	NA	NA	NA	NA
2019/08/30 17:39:00	AWS2	1.00	26	2.78	45	M	M	M	NA	NA	989.8	NA	NA		M	NA	NA	NA	NA
2019/08/30 17:40:00	AWS2	1.20	26	2.62	51	M	M	M	NA	NA	989.9	NA	NA		M	NA	NA	NA	NA
2019/08/30 17:41:00	AWS2	1.26	23	2.42	52	M	M	M	NA	NA	990.0	NA	NA		M	NA	NA	NA	NA
2019/08/30 17:42:00	AWS2	1.28	19	2.11	52	M	M	M	NA	NA	990.1	NA	NA		M	NA	NA	NA	NA
2019/08/30 17:43:00	AWS2	1.26	11	2.06	43	M	M	M	NA	NA	990.0	NA	NA		M	NA	NA	NA	NA
2019/08/30 17:44:00	AWS2	1.28	5	2.06	43	M	M	M	NA	NA	990.2	NA	NA		M	NA	NA	NA	NA
2019/08/30 17:45:00	AWS2	1.46	4	1.85	6	M	M	M	NA	NA	989.8	NA	NA		M	NA	NA	NA	NA
2019/08/30 17:46:00	AWS2	1.73	9	1.95	23	M	M	M	NA	NA	990.0	NA	NA		M	NA	NA	NA	NA
2019/08/30 17:47:00	AWS2	1.77	19	1.95	23	M	M	M	NA	NA	990.0	NA	NA		M	NA	NA	NA	NA
2019/08/30 17:48:00	AWS2	1.63	19	1.95	23	M	M	M	NA	NA	990.2	NA	NA		M	NA	NA	NA	NA
2019/08/30 17:49:00	AWS2	1.66	16	1.95	23	M	M	M	NA	NA	990.0	NA	NA		M	NA	NA	NA	NA
2019/08/30 17:50:00	AWS2	1.89	21	2.21	24	M	M	M	NA	NA	989.7	NA	NA		M	NA	NA	NA	NA
2019/08/30 17:51:00	AWS2	1.90	24	2.21	24	M	M	M	NA	NA	990.1	NA	NA		M	NA	NA	NA	NA
2019/08/30 17:52:00	AWS2	1.51	30	2.21	24	M	M	M	NA	NA	990.5	NA	NA		M	NA	NA	NA	NA
2019/08/30 17:53:00	AWS2	1.41	42	2.21	24	M	M	M	NA	NA	989.9	NA	NA		M	NA	NA	NA	NA
2019/08/30 17:54:00	AWS2	1.91	56	2.42	65	M	M	M	NA	NA	990.1	NA	NA		M	NA	NA	NA	NA
2019/08/30 17:55:00	AWS2	2.34	66	2.52	77	M	M	M	NA	NA	989.9	NA	NA		M	NA	NA	NA	NA
2019/08/30 17:56:00	AWS2	2.26	78	2.52	77	M	M	M	NA	NA	990.4	NA	NA		M	NA	NA	NA	NA
2019/08/30 17:57:00	AWS2	1.95	88	2.52	77	M	M	M	NA	NA	990.2	NA	NA		M	NA	NA	NA	NA
2019/08/30 17:58:00	AWS2	1.78	85	2.52	77	M	M	M	NA	NA	990.4	NA	NA		M	NA	NA	NA	NA
2019/08/30 17:59:00	AWS2	1.65	83	2.52	77	M	M	M	NA	NA	990.4	NA	NA		M	NA	NA	NA	NA
2019/08/30 18:00:00	AWS2	1.59	85	2.52	77	M	M	M	NA	NA	990.2	NA	NA		M	NA	NA	NA	NA
2019/08/30 18:01:00	AWS2	1.57	85	2.52	77	M	M	M	NA	NA	990.4	NA	NA		M	NA	NA	NA	NA
2019/08/30 18:02:00	AWS2	1.55	86	2.52	77	M	M	M	NA	NA	990.0	NA	NA		M	NA	NA	NA	NA
2019/08/30 18:03:00	AWS2	1.79	82	2.52	77	M	M	M	NA	NA	990.1	NA	NA		M	NA	NA	NA	NA
2019/08/30 18:04:00	AWS2	1.82	78	2.52	77	M	M	M	NA	NA	990.1	NA	NA		M	NA	NA	NA	NA
2019/08/30 18:05:00	AWS2	1.54	78	2.47	79	M	M	M	NA	NA	990.0	NA	NA		M	NA	NA	NA	NA
2019/08/30 18:06:00	AWS2	1.47	73	2.06	77	M	M	M	NA	NA	990.0	NA	NA		M	NA	NA	NA	NA
2019/08/30 18:07:00	AWS2	1.37	69	2.06	77	M	M	M	NA	NA	990.2	NA	NA		M	NA	NA	NA	NA
2019/08/30 18:08:00	AWS2	1.17	69	2.06	77	M	M	M	NA	NA	990.1	NA	NA		M	NA	NA	NA	NA
2019/08/30 18:09:00	AWS2	1.16	67	2.06	77	M	M	M	NA	NA	990.4	NA	NA		M	NA	NA	NA	NA
2019/08/30 18:10:00	AWS2	1.26	53	2.06	77	M	M	M	NA	NA	990.2	NA	NA		M	NA	NA	NA	NA
2019/08/30 18:11:00	AWS2	1.39	39	2.06	77	M	M	M	NA	NA	990.2	NA	NA		M	NA	NA	NA	NA
2019/08/30 18:12:00	AWS2	1.43	35	2.06	77	M	M	M	NA	NA	990.1	NA	NA		M	NA	NA	NA	NA
2019/08/30 18:13:00	AWS2	1.67	33	2.42	33	M	M	M	NA	NA	989.9	NA	NA		M	NA	NA	NA	NA
2019/08/30 18:14:00	AWS2	2.32	14	3.24	353	M	M	M	NA	NA	989.9	NA	NA		M	NA	NA	NA	NA
2019/08/30 18:15:00	AWS2	2.81	349	3.91	353	M	M	M	NA	NA	990.1	NA	NA		M	NA	NA	NA	NA
2019/08/30 18:16:00	AWS2	2.76	344	3.91	353	M	M	M	NA	NA	990.1	NA	NA		M	NA	NA	NA	NA
2019/08/30 18:17:00	AWS2	2.60	346	3.91	353	M	M	M	NA	NA	990.1	NA	NA		M	NA	NA	NA	NA
2019/08/30 18:18:00	AWS2	2.29	355	3.91	353	M	M	M	NA	NA	990.1	NA	NA		M	NA	NA	NA	NA
2019/08/30 18:19:00	AWS2	2.23	5	3.91	353	M	M	M	NA	NA	990.2	NA	NA		M	NA	NA	NA	NA
2019/08/30 18:20:00	AWS2	2.81	4	3.91	353	M	M	M	NA	NA	990.3	NA	NA		M	NA	NA	NA	NA
2019/08/30 18:21:00	AWS2	3.10	13	3.91	353	M	M	M	NA	NA	990.0	NA	NA		M	NA	NA	NA	NA
2019/08/30 18:22:00	AWS2	3.54	20	4.37	18	M	M	M	NA	NA	989.9	NA	NA		M	NA	NA	NA	NA
2019/08/30 18:23:00	AWS2	4.02	13	4.58	5	M	M	M	NA	NA	990.3	NA	NA		M	NA	NA	NA	NA
2019/08/30 18:24:00	AWS2	3.98	14	4.58	5	M	M	M	NA	NA	990.1	NA	NA		M	NA	NA	NA	NA
2019/08/30 18:25:00	AWS2	3.45	21	4.58	5	M	M	M	NA	NA	990.1	NA	NA		M	NA	NA	NA	NA
2019/08/30 18:26:00	AWS2	3.40	14	4.58	5	M	M	M	NA	NA	990.1	NA	NA		M	NA	NA	NA	NA
2019/08/30 18:27:00	AWS2	4.33	6	5.35	7	M	M	M	NA	NA	990.0	NA	NA		M	NA	NA	NA	NA
2019/08/30 18:28:00	AWS2	5.12	3	6.17	1	M	M	M	NA	NA	990.1	NA	NA		M	NA	NA	NA	NA
2019/08/30 18:29:00	AWS2	5.86	1	7.41	360	M	M	M	NA	NA	989.7	NA	NA		M	NA	NA	NA	NA
2019/08/30 18:30:00	AWS2	6.39	2	7.41	360	M	M	M	NA	NA	989.8	NA	NA		M	NA	NA	NA	NA
2019/08/30 18:31:00	AWS2	6.57	5	7.41	360	M	M	M	NA	NA	989.9	NA	NA		M	NA	NA	NA	NA
2019/08/30 18:32:00	AWS2	6.64	11	7.41	360	M	M	M	NA	NA	989.8	NA	NA		M	NA	NA	NA	NA
2019/08/30 18:33:00	AWS2	6.75	12	7.72	11	M	M	M	NA	NA	990.0	NA	NA		M	NA	NA	NA	NA
2019/08/30 18:34:00	AWS2	6.79	7	7.72	11	M	M	M	NA	NA	989.6	NA	NA		M	NA	NA	NA	NA
2019/08/30 18:35:00	AWS2	6.75	6	7.72	11	M	M	M	NA	NA	989.9	NA	NA		M	NA	NA	NA	NA
2019/08/30 18:36:00	AWS2	6.84	9	7.72	11	M	M	M	NA	NA	989.8	NA	NA		M	NA	NA	NA	NA
2019/08/30 18:37:00	AWS2	6.83	10	7.72	11	M	M	M	NA	NA	990.0	NA	NA		M	NA	NA	NA	NA
2019/08/30 18:38:00	AWS2	7.11	11	7.97	8	M	M	M	NA	NA	989.7	NA	NA		M	NA	NA	NA	NA
2019/08/30 18:39:00	AWS2	7.46	13	7.97	15	M	M	M	NA	NA	989.7	NA	NA		M	NA	NA	NA	NA
2019/08/30 18:40:00	AWS2	7.28	12	7.97	15	M	M	M	NA	NA	989.9	NA	NA		M	NA	NA	NA	NA
2019/08/30 18:41:00	AWS2	6.98	12	7.97	15	M	M	M	NA	NA	990.2	NA	NA		M	NA	NA	NA	NA
2019/08/30 18:42:00	AWS2	6.71	15	7.97	15	M	M	M	NA	NA	990.1	NA	NA		M	NA	NA	NA	NA
2019/08/30 18:43:00	AWS2	6.38	17	7.97	15	M	M	M	NA	NA	990.0	NA	NA		M	NA	NA	NA	NA
2019/08/30 18:44:00	AWS2	5.99	19	7.97	15	M	M	M	NA	NA	989.9	NA	NA		M	NA	NA	NA	NA
2019/08/30 18:45:00	AWS2	6.09	19	7.97	15	M	M	M	NA	NA	989.7	NA	NA		M	NA	NA	NA	NA
2019/08/30 18:46:00	AWS2	6.43	18	7.97	15	M	M	M	NA	NA	989.9	NA	NA		M	NA	NA	NA	NA
2019/08/30 18:47:00	AWS2	6.46	17	7.97	15	M	M	M	NA	NA	989.7	NA	NA		M	NA	NA	NA	NA
2019/08/30 18:48:00	AWS2	6.87	15	7.97	15	M	M	M	NA	NA	989.8	NA	NA		M	NA	NA	NA	NA
2019/08/30 18:49:00	AWS2	7.05	14	7.82	7	M	M	M	NA	NA	989.9	NA	NA		M	NA	NA	NA	NA
2019/08/30 18:50:00	AWS2	7.04	16	7.87	14	M	M	M	NA	NA	990.0	NA	NA		M	NA	NA	NA	NA
2019/08/30 18:51:00	AWS2	7.18	19	8.39	18	M	M	M	NA	NA	989.6	NA	NA		M	NA	NA	NA	NA
2019/08/30 18:52:00	AWS2	6.76	19	8.39	18	M	M	M	NA	NA	990.1	NA	NA		M	NA	NA	NA	NA
2019/08/30 18:53:00	AWS2	6.64	14	8.39	18	M	M	M	NA	NA	989.8	NA	NA		M	NA	NA	NA	NA
2019/08/30 18:54:00	AWS2	6.91	12	8.39	18	M	M	M	NA	NA	989.8	NA	NA		M	NA	NA	NA	NA
2019/08/30 18:55:00	AWS2	6.92	12	8.39	18	M	M	M	NA	NA	989.9	NA	NA		M	NA	NA	NA	NA
2019/08/30 18:56:00	AWS2	7.27	9	8.39	11	M	M	M	NA	NA	989.7	NA	NA		M	NA	NA	NA	NA
2019/08/30 18:57:00	AWS2	7.59	6	8.39	11	M	M	M	NA	NA	989.8	NA	NA		M	NA	NA	NA	NA
2019/08/30 18:58:00	AWS2	7.75	6	8.49	9	M	M	M	NA	NA	989.8	NA	NA		M	NA	NA	NA	NA
2019/08/30 18:59:00	AWS2	7.95	7	8.54	6	M	M	M	NA	NA	989.5	NA	NA		M	NA	NA	NA	NA
2019/08/30 19:00:00	AWS2	8.45	7	9.93	9	M	M	M	NA	NA	990.0	NA	NA		M	NA	NA	NA	NA
2019/08/30 19:01:00	AWS2	8.78	6	9.93	9	M	M	M	NA	NA	989.4	NA	NA		M	NA	NA	NA	NA
2019/08/30 19:02:00	AWS2	8.71	4	9.93	9	M	M	M	NA	NA	989.7	NA	NA		M	NA	NA	NA	NA
2019/08/30 19:03:00	AWS2	8.49	6	9.93	9	M	M	M	NA	NA	989.8	NA	NA		M	NA	NA	NA	NA
2019/08/30 19:04:00	AWS2	8.26	7	9.93	9	M	M	M	NA	NA	989.4	NA	NA		M	NA	NA	NA	NA
2019/08/30 19:05:00	AWS2	8.34	7	9.93	9	M	M	M	NA	NA	989.4	NA	NA		M	NA	NA	NA	NA
2019/08/30 19:06:00	AWS2	8.29	5	9.93	9	M	M	M	NA	NA	989.9	NA	NA		M	NA	NA	NA	NA
2019/08/30 19:07:00	AWS2	8.32	6	9.93	9	M	M	M	NA	NA	989.8	NA	NA		M	NA	NA	NA	NA
2019/08/30 19:08:00	AWS2	8.59	6	9.93	9	M	M	M	NA	NA	989.7	NA	NA		M	NA	NA	NA	NA
2019/08/30 19:09:00	AWS2	8.28	6	9.93	9	M	M	M	NA	NA	989.6	NA	NA		M	NA	NA	NA	NA
2019/08/30 19:10:00	AWS2	7.75	6	9.52	8	M	M	M	NA	NA	990.1	NA	NA		M	NA	NA	NA	NA
2019/08/30 19:11:00	AWS2	7.58	7	9.36	3	M	M	M	NA	NA	989.8	NA	NA		M	NA	NA	NA	NA
2019/08/30 19:12:00	AWS2	8.19	7	9.36	3	M	M	M	NA	NA	989.6	NA	NA		M	NA	NA	NA	NA
2019/08/30 19:13:00	AWS2	8.65	8	9.36	3	M	M	M	NA	NA	989.9	NA	NA		M	NA	NA	NA	NA
2019/08/30 19:14:00	AWS2	8.48	9	9.41	12	M	M	M	NA	NA	989.9	NA	NA		M	NA	NA	NA	NA
2019/08/30 19:15:00	AWS2	8.62	8	9.41	12	M	M	M	NA	NA	989.5	NA	NA		M	NA	NA	NA	NA
2019/08/30 19:16:00	AWS2	8.32	6	9.41	12	M	M	M	NA	NA	989.8	NA	NA		M	NA	NA	NA	NA
2019/08/30 19:17:00	AWS2	8.45	7	9.72	8	M	M	M	NA	NA	989.7	NA	NA		M	NA	NA	NA	NA
2019/08/30 19:18:00	AWS2	9.05	9	9.88	5	M	M	M	NA	NA	990.0	NA	NA		M	NA	NA	NA	NA
2019/08/30 19:19:00	AWS2	9.15	8	9.88	5	M	M	M	NA	NA	989.6	NA	NA		M	NA	NA	NA	NA
2019/08/30 19:20:00	AWS2	8.98	5	9.88	5	M	M	M	NA	NA	989.5	NA	NA		M	NA	NA	NA	NA
2019/08/30 19:21:00	AWS2	9.06	6	10.13	10	M	M	M	NA	NA	989.4	NA	NA		M	NA	NA	NA	NA
2019/08/30 19:22:00	AWS2	9.33	8	10.13	10	M	M	M	NA	NA	989.3	NA	NA		M	NA	NA	NA	NA
2019/08/30 19:23:00	AWS2	9.35	8	10.13	10	M	M	M	NA	NA	989.7	NA	NA		M	NA	NA	NA	NA
2019/08/30 19:24:00	AWS2	9.34	8	10.13	10	M	M	M	NA	NA	989.7	NA	NA		M	NA	NA	NA	NA
2019/08/30 19:25:00	AWS2	8.95	8	10.13	10	M	M	M	NA	NA	989.7	NA	NA		M	NA	NA	NA	NA
2019/08/30 19:26:00	AWS2	8.96	7	10.19	5	M	M	M	NA	NA	989.9	NA	NA		M	NA	NA	NA	NA
2019/08/30 19:27:00	AWS2	9.28	6	10.24	6	M	M	M	NA	NA	989.6	NA	NA		M	NA	NA	NA	NA
2019/08/30 19:28:00	AWS2	9.04	7	10.24	6	M	M	M	NA	NA	989.7	NA	NA		M	NA	NA	NA	NA
2019/08/30 19:29:00	AWS2	8.97	8	10.55	11	M	M	M	NA	NA	989.6	NA	NA		M	NA	NA	NA	NA
2019/08/30 19:30:00	AWS2	9.23	8	10.55	11	M	M	M	NA	NA	989.9	NA	NA		M	NA	NA	NA	NA
2019/08/30 19:31:00	AWS2	9.23	8	10.55	11	M	M	M	NA	NA	989.8	NA	NA		M	NA	NA	NA	NA
2019/08/30 19:32:00	AWS2	8.81	8	10.55	11	M	M	M	NA	NA	989.9	NA	NA		M	NA	NA	NA	NA
2019/08/30 19:33:00	AWS2	8.85	8	10.55	11	M	M	M	NA	NA	989.8	NA	NA		M	NA	NA	NA	NA
2019/08/30 19:34:00	AWS2	9.03	7	10.55	11	M	M	M	NA	NA	989.6	NA	NA		M	NA	NA	NA	NA
2019/08/30 19:35:00	AWS2	8.47	6	10.55	11	M	M	M	NA	NA	990.0	NA	NA		M	NA	NA	NA	NA
2019/08/30 19:36:00	AWS2	8.63	7	10.55	11	M	M	M	NA	NA	989.8	NA	NA		M	NA	NA	NA	NA
2019/08/30 19:37:00	AWS2	9.30	7	10.55	11	M	M	M	NA	NA	989.5	NA	NA		M	NA	NA	NA	NA
2019/08/30 19:38:00	AWS2	9.34	5	10.55	11	M	M	M	NA	NA	990.0	NA	NA		M	NA	NA	NA	NA
2019/08/30 19:39:00	AWS2	9.18	5	10.39	9	M	M	M	NA	NA	990.1	NA	NA		M	NA	NA	NA	NA
2019/08/30 19:40:00	AWS2	8.92	7	10.39	9	M	M	M	NA	NA	989.8	NA	NA		M	NA	NA	NA	NA
2019/08/30 19:41:00	AWS2	8.99	7	10.39	9	M	M	M	NA	NA	989.8	NA	NA		M	NA	NA	NA	NA
2019/08/30 19:42:00	AWS2	9.13	11	10.39	9	M	M	M	NA	NA	989.7	NA	NA		M	NA	NA	NA	NA
2019/08/30 19:43:00	AWS2	8.88	10	10.39	9	M	M	M	NA	NA	989.8	NA	NA		M	NA	NA	NA	NA
2019/08/30 19:44:00	AWS2	8.24	6	10.39	9	M	M	M	NA	NA	989.9	NA	NA		M	NA	NA	NA	NA
2019/08/30 19:45:00	AWS2	7.83	4	10.39	9	M	M	M	NA	NA	989.9	NA	NA		M	NA	NA	NA	NA
2019/08/30 19:46:00	AWS2	7.91	4	10.39	9	M	M	M	NA	NA	990.0	NA	NA		M	NA	NA	NA	NA
2019/08/30 19:47:00	AWS2	7.87	7	10.39	9	M	M	M	NA	NA	990.2	NA	NA		M	NA	NA	NA	NA
2019/08/30 19:48:00	AWS2	7.77	7	10.39	9	M	M	M	NA	NA	990.1	NA	NA		M	NA	NA	NA	NA
2019/08/30 19:49:00	AWS2	7.67	7	9.88	8	M	M	M	NA	NA	990.1	NA	NA		M	NA	NA	NA	NA
2019/08/30 19:50:00	AWS2	7.78	7	9.88	8	M	M	M	NA	NA	990.2	NA	NA		M	NA	NA	NA	NA
2019/08/30 19:51:00	AWS2	7.45	6	9.88	8	M	M	M	NA	NA	990.0	NA	NA		M	NA	NA	NA	NA
2019/08/30 19:52:00	AWS2	6.70	8	9.21	7	M	M	M	NA	NA	990.4	NA	NA		M	NA	NA	NA	NA
2019/08/30 19:53:00	AWS2	6.94	9	9.00	10	M	M	M	NA	NA	990.2	NA	NA		M	NA	NA	NA	NA
2019/08/30 19:54:00	AWS2	7.75	9	8.75	13	M	M	M	NA	NA	990.0	NA	NA		M	NA	NA	NA	NA
2019/08/30 19:55:00	AWS2	7.63	12	8.75	13	M	M	M	NA	NA	989.8	NA	NA		M	NA	NA	NA	NA
2019/08/30 19:56:00	AWS2	7.07	12	8.75	13	M	M	M	NA	NA	990.1	NA	NA		M	NA	NA	NA	NA
2019/08/30 19:57:00	AWS2	7.22	11	8.75	13	M	M	M	NA	NA	990.1	NA	NA		M	NA	NA	NA	NA
2019/08/30 19:58:00	AWS2	7.37	12	8.75	13	M	M	M	NA	NA	990.2	NA	NA		M	NA	NA	NA	NA
2019/08/30 19:59:00	AWS2	7.37	13	8.75	13	M	M	M	NA	NA	990.1	NA	NA		M	NA	NA	NA	NA
2019/08/30 20:00:00	AWS2	7.51	12	8.75	13	M	M	M	NA	NA	990.2	NA	NA		M	NA	NA	NA	NA
2019/08/30 20:01:00	AWS2	7.50	12	8.75	13	M	M	M	NA	NA	990.1	NA	NA		M	NA	NA	NA	NA
2019/08/30 20:02:00	AWS2	7.17	14	8.75	13	M	M	M	NA	NA	990.2	NA	NA		M	NA	NA	NA	NA
2019/08/30 20:03:00	AWS2	6.82	11	8.75	13	M	M	M	NA	NA	990.4	NA	NA		M	NA	NA	NA	NA
2019/08/30 20:04:00	AWS2	6.71	9	8.23	16	M	M	M	NA	NA	990.0	NA	NA		M	NA	NA	NA	NA
2019/08/30 20:05:00	AWS2	6.94	12	8.23	16	M	M	M	NA	NA	990.3	NA	NA		M	NA	NA	NA	NA
2019/08/30 20:06:00	AWS2	7.01	11	8.23	16	M	M	M	NA	NA	990.1	NA	NA		M	NA	NA	NA	NA
2019/08/30 20:07:00	AWS2	6.87	11	8.23	16	M	M	M	NA	NA	990.3	NA	NA		M	NA	NA	NA	NA
2019/08/30 20:08:00	AWS2	6.96	11	8.23	16	M	M	M	NA	NA	990.2	NA	NA		M	NA	NA	NA	NA
2019/08/30 20:09:00	AWS2	6.53	11	8.23	16	M	M	M	NA	NA	990.4	NA	NA		M	NA	NA	NA	NA
2019/08/30 20:10:00	AWS2	6.41	8	8.23	16	M	M	M	NA	NA	990.1	NA	NA		M	NA	NA	NA	NA
2019/08/30 20:11:00	AWS2	6.48	7	7.72	15	M	M	M	NA	NA	990.0	NA	NA		M	NA	NA	NA	NA
2019/08/30 20:12:00	AWS2	5.76	10	7.56	15	M	M	M	NA	NA	990.4	NA	NA		M	NA	NA	NA	NA
2019/08/30 20:13:00	AWS2	5.65	12	7.56	15	M	M	M	NA	NA	990.5	NA	NA		M	NA	NA	NA	NA
2019/08/30 20:14:00	AWS2	6.08	11	7.56	15	M	M	M	NA	NA	990.4	NA	NA		M	NA	NA	NA	NA
2019/08/30 20:15:00	AWS2	6.11	11	7.41	12	M	M	M	NA	NA	990.0	NA	NA		M	NA	NA	NA	NA
2019/08/30 20:16:00	AWS2	6.00	11	7.41	12	M	M	M	NA	NA	990.1	NA	NA		M	NA	NA	NA	NA
2019/08/30 20:17:00	AWS2	5.65	11	7.36	11	M	M	M	NA	NA	990.4	NA	NA		M	NA	NA	NA	NA
2019/08/30 20:18:00	AWS2	5.53	10	7.10	6	M	M	M	NA	NA	990.2	NA	NA		M	NA	NA	NA	NA
2019/08/30 20:19:00	AWS2	5.53	10	7.10	6	M	M	M	NA	NA	990.3	NA	NA		M	NA	NA	NA	NA
2019/08/30 20:20:00	AWS2	5.28	11	6.74	3	M	M	M	NA	NA	990.4	NA	NA		M	NA	NA	NA	NA
2019/08/30 20:21:00	AWS2	5.38	10	6.74	3	M	M	M	NA	NA	990.3	NA	NA		M	NA	NA	NA	NA
2019/08/30 20:22:00	AWS2	5.70	10	6.74	3	M	M	M	NA	NA	990.3	NA	NA		M	NA	NA	NA	NA
2019/08/30 20:23:00	AWS2	5.88	11	6.69	15	M	M	M	NA	NA	990.3	NA	NA		M	NA	NA	NA	NA
2019/08/30 20:24:00	AWS2	5.87	11	6.64	8	M	M	M	NA	NA	990.2	NA	NA		M	NA	NA	NA	NA
2019/08/30 20:25:00	AWS2	5.98	12	6.64	11	M	M	M	NA	NA	990.4	NA	NA		M	NA	NA	NA	NA
2019/08/30 20:26:00	AWS2	5.91	10	6.64	11	M	M	M	NA	NA	990.3	NA	NA		M	NA	NA	NA	NA
2019/08/30 20:27:00	AWS2	5.41	7	6.64	11	M	M	M	NA	NA	990.5	NA	NA		M	NA	NA	NA	NA
2019/08/30 20:28:00	AWS2	5.19	8	6.64	11	M	M	M	NA	NA	990.3	NA	NA		M	NA	NA	NA	NA
2019/08/30 20:29:00	AWS2	5.66	11	6.64	11	M	M	M	NA	NA	990.5	NA	NA		M	NA	NA	NA	NA
2019/08/30 20:30:00	AWS2	5.72	12	6.64	11	M	M	M	NA	NA	990.2	NA	NA		M	NA	NA	NA	NA
2019/08/30 20:31:00	AWS2	5.18	12	6.64	11	M	M	M	NA	NA	990.2	NA	NA		M	NA	NA	NA	NA
2019/08/30 20:32:00	AWS2	4.89	13	6.64	11	M	M	M	NA	NA	990.3	NA	NA		M	NA	NA	NA	NA
2019/08/30 20:33:00	AWS2	4.72	8	6.64	11	M	M	M	NA	NA	990.4	NA	NA		M	NA	NA	NA	NA
2019/08/30 20:34:00	AWS2	4.91	6	6.64	11	M	M	M	NA	NA	990.2	NA	NA		M	NA	NA	NA	NA
2019/08/30 20:35:00	AWS2	5.21	6	6.64	11	M	M	M	NA	NA	990.7	NA	NA		M	NA	NA	NA	NA
2019/08/30 20:36:00	AWS2	5.17	4	6.64	11	M	M	M	NA	NA	990.5	NA	NA		M	NA	NA	NA	NA
2019/08/30 20:37:00	AWS2	4.94	4	6.64	11	M	M	M	NA	NA	990.2	NA	NA		M	NA	NA	NA	NA
2019/08/30 20:38:00	AWS2	4.75	2	6.64	11	M	M	M	NA	NA	990.2	NA	NA		M	NA	NA	NA	NA
2019/08/30 20:39:00	AWS2	5.15	2	6.02	3	M	M	M	NA	NA	990.3	NA	NA		M	NA	NA	NA	NA
2019/08/30 20:40:00	AWS2	5.49	6	6.02	3	M	M	M	NA	NA	990.4	NA	NA		M	NA	NA	NA	NA
2019/08/30 20:41:00	AWS2	5.29	7	6.02	3	M	M	M	NA	NA	990.4	NA	NA		M	NA	NA	NA	NA
2019/08/30 20:42:00	AWS2	4.91	8	6.02	3	M	M	M	NA	NA	990.2	NA	NA		M	NA	NA	NA	NA
2019/08/30 20:43:00	AWS2	4.73	9	6.02	3	M	M	M	NA	NA	990.3	NA	NA		M	NA	NA	NA	NA
2019/08/30 20:44:00	AWS2	4.86	8	6.02	3	M	M	M	NA	NA	990.5	NA	NA		M	NA	NA	NA	NA
2019/08/30 20:45:00	AWS2	5.25	6	6.02	3	M	M	M	NA	NA	990.2	NA	NA		M	NA	NA	NA	NA
2019/08/30 20:46:00	AWS2	5.49	4	6.02	3	M	M	M	NA	NA	990.2	NA	NA		M	NA	NA	NA	NA
2019/08/30 20:47:00	AWS2	5.44	3	6.02	3	M	M	M	NA	NA	990.0	NA	NA		M	NA	NA	NA	NA
2019/08/30 20:48:00	AWS2	5.57	4	6.07	3	M	M	M	NA	NA	990.2	NA	NA		M	NA	NA	NA	NA
2019/08/30 20:49:00	AWS2	5.57	5	6.07	3	M	M	M	NA	NA	990.2	NA	NA		M	NA	NA	NA	NA
2019/08/30 20:50:00	AWS2	5.07	4	6.07	3	M	M	M	NA	NA	990.6	NA	NA		M	NA	NA	NA	NA
2019/08/30 20:51:00	AWS2	4.65	5	6.07	3	M	M	M	NA	NA	990.4	NA	NA		M	NA	NA	NA	NA
2019/08/30 20:52:00	AWS2	4.81	6	6.07	3	M	M	M	NA	NA	990.3	NA	NA		M	NA	NA	NA	NA
2019/08/30 20:53:00	AWS2	5.21	5	6.07	3	M	M	M	NA	NA	990.3	NA	NA		M	NA	NA	NA	NA
2019/08/30 20:54:00	AWS2	5.46	7	6.07	3	M	M	M	NA	NA	990.2	NA	NA		M	NA	NA	NA	NA
2019/08/30 20:55:00	AWS2	5.23	7	6.07	3	M	M	M	NA	NA	990.6	NA	NA		M	NA	NA	NA	NA
2019/08/30 20:56:00	AWS2	5.06	6	6.07	3	M	M	M	NA	NA	990.4	NA	NA		M	NA	NA	NA	NA
2019/08/30 20:57:01	AWS2	5.09	6	6.07	3	M	M	M	NA	NA	990.3	NA	NA		M	NA	NA	NA	NA
2019/08/30 20:58:01	AWS2	5.08	5	5.81	14	M	M	M	NA	NA	990.4	NA	NA		M	NA	NA	NA	NA
2019/08/30 20:59:01	AWS2	4.98	5	5.81	14	M	M	M	NA	NA	990.3	NA	NA		M	NA	NA	NA	NA
2019/08/30 21:00:01	AWS2	4.96	5	5.81	14	M	M	M	NA	NA	990.5	NA	NA		M	NA	NA	NA	NA
2019/08/30 21:01:01	AWS2	4.85	6	5.81	14	M	M	M	NA	NA	990.6	NA	NA		M	NA	NA	NA	NA
2019/08/30 21:02:01	AWS2	5.02	5	5.81	14	M	M	M	NA	NA	990.9	NA	NA		M	NA	NA	NA	NA
2019/08/30 21:03:01	AWS2	5.35	6	5.81	14	M	M	M	NA	NA	990.4	NA	NA		M	NA	NA	NA	NA
2019/08/30 21:04:01	AWS2	4.81	7	5.71	13	M	M	M	NA	NA	990.7	NA	NA		M	NA	NA	NA	NA
2019/08/30 21:05:01	AWS2	4.28	4	5.71	13	M	M	M	NA	NA	990.9	NA	NA		M	NA	NA	NA	NA
2019/08/30 21:06:01	AWS2	4.60	6	5.71	13	M	M	M	NA	NA	990.4	NA	NA		M	NA	NA	NA	NA
2019/08/30 21:07:01	AWS2	5.05	7	5.71	13	M	M	M	NA	NA	990.3	NA	NA		M	NA	NA	NA	NA
2019/08/30 21:08:01	AWS2	5.17	8	5.71	13	M	M	M	NA	NA	990.3	NA	NA		M	NA	NA	NA	NA
2019/08/30 21:09:01	AWS2	5.18	10	5.71	13	M	M	M	NA	NA	990.7	NA	NA		M	NA	NA	NA	NA
2019/08/30 21:10:01	AWS2	5.23	12	5.81	15	M	M	M	NA	NA	990.8	NA	NA		M	NA	NA	NA	NA
2019/08/30 21:11:01	AWS2	4.95	14	5.81	15	M	M	M	NA	NA	991.0	NA	NA		M	NA	NA	NA	NA
2019/08/30 21:12:01	AWS2	4.59	14	5.81	15	M	M	M	NA	NA	991.0	NA	NA		M	NA	NA	NA	NA
2019/08/30 21:13:01	AWS2	4.72	14	5.81	15	M	M	M	NA	NA	990.9	NA	NA		M	NA	NA	NA	NA
2019/08/30 21:14:01	AWS2	5.32	9	6.43	11	M	M	M	NA	NA	990.5	NA	NA		M	NA	NA	NA	NA
2019/08/30 21:15:01	AWS2	5.63	6	6.43	11	M	M	M	NA	NA	990.6	NA	NA		M	NA	NA	NA	NA
2019/08/30 21:16:01	AWS2	5.42	9	6.43	11	M	M	M	NA	NA	990.6	NA	NA		M	NA	NA	NA	NA
2019/08/30 21:17:01	AWS2	5.49	12	6.43	11	M	M	M	NA	NA	990.8	NA	NA		M	NA	NA	NA	NA
2019/08/30 21:18:01	AWS2	5.56	13	6.43	11	M	M	M	NA	NA	990.4	NA	NA		M	NA	NA	NA	NA
2019/08/30 21:19:01	AWS2	5.80	12	6.69	15	M	M	M	NA	NA	990.3	NA	NA		M	NA	NA	NA	NA
2019/08/30 21:20:01	AWS2	5.94	11	6.69	15	M	M	M	NA	NA	990.2	NA	NA		M	NA	NA	NA	NA
2019/08/30 21:21:01	AWS2	5.62	13	6.69	15	M	M	M	NA	NA	990.7	NA	NA		M	NA	NA	NA	NA
2019/08/30 21:22:01	AWS2	5.12	17	6.69	15	M	M	M	NA	NA	990.8	NA	NA		M	NA	NA	NA	NA
2019/08/30 21:23:01	AWS2	4.66	15	6.69	15	M	M	M	NA	NA	990.9	NA	NA		M	NA	NA	NA	NA
2019/08/30 21:24:01	AWS2	4.33	16	6.69	15	M	M	M	NA	NA	990.4	NA	NA		M	NA	NA	NA	NA
2019/08/30 21:25:01	AWS2	4.39	20	6.69	15	M	M	M	NA	NA	990.6	NA	NA		M	NA	NA	NA	NA
2019/08/30 21:26:01	AWS2	4.73	19	6.69	15	M	M	M	NA	NA	991.0	NA	NA		M	NA	NA	NA	NA
2019/08/30 21:27:01	AWS2	4.80	18	6.69	15	M	M	M	NA	NA	990.4	NA	NA		M	NA	NA	NA	NA
2019/08/30 21:28:01	AWS2	4.71	18	6.69	15	M	M	M	NA	NA	990.5	NA	NA		M	NA	NA	NA	NA
2019/08/30 21:29:01	AWS2	4.53	17	6.12	12	M	M	M	NA	NA	990.6	NA	NA		M	NA	NA	NA	NA
2019/08/30 21:30:01	AWS2	4.54	16	5.71	9	M	M	M	NA	NA	990.7	NA	NA		M	NA	NA	NA	NA
2019/08/30 21:31:01	AWS2	4.71	18	5.35	20	M	M	M	NA	NA	990.4	NA	NA		M	NA	NA	NA	NA
2019/08/30 21:32:01	AWS2	5.02	19	5.61	21	M	M	M	NA	NA	990.3	NA	NA		M	NA	NA	NA	NA
2019/08/30 21:33:01	AWS2	5.06	17	5.61	21	M	M	M	NA	NA	990.5	NA	NA		M	NA	NA	NA	NA
2019/08/30 21:34:01	AWS2	5.05	14	5.61	21	M	M	M	NA	NA	990.3	NA	NA		M	NA	NA	NA	NA
2019/08/30 21:35:01	AWS2	5.02	12	5.61	21	M	M	M	NA	NA	990.6	NA	NA		M	NA	NA	NA	NA
2019/08/30 21:36:01	AWS2	4.91	12	5.92	11	M	M	M	NA	NA	990.8	NA	NA		M	NA	NA	NA	NA
2019/08/30 21:37:01	AWS2	5.28	14	5.92	11	M	M	M	NA	NA	990.7	NA	NA		M	NA	NA	NA	NA
2019/08/30 21:38:01	AWS2	5.41	16	5.92	11	M	M	M	NA	NA	990.7	NA	NA		M	NA	NA	NA	NA
2019/08/30 21:39:01	AWS2	4.94	17	5.92	11	M	M	M	NA	NA	990.8	NA	NA		M	NA	NA	NA	NA
2019/08/30 21:40:01	AWS2	4.43	14	5.92	11	M	M	M	NA	NA	990.7	NA	NA		M	NA	NA	NA	NA
2019/08/30 21:41:01	AWS2	4.14	13	5.92	11	M	M	M	NA	NA	991.0	NA	NA		M	NA	NA	NA	NA
2019/08/30 21:42:01	AWS2	3.95	13	5.92	11	M	M	M	NA	NA	990.8	NA	NA		M	NA	NA	NA	NA
2019/08/30 21:43:01	AWS2	4.59	13	5.92	11	M	M	M	NA	NA	990.9	NA	NA		M	NA	NA	NA	NA
2019/08/30 21:44:01	AWS2	5.16	16	5.92	11	M	M	M	NA	NA	990.6	NA	NA		M	NA	NA	NA	NA
2019/08/30 21:45:01	AWS2	4.89	19	5.92	11	M	M	M	NA	NA	990.7	NA	NA		M	NA	NA	NA	NA
2019/08/30 21:46:01	AWS2	4.53	18	5.81	16	M	M	M	NA	NA	991.0	NA	NA		M	NA	NA	NA	NA
2019/08/30 21:47:01	AWS2	4.79	14	6.12	14	M	M	M	NA	NA	990.6	NA	NA		M	NA	NA	NA	NA
2019/08/30 21:48:01	AWS2	5.58	14	6.94	18	M	M	M	NA	NA	990.6	NA	NA		M	NA	NA	NA	NA
2019/08/30 21:49:01	AWS2	6.21	15	7.15	11	M	M	M	NA	NA	990.8	NA	NA		M	NA	NA	NA	NA
2019/08/30 21:50:01	AWS2	6.45	14	7.31	14	M	M	M	NA	NA	990.7	NA	NA		M	NA	NA	NA	NA
2019/08/30 21:51:01	AWS2	6.58	14	7.31	9	M	M	M	NA	NA	990.9	NA	NA		M	NA	NA	NA	NA
2019/08/30 21:52:01	AWS2	6.64	15	7.41	20	M	M	M	NA	NA	990.5	NA	NA		M	NA	NA	NA	NA
2019/08/30 21:53:01	AWS2	6.62	15	7.41	20	M	M	M	NA	NA	991.0	NA	NA		M	NA	NA	NA	NA
2019/08/30 21:54:01	AWS2	6.96	15	7.41	14	M	M	M	NA	NA	990.7	NA	NA		M	NA	NA	NA	NA
2019/08/30 21:55:01	AWS2	7.29	17	7.61	18	M	M	M	NA	NA	990.6	NA	NA		M	NA	NA	NA	NA
2019/08/30 21:56:01	AWS2	7.20	17	7.61	18	M	M	M	NA	NA	990.5	NA	NA		M	NA	NA	NA	NA
2019/08/30 21:57:01	AWS2	6.88	14	7.61	18	M	M	M	NA	NA	990.5	NA	NA		M	NA	NA	NA	NA
2019/08/30 21:58:01	AWS2	6.76	13	7.61	18	M	M	M	NA	NA	990.4	NA	NA		M	NA	NA	NA	NA
2019/08/30 21:59:01	AWS2	6.72	13	7.61	18	M	M	M	NA	NA	990.6	NA	NA		M	NA	NA	NA	NA
2019/08/30 22:00:01	AWS2	6.91	14	7.61	18	M	M	M	NA	NA	990.8	NA	NA		M	NA	NA	NA	NA
2019/08/30 22:01:01	AWS2	6.68	15	7.61	18	M	M	M	NA	NA	990.7	NA	NA		M	NA	NA	NA	NA
2019/08/30 22:02:01	AWS2	6.58	15	7.61	18	M	M	M	NA	NA	991.0	NA	NA		M	NA	NA	NA	NA
2019/08/30 22:03:01	AWS2	6.99	13	7.61	18	M	M	M	NA	NA	990.6	NA	NA		M	NA	NA	NA	NA
2019/08/30 22:04:01	AWS2	6.75	14	7.61	18	M	M	M	NA	NA	990.5	NA	NA		M	NA	NA	NA	NA
2019/08/30 22:05:00	AWS2	6.36	17	7.46	15	M	M	M	NA	NA	990.7	NA	NA		M	NA	NA	NA	NA
2019/08/30 22:06:01	AWS2	6.09	19	7.46	15	M	M	M	NA	NA	990.3	NA	NA		M	NA	NA	NA	NA
2019/08/30 22:07:01	AWS2	5.65	21	7.46	15	M	M	M	NA	NA	990.6	NA	NA		M	NA	NA	NA	NA
2019/08/30 22:08:01	AWS2	5.58	22	7.46	15	M	M	M	NA	NA	990.8	NA	NA		M	NA	NA	NA	NA
2019/08/30 22:09:01	AWS2	6.05	22	7.46	15	M	M	M	NA	NA	990.7	NA	NA		M	NA	NA	NA	NA
2019/08/30 22:10:00	AWS2	6.20	26	7.46	15	M	M	M	NA	NA	990.6	NA	NA		M	NA	NA	NA	NA
2019/08/30 22:11:00	AWS2	6.26	27	7.46	15	M	M	M	NA	NA	990.4	NA	NA		M	NA	NA	NA	NA
2019/08/30 22:12:01	AWS2	6.72	27	7.46	15	M	M	M	NA	NA	990.6	NA	NA		M	NA	NA	NA	NA
2019/08/30 22:13:01	AWS2	6.78	26	7.41	27	M	M	M	NA	NA	990.4	NA	NA		M	NA	NA	NA	NA
2019/08/30 22:14:01	AWS2	6.47	25	7.41	27	M	M	M	NA	NA	990.7	NA	NA		M	NA	NA	NA	NA
2019/08/30 22:15:00	AWS2	6.51	24	7.41	27	M	M	M	NA	NA	990.7	NA	NA		M	NA	NA	NA	NA
2019/08/30 22:16:01	AWS2	6.64	24	7.41	27	M	M	M	NA	NA	990.3	NA	NA		M	NA	NA	NA	NA
2019/08/30 22:17:01	AWS2	6.60	23	7.41	27	M	M	M	NA	NA	990.7	NA	NA		M	NA	NA	NA	NA
2019/08/30 22:18:01	AWS2	6.64	24	7.61	25	M	M	M	NA	NA	991.0	NA	NA		M	NA	NA	NA	NA
2019/08/30 22:19:00	AWS2	6.81	24	7.61	25	M	M	M	NA	NA	991.0	NA	NA		M	NA	NA	NA	NA
2019/08/30 22:20:00	AWS2	6.74	26	7.61	25	M	M	M	NA	NA	990.6	NA	NA		M	NA	NA	NA	NA
2019/08/30 22:21:00	AWS2	6.32	25	7.61	25	M	M	M	NA	NA	990.9	NA	NA		M	NA	NA	NA	NA
2019/08/30 22:22:00	AWS2	6.40	23	7.61	28	M	M	M	NA	NA	990.8	NA	NA		M	NA	NA	NA	NA
2019/08/30 22:23:00	AWS2	6.63	24	7.61	28	M	M	M	NA	NA	990.7	NA	NA		M	NA	NA	NA	NA
2019/08/30 22:24:01	AWS2	6.78	26	7.72	24	M	M	M	NA	NA	990.4	NA	NA		M	NA	NA	NA	NA
2019/08/30 22:25:00	AWS2	6.65	26	7.72	24	M	M	M	NA	NA	990.8	NA	NA		M	NA	NA	NA	NA
2019/08/30 22:26:01	AWS2	6.45	24	7.72	24	M	M	M	NA	NA	990.7	NA	NA		M	NA	NA	NA	NA
2019/08/30 22:27:00	AWS2	6.58	25	7.72	24	M	M	M	NA	NA	990.6	NA	NA		M	NA	NA	NA	NA
2019/08/30 22:28:01	AWS2	6.63	23	7.72	24	M	M	M	NA	NA	991.1	NA	NA		M	NA	NA	NA	NA
2019/08/30 22:29:00	AWS2	6.22	21	7.72	24	M	M	M	NA	NA	990.9	NA	NA		M	NA	NA	NA	NA
2019/08/30 22:30:00	AWS2	5.74	22	7.72	24	M	M	M	NA	NA	990.8	NA	NA		M	NA	NA	NA	NA
2019/08/30 22:31:01	AWS2	5.53	24	7.72	24	M	M	M	NA	NA	990.6	NA	NA		M	NA	NA	NA	NA
2019/08/30 22:32:01	AWS2	5.28	26	7.72	24	M	M	M	NA	NA	990.7	NA	NA		M	NA	NA	NA	NA
2019/08/30 22:33:00	AWS2	4.92	26	7.72	24	M	M	M	NA	NA	990.8	NA	NA		M	NA	NA	NA	NA
2019/08/30 22:34:01	AWS2	4.70	27	7.05	22	M	M	M	NA	NA	990.5	NA	NA		M	NA	NA	NA	NA
2019/08/30 22:35:00	AWS2	4.32	28	7.05	22	M	M	M	NA	NA	990.6	NA	NA		M	NA	NA	NA	NA
2019/08/30 22:36:01	AWS2	3.49	38	7.05	22	M	M	M	NA	NA	991.2	NA	NA		M	NA	NA	NA	NA
2019/08/30 22:37:00	AWS2	3.22	41	7.05	22	M	M	M	NA	NA	991.0	NA	NA		M	NA	NA	NA	NA
2019/08/30 22:38:01	AWS2	3.21	37	6.79	23	M	M	M	NA	NA	990.8	NA	NA		M	NA	NA	NA	NA
2019/08/30 22:39:01	AWS2	2.83	40	6.12	21	M	M	M	NA	NA	991.3	NA	NA		M	NA	NA	NA	NA
2019/08/30 22:40:00	AWS2	2.65	42	5.71	26	M	M	M	NA	NA	990.9	NA	NA		M	NA	NA	NA	NA
2019/08/30 22:41:00	AWS2	2.57	49	5.45	27	M	M	M	NA	NA	991.2	NA	NA		M	NA	NA	NA	NA
2019/08/30 22:42:00	AWS2	2.33	55	5.30	20	M	M	M	NA	NA	991.2	NA	NA		M	NA	NA	NA	NA
2019/08/30 22:43:00	AWS2	2.33	57	4.94	27	M	M	M	NA	NA	991.1	NA	NA		M	NA	NA	NA	NA
2019/08/30 22:44:01	AWS2	2.47	59	4.53	34	M	M	M	NA	NA	991.1	NA	NA		M	NA	NA	NA	NA
2019/08/30 22:45:00	AWS2	2.54	62	3.86	33	M	M	M	NA	NA	991.1	NA	NA		M	NA	NA	NA	NA
2019/08/30 22:46:00	AWS2	3.22	55	4.94	50	M	M	M	NA	NA	991.3	NA	NA		M	NA	NA	NA	NA
2019/08/30 22:47:00	AWS2	4.26	48	5.14	45	M	M	M	NA	NA	991.1	NA	NA		M	NA	NA	NA	NA
2019/08/30 22:48:01	AWS2	4.39	51	5.14	54	M	M	M	NA	NA	991.0	NA	NA		M	NA	NA	NA	NA
2019/08/30 22:49:00	AWS2	4.16	46	5.14	54	M	M	M	NA	NA	991.0	NA	NA		M	NA	NA	NA	NA
2019/08/30 22:50:00	AWS2	4.26	39	5.14	54	M	M	M	NA	NA	991.0	NA	NA		M	NA	NA	NA	NA
2019/08/30 22:51:00	AWS2	5.02	46	6.07	60	M	M	M	NA	NA	990.9	NA	NA		M	NA	NA	NA	NA
2019/08/30 22:52:00	AWS2	5.14	54	6.07	60	M	M	M	NA	NA	990.8	NA	NA		M	NA	NA	NA	NA
2019/08/30 22:53:01	AWS2	4.44	46	6.07	60	M	M	M	NA	NA	991.0	NA	NA		M	NA	NA	NA	NA
2019/08/30 22:54:01	AWS2	4.60	35	6.07	60	M	M	M	NA	NA	991.0	NA	NA		M	NA	NA	NA	NA
2019/08/30 22:55:00	AWS2	4.57	30	6.07	60	M	M	M	NA	NA	990.9	NA	NA		M	NA	NA	NA	NA
2019/08/30 22:56:00	AWS2	4.14	29	6.07	60	M	M	M	NA	NA	991.0	NA	NA		M	NA	NA	NA	NA
2019/08/30 22:57:00	AWS2	3.86	26	6.07	60	M	M	M	NA	NA	990.9	NA	NA		M	NA	NA	NA	NA
2019/08/30 22:58:00	AWS2	3.75	24	6.07	60	M	M	M	NA	NA	990.8	NA	NA		M	NA	NA	NA	NA
2019/08/30 22:59:00	AWS2	4.04	24	6.07	60	M	M	M	NA	NA	990.8	NA	NA		M	NA	NA	NA	NA
2019/08/30 23:00:00	AWS2	4.13	22	6.07	60	M	M	M	NA	NA	990.7	NA	NA		M	NA	NA	NA	NA
2019/08/30 23:01:00	AWS2	4.30	20	5.45	27	M	M	M	NA	NA	990.7	NA	NA		M	NA	NA	NA	NA
2019/08/30 23:02:00	AWS2	4.48	18	5.45	27	M	M	M	NA	NA	990.9	NA	NA		M	NA	NA	NA	NA
2019/08/30 23:03:00	AWS2	4.46	21	5.45	27	M	M	M	NA	NA	990.8	NA	NA		M	NA	NA	NA	NA
2019/08/30 23:04:00	AWS2	4.65	25	5.04	14	M	M	M	NA	NA	990.9	NA	NA		M	NA	NA	NA	NA
2019/08/30 23:05:00	AWS2	4.36	27	5.04	14	M	M	M	NA	NA	991.0	NA	NA		M	NA	NA	NA	NA
2019/08/30 23:06:00	AWS2	3.91	31	5.04	14	M	M	M	NA	NA	990.9	NA	NA		M	NA	NA	NA	NA
2019/08/30 23:07:00	AWS2	3.65	30	5.04	14	M	M	M	NA	NA	990.8	NA	NA		M	NA	NA	NA	NA
2019/08/30 23:08:00	AWS2	3.66	28	5.04	14	M	M	M	NA	NA	990.9	NA	NA		M	NA	NA	NA	NA
2019/08/30 23:09:00	AWS2	3.98	26	5.04	14	M	M	M	NA	NA	990.6	NA	NA		M	NA	NA	NA	NA
2019/08/30 23:10:00	AWS2	4.31	22	5.04	14	M	M	M	NA	NA	991.1	NA	NA		M	NA	NA	NA	NA
2019/08/30 23:11:00	AWS2	4.90	16	5.61	16	M	M	M	NA	NA	990.5	NA	NA		M	NA	NA	NA	NA
2019/08/30 23:12:00	AWS2	5.05	13	5.61	16	M	M	M	NA	NA	991.0	NA	NA		M	NA	NA	NA	NA
2019/08/30 23:13:00	AWS2	4.76	16	5.61	16	M	M	M	NA	NA	990.7	NA	NA		M	NA	NA	NA	NA
2019/08/30 23:14:00	AWS2	4.23	19	5.61	16	M	M	M	NA	NA	990.7	NA	NA		M	NA	NA	NA	NA
2019/08/30 23:15:00	AWS2	3.66	24	5.61	16	M	M	M	NA	NA	990.9	NA	NA		M	NA	NA	NA	NA
2019/08/30 23:16:00	AWS2	3.39	26	5.61	16	M	M	M	NA	NA	990.8	NA	NA		M	NA	NA	NA	NA
2019/08/30 23:17:00	AWS2	3.41	17	5.61	16	M	M	M	NA	NA	990.8	NA	NA		M	NA	NA	NA	NA
2019/08/30 23:18:00	AWS2	3.73	16	5.61	16	M	M	M	NA	NA	990.6	NA	NA		M	NA	NA	NA	NA
2019/08/30 23:19:00	AWS2	4.05	23	5.61	16	M	M	M	NA	NA	991.1	NA	NA		M	NA	NA	NA	NA
2019/08/30 23:20:00	AWS2	4.28	21	5.61	16	M	M	M	NA	NA	990.9	NA	NA		M	NA	NA	NA	NA
2019/08/30 23:21:00	AWS2	4.43	22	5.40	16	M	M	M	NA	NA	990.7	NA	NA		M	NA	NA	NA	NA
2019/08/30 23:22:00	AWS2	4.46	24	4.99	17	M	M	M	NA	NA	991.0	NA	NA		M	NA	NA	NA	NA
2019/08/30 23:23:00	AWS2	4.26	22	4.99	18	M	M	M	NA	NA	990.8	NA	NA		M	NA	NA	NA	NA
2019/08/30 23:24:00	AWS2	3.97	20	4.99	18	M	M	M	NA	NA	990.7	NA	NA		M	NA	NA	NA	NA
2019/08/30 23:25:00	AWS2	4.17	19	5.20	14	M	M	M	NA	NA	991.1	NA	NA		M	NA	NA	NA	NA
2019/08/30 23:26:00	AWS2	4.89	20	5.76	14	M	M	M	NA	NA	990.8	NA	NA		M	NA	NA	NA	NA
2019/08/30 23:27:00	AWS2	5.33	21	5.76	14	M	M	M	NA	NA	990.8	NA	NA		M	NA	NA	NA	NA
2019/08/30 23:28:00	AWS2	5.31	23	5.76	14	M	M	M	NA	NA	990.6	NA	NA		M	NA	NA	NA	NA
2019/08/30 23:29:00	AWS2	5.18	23	5.76	14	M	M	M	NA	NA	990.7	NA	NA		M	NA	NA	NA	NA
2019/08/30 23:30:00	AWS2	4.83	22	5.76	14	M	M	M	NA	NA	990.7	NA	NA		M	NA	NA	NA	NA
2019/08/30 23:31:00	AWS2	4.68	23	5.76	14	M	M	M	NA	NA	990.9	NA	NA		M	NA	NA	NA	NA
2019/08/30 23:32:00	AWS2	4.96	23	5.76	14	M	M	M	NA	NA	990.6	NA	NA		M	NA	NA	NA	NA
2019/08/30 23:33:00	AWS2	4.73	22	5.76	14	M	M	M	NA	NA	991.1	NA	NA		M	NA	NA	NA	NA
2019/08/30 23:34:00	AWS2	4.69	24	5.76	14	M	M	M	NA	NA	990.5	NA	NA		M	NA	NA	NA	NA
2019/08/30 23:35:00	AWS2	4.91	28	5.76	14	M	M	M	NA	NA	990.5	NA	NA		M	NA	NA	NA	NA
2019/08/30 23:36:00	AWS2	4.72	29	5.71	33	M	M	M	NA	NA	991.3	NA	NA		M	NA	NA	NA	NA
2019/08/30 23:37:00	AWS2	4.50	29	5.71	33	M	M	M	NA	NA	990.7	NA	NA		M	NA	NA	NA	NA
2019/08/30 23:38:00	AWS2	4.66	25	5.71	33	M	M	M	NA	NA	990.7	NA	NA		M	NA	NA	NA	NA
2019/08/30 23:39:00	AWS2	5.04	24	5.71	33	M	M	M	NA	NA	990.8	NA	NA		M	NA	NA	NA	NA
2019/08/30 23:40:00	AWS2	5.01	28	5.71	33	M	M	M	NA	NA	991.3	NA	NA		M	NA	NA	NA	NA
2019/08/30 23:41:00	AWS2	4.63	30	5.71	33	M	M	M	NA	NA	990.8	NA	NA		M	NA	NA	NA	NA
2019/08/30 23:42:00	AWS2	4.77	27	6.22	29	M	M	M	NA	NA	990.6	NA	NA		M	NA	NA	NA	NA
2019/08/30 23:43:00	AWS2	5.53	28	6.74	31	M	M	M	NA	NA	990.5	NA	NA		M	NA	NA	NA	NA
2019/08/30 23:44:00	AWS2	6.31	32	7.15	28	M	M	M	NA	NA	990.2	NA	NA		M	NA	NA	NA	NA
2019/08/30 23:45:00	AWS2	6.83	31	7.46	30	M	M	M	NA	NA	990.5	NA	NA		M	NA	NA	NA	NA
2019/08/30 23:46:00	AWS2	6.64	28	7.46	30	M	M	M	NA	NA	990.5	NA	NA		M	NA	NA	NA	NA
2019/08/30 23:47:00	AWS2	6.43	28	7.46	30	M	M	M	NA	NA	990.6	NA	NA		M	NA	NA	NA	NA
2019/08/30 23:48:00	AWS2	6.79	29	8.08	28	M	M	M	NA	NA	990.8	NA	NA		M	NA	NA	NA	NA
2019/08/30 23:49:00	AWS2	7.12	30	8.08	28	M	M	M	NA	NA	990.8	NA	NA		M	NA	NA	NA	NA
2019/08/30 23:50:00	AWS2	7.18	29	8.08	28	M	M	M	NA	NA	990.9	NA	NA		M	NA	NA	NA	NA
2019/08/30 23:51:00	AWS2	7.03	28	8.08	28	M	M	M	NA	NA	990.9	NA	NA		M	NA	NA	NA	NA
2019/08/30 23:52:00	AWS2	6.83	28	8.08	28	M	M	M	NA	NA	991.0	NA	NA		M	NA	NA	NA	NA
2019/08/30 23:53:00	AWS2	6.29	26	8.08	28	M	M	M	NA	NA	991.1	NA	NA		M	NA	NA	NA	NA
2019/08/30 23:54:00	AWS2	6.21	27	8.08	28	M	M	M	NA	NA	990.6	NA	NA		M	NA	NA	NA	NA
2019/08/30 23:55:00	AWS2	6.62	27	8.08	28	M	M	M	NA	NA	990.8	NA	NA		M	NA	NA	NA	NA
2019/08/30 23:56:00	AWS2	6.78	26	8.08	28	M	M	M	NA	NA	990.6	NA	NA		M	NA	NA	NA	NA
2019/08/30 23:57:00	AWS2	7.08	29	8.08	28	M	M	M	NA	NA	990.4	NA	NA		M	NA	NA	NA	NA
2019/08/30 23:58:00	AWS2	7.14	27	8.08	28	M	M	M	NA	NA	990.5	NA	NA		M	NA	NA	NA	NA
2019/08/30 23:59:00	AWS2	7.16	25	8.08	28	M	M	M	NA	NA	990.6	NA	NA		M	NA	NA	NA	NA